[[{"header":{"parameterUnit":"m.s-1","parameterCategory":1,"la1":30.6,"la2":29.2853,"lo1":-89.7004,"lo2":-87.6739,"dy":0.0162,"dx":0.0183,"nx":112,"ny":82,"refTime":"2023-11-13T18:00:00:Z","depth":0,"parameterNumber":2,"parameterNumberName":"U-component_of_WINDS"},"data":[0.0,0.0,0.0,0.0,0.0,0.0,0.0,0.0,0.0,0.0,0.0,0.0,0.0,0.0,0.0,0.0,0.0,0.0,0.0,0.0,0.0,0.0,0.0,0.0,0.0,0.0,0.0,0.0,0.0,0.0,0.0,0.0,0.0,0.0,0.0,0.0,0.0,0.0,0.0,0.0,0.0,0.0,0.0,0.0,0.0,0.0,0.0,0.0,0.0,0.0,0.0,0.0,0.0,0.0,0.0,0.0,0.0,0.0,0.0,0.0,0.0,0.0,0.0,0.0,0.0,0.0,0.0,0.0,0.0,0.0,0.0,0.0,0.0,0.0,0.0,0.0,0.0,0.0,0.0,0.0,0.0,0.0,0.0,0.0,0.0,0.0,0.0,0.0,0.0,0.0,4.6054,4.6016,4.9219,5.1404,5.1385,5.1418,4.9622,4.545,0.0,0.0,0.0,0.0,0.0,0.0,0.0,0.0,0.0,0.0,0.0,0.0,0.0,0.0,0.0,0.0,0.0,0.0,0.0,0.0,0.0,0.0,0.0,0.0,0.0,0.0,0.0,0.0,0.0,0.0,0.0,0.0,0.0,0.0,0.0,0.0,0.0,0.0,0.0,0.0,0.0,0.0,0.0,0.0,0.0,0.0,0.0,0.0,0.0,0.0,0.0,0.0,0.0,0.0,0.0,0.0,0.0,0.0,0.0,0.0,0.0,0.0,0.0,0.0,0.0,0.0,0.0,0.0,0.0,0.0,0.0,0.0,0.0,0.0,0.0,0.0,0.0,0.0,0.0,0.0,0.0,0.0,0.0,0.0,0.0,0.0,0.0,0.0,0.0,0.0,0.0,0.0,0.0,0.0,0.0,0.0,0.0,0.0,0.0,0.0,0.0,0.0,0.0,0.0,4.6526,5.0038,5.1016,5.1406,5.1406,5.1391,4.9873,4.6321,0.0,0.0,0.0,0.0,0.0,0.0,0.0,0.0,0.0,0.0,0.0,0.0,0.0,0.0,0.0,0.0,0.0,0.0,0.0,0.0,0.0,0.0,0.0,0.0,0.0,0.0,0.0,0.0,0.0,0.0,0.0,0.0,0.0,0.0,0.0,0.0,0.0,0.0,0.0,0.0,0.0,0.0,0.0,0.0,0.0,0.0,0.0,0.0,0.0,0.0,0.0,0.0,0.0,0.0,0.0,0.0,0.0,0.0,0.0,0.0,0.0,0.0,0.0,0.0,0.0,0.0,0.0,0.0,0.0,0.0,0.0,0.0,0.0,0.0,0.0,0.0,0.0,0.0,0.0,0.0,0.0,0.0,0.0,0.0,0.0,0.0,0.0,0.0,0.0,0.0,0.0,0.0,0.0,0.0,0.0,0.0,0.0,0.0,0.0,0.0,0.0,0.0,0.0,4.5238,4.806,5.2344,5.2383,5.2109,5.2109,5.1667,4.9721,4.5824,4.4399,0.0,0.0,0.0,0.0,0.0,0.0,0.0,0.0,0.0,0.0,0.0,0.0,0.0,0.0,0.0,0.0,0.0,0.0,0.0,0.0,0.0,0.0,0.0,0.0,0.0,0.0,0.0,0.0,0.0,0.0,0.0,0.0,0.0,0.0,0.0,0.0,0.0,0.0,0.0,0.0,0.0,0.0,0.0,0.0,0.0,0.0,0.0,0.0,0.0,0.0,0.0,0.0,0.0,0.0,0.0,0.0,0.0,0.0,0.0,0.0,0.0,0.0,0.0,0.0,0.0,0.0,0.0,0.0,0.0,0.0,0.0,0.0,0.0,0.0,0.0,0.0,0.0,0.0,0.0,0.0,0.0,0.0,0.0,0.0,0.0,0.0,0.0,0.0,0.0,0.0,0.0,0.0,0.0,0.0,0.0,0.0,0.0,0.0,0.0,0.0,0.0,0.0,4.885,5.0385,5.3633,5.3398,5.3008,5.3008,5.222,4.9882,4.5577,4.4309,0.0,0.0,0.0,0.0,0.0,0.0,0.0,0.0,0.0,0.0,0.0,0.0,0.0,0.0,0.0,0.0,0.0,0.0,0.0,0.0,0.0,0.0,0.0,0.0,0.0,0.0,0.0,0.0,0.0,0.0,0.0,0.0,0.0,0.0,0.0,0.0,0.0,0.0,0.0,0.0,0.0,0.0,0.0,0.0,0.0,0.0,0.0,0.0,0.0,0.0,0.0,0.0,0.0,0.0,0.0,0.0,0.0,0.0,0.0,0.0,0.0,0.0,0.0,0.0,0.0,0.0,0.0,0.0,0.0,0.0,0.0,0.0,0.0,0.0,0.0,0.0,0.0,0.0,0.0,0.0,0.0,0.0,0.0,0.0,0.0,0.0,0.0,0.0,0.0,0.0,0.0,0.0,0.0,0.0,0.0,0.0,0.0,0.0,0.0,0.0,0.0,0.0,5.1128,5.3672,5.3984,5.3945,5.3906,5.3906,5.3125,5.078,4.6466,4.4641,0.0,0.0,0.0,0.0,0.0,0.0,0.0,0.0,0.0,0.0,0.0,0.0,0.0,0.0,0.0,0.0,0.0,0.0,0.0,0.0,0.0,0.0,0.0,0.0,0.0,0.0,0.0,0.0,0.0,0.0,0.0,0.0,0.0,0.0,0.0,0.0,0.0,0.0,0.0,0.0,0.0,0.0,0.0,0.0,0.0,0.0,0.0,0.0,0.0,0.0,0.0,0.0,0.0,0.0,0.0,0.0,0.0,0.0,0.0,0.0,0.0,0.0,0.0,0.0,0.0,0.0,0.0,0.0,0.0,0.0,0.0,0.0,0.0,0.0,0.0,0.0,0.0,0.0,0.0,0.0,0.0,0.0,0.0,0.0,0.0,0.0,0.0,0.0,0.0,0.0,0.0,0.0,0.0,0.0,0.0,0.0,0.0,0.0,0.0,0.0,0.0,0.0,5.1199,5.3823,5.5468,5.5156,5.4805,5.4805,5.4023,5.121,4.5844,0.0,0.0,0.0,0.0,0.0,0.0,0.0,0.0,0.0,0.0,0.0,0.0,0.0,0.0,0.0,0.0,0.0,0.0,0.0,0.0,0.0,0.0,0.0,0.0,0.0,0.0,0.0,0.0,0.0,0.0,0.0,0.0,0.0,0.0,0.0,0.0,0.0,0.0,0.0,0.0,0.0,0.0,0.0,0.0,0.0,0.0,0.0,0.0,0.0,0.0,0.0,0.0,0.0,0.0,0.0,0.0,0.0,0.0,0.0,0.0,0.0,0.0,0.0,0.0,0.0,0.0,0.0,0.0,0.0,0.0,0.0,0.0,0.0,0.0,0.0,0.0,0.0,0.0,0.0,0.0,0.0,0.0,0.0,0.0,0.0,0.0,0.0,0.0,0.0,0.0,0.0,0.0,0.0,0.0,0.0,0.0,0.0,0.0,0.0,0.0,0.0,0.0,4.8337,5.1823,5.4605,5.6406,5.6055,5.5703,5.5703,5.4922,5.1952,4.6153,0.0,0.0,0.0,0.0,0.0,0.0,0.0,0.0,0.0,0.0,0.0,0.0,0.0,0.0,0.0,0.0,0.0,0.0,0.0,0.0,0.0,0.0,0.0,0.0,0.0,0.0,0.0,0.0,0.0,0.0,0.0,0.0,0.0,0.0,0.0,0.0,0.0,0.0,0.0,0.0,0.0,0.0,0.0,0.0,0.0,0.0,0.0,0.0,0.0,0.0,0.0,0.0,0.0,0.0,0.0,0.0,0.0,0.0,0.0,0.0,0.0,0.0,0.0,0.0,0.0,0.0,0.0,0.0,0.0,0.0,0.0,0.0,0.0,0.0,0.0,0.0,0.0,0.0,0.0,0.0,0.0,0.0,0.0,0.0,0.0,0.0,0.0,0.0,0.0,0.0,0.0,0.0,0.0,0.0,0.0,0.0,0.0,0.0,0.0,0.0,0.0,0.0,4.8571,5.3356,5.6601,5.6601,5.6601,5.6601,5.6601,5.582,5.3085,0.0,0.0,0.0,0.0,0.0,0.0,0.0,0.0,0.0,0.0,0.0,0.0,0.0,0.0,0.0,0.0,0.0,0.0,0.0,0.0,0.0,0.0,0.0,0.0,0.0,0.0,0.0,0.0,0.0,0.0,0.0,0.0,0.0,0.0,0.0,0.0,0.0,0.0,0.0,0.0,0.0,0.0,0.0,0.0,0.0,0.0,0.0,0.0,0.0,0.0,0.0,0.0,0.0,0.0,0.0,0.0,0.0,0.0,0.0,0.0,0.0,0.0,0.0,0.0,0.0,0.0,0.0,0.0,0.0,0.0,0.0,0.0,0.0,0.0,0.0,0.0,0.0,0.0,0.0,0.0,0.0,0.0,0.0,0.0,0.0,0.0,0.0,0.0,0.0,0.0,0.0,0.0,0.0,0.0,0.0,0.0,0.0,0.0,0.0,0.0,0.0,0.0,0.0,4.8586,5.3356,5.6588,5.6597,5.6597,5.6597,5.6597,5.6367,5.371,4.7877,0.0,0.0,0.0,0.0,0.0,0.0,0.0,0.0,0.0,0.0,0.0,0.0,0.0,0.0,0.0,0.0,0.0,0.0,0.0,0.0,0.0,0.0,0.0,0.0,0.0,0.0,0.0,0.0,0.0,0.0,0.0,0.0,0.0,0.0,0.0,0.0,0.0,0.0,0.0,0.0,0.0,0.0,0.0,0.0,0.0,0.0,0.0,0.0,0.0,0.0,0.0,0.0,0.0,0.0,0.0,0.0,0.0,0.0,0.0,0.0,0.0,0.0,0.0,0.0,0.0,0.0,0.0,0.0,0.0,0.0,0.0,0.0,0.0,0.0,0.0,0.0,0.0,0.0,0.0,0.0,0.0,0.0,0.0,0.0,0.0,0.0,0.0,0.0,0.0,0.0,0.0,0.0,0.0,0.0,0.0,0.0,0.0,0.0,0.0,0.0,0.0,0.0,4.8586,5.3353,5.661,5.6582,5.6585,5.6585,5.6585,5.6593,5.4607,4.9882,0.0,0.0,0.0,0.0,0.0,0.0,0.0,0.0,0.0,0.0,0.0,0.0,0.0,0.0,0.0,0.0,0.0,0.0,0.0,0.0,0.0,0.0,0.0,0.0,0.0,0.0,0.0,0.0,0.0,0.0,0.0,0.0,0.0,0.0,0.0,0.0,0.0,0.0,0.0,0.0,0.0,0.0,0.0,0.0,0.0,0.0,0.0,0.0,0.0,0.0,0.0,0.0,0.0,0.0,0.0,0.0,0.0,0.0,0.0,0.0,0.0,0.0,0.0,0.0,0.0,0.0,0.0,0.0,0.0,0.0,0.0,0.0,0.0,0.0,0.0,0.0,0.0,0.0,0.0,0.0,0.0,0.0,0.0,0.0,0.0,0.0,0.0,0.0,0.0,0.0,0.0,0.0,0.0,0.0,0.0,0.0,0.0,0.0,0.0,0.0,0.0,0.0,4.8577,5.3356,5.6606,5.6606,5.6606,5.6606,5.6606,5.6606,5.5482,5.288,0.0,0.0,0.0,0.0,0.0,0.0,0.0,0.0,0.0,0.0,0.0,0.0,0.0,0.0,0.0,0.0,0.0,0.0,0.0,0.0,0.0,0.0,0.0,0.0,0.0,0.0,0.0,0.0,0.0,0.0,0.0,0.0,0.0,0.0,0.0,0.0,0.0,0.0,0.0,0.0,0.0,0.0,0.0,0.0,0.0,0.0,0.0,0.0,0.0,0.0,0.0,0.0,0.0,0.0,0.0,0.0,0.0,0.0,0.0,0.0,4.2103,3.8915,0.0,0.0,0.0,0.0,0.0,0.0,0.0,0.0,0.0,0.0,0.0,0.0,0.0,0.0,0.0,0.0,0.0,0.0,0.0,0.0,0.0,0.0,0.0,0.0,0.0,0.0,0.0,0.0,0.0,0.0,0.0,0.0,0.0,0.0,0.0,0.0,0.0,0.0,0.0,0.0,4.8669,5.339,5.661,5.6582,5.6614,5.6606,5.6606,5.6618,5.5492,5.2882,5.1209,0.0,0.0,0.0,0.0,0.0,0.0,0.0,0.0,0.0,0.0,0.0,0.0,0.0,0.0,0.0,0.0,0.0,0.0,0.0,0.0,0.0,0.0,0.0,0.0,0.0,0.0,0.0,0.0,0.0,0.0,0.0,0.0,0.0,0.0,0.0,0.0,0.0,0.0,0.0,0.0,0.0,0.0,0.0,0.0,0.0,0.0,0.0,0.0,0.0,0.0,0.0,0.0,0.0,0.0,0.0,0.0,0.0,0.0,0.0,4.5546,4.3784,0.0,0.0,0.0,0.0,0.0,0.0,0.0,0.0,0.0,0.0,0.0,0.0,0.0,0.0,0.0,0.0,0.0,0.0,0.0,0.0,0.0,0.0,0.0,0.0,0.0,0.0,0.0,0.0,0.0,0.0,0.0,0.0,0.0,0.0,0.0,0.0,0.0,0.0,0.0,0.0,4.8671,5.3388,5.6618,5.6618,5.661,5.6606,5.6606,5.6614,5.6032,5.4669,5.2568,0.0,0.0,0.0,0.0,0.0,0.0,0.0,0.0,0.0,0.0,0.0,0.0,0.0,0.0,0.0,0.0,0.0,0.0,0.0,0.0,0.0,0.0,0.0,0.0,0.0,0.0,0.0,0.0,0.0,0.0,0.0,0.0,0.0,0.0,0.0,0.0,0.0,0.0,0.0,0.0,0.0,0.0,0.0,0.0,0.0,0.0,0.0,0.0,0.0,0.0,0.0,0.0,0.0,4.8122,4.8711,4.8867,4.8867,4.9726,5.1162,4.9687,4.9883,5.0855,4.6674,0.0,0.0,0.0,0.0,0.0,0.0,0.0,0.0,0.0,0.0,0.0,0.0,0.0,0.0,0.0,0.0,0.0,0.0,0.0,0.0,0.0,0.0,0.0,0.0,5.1865,5.2414,4.8865,0.0,0.0,0.0,0.0,0.0,0.0,0.0,0.0,0.0,0.0,0.0,4.933,5.3659,5.6618,5.6606,5.6606,5.6606,5.6606,5.6606,5.6606,5.6606,5.3884,5.2094,0.0,0.0,0.0,0.0,0.0,0.0,0.0,0.0,0.0,0.0,0.0,0.0,0.0,0.0,0.0,0.0,0.0,0.0,0.0,0.0,0.0,0.0,0.0,0.0,0.0,0.0,0.0,0.0,0.0,0.0,0.0,0.0,3.8242,3.9179,0.0,0.0,0.0,0.0,0.0,0.0,0.0,0.0,0.0,0.0,0.0,0.0,0.0,4.5844,4.6793,4.9295,5.0621,5.0741,5.237,5.353,5.4275,5.4217,5.4762,5.5712,5.5427,0.0,5.0267,5.0348,0.0,0.0,0.0,0.0,0.0,0.0,0.0,0.0,0.0,0.0,0.0,0.0,0.0,0.0,0.0,0.0,0.0,0.0,0.0,0.0,0.0,0.0,5.5421,5.556,5.5829,5.5946,0.0,5.1123,4.7343,4.6992,4.621,0.0,0.0,0.0,0.0,0.0,0.0,0.0,5.1791,5.4786,5.6606,5.6606,5.6606,5.6606,5.6606,5.6606,5.6606,5.6606,5.6177,5.4896,5.2605,5.1355,0.0,0.0,0.0,0.0,0.0,0.0,0.0,0.0,0.0,0.0,0.0,0.0,0.0,0.0,0.0,0.0,0.0,0.0,0.0,0.0,0.0,0.0,0.0,0.0,0.0,0.0,0.0,0.0,0.0,3.7733,3.9609,4.0429,3.9568,3.8588,0.0,0.0,0.0,0.0,0.0,0.0,0.0,0.0,0.0,4.8387,4.8855,4.9697,5.0952,5.2635,5.3466,5.3483,5.4759,5.5546,5.5936,5.5892,5.6087,5.6484,5.6478,5.5382,5.355,5.2538,5.0818,4.8633,0.0,0.0,0.0,0.0,4.6999,4.6956,4.9664,5.0308,4.9742,4.8839,0.0,0.0,0.0,0.0,0.0,0.0,0.0,0.0,0.0,0.0,5.4798,5.6263,5.6606,5.6606,5.6606,5.4506,5.2214,0.0,4.9372,4.7304,4.3748,4.4335,0.0,0.0,0.0,5.101,5.2492,5.4978,5.6606,5.6606,5.6606,5.6606,5.6606,5.6606,5.6606,5.6606,5.6606,5.6103,5.4939,5.311,5.0656,0.0,0.0,0.0,0.0,0.0,0.0,0.0,0.0,0.0,0.0,0.0,0.0,0.0,0.0,0.0,0.0,0.0,0.0,0.0,0.0,0.0,0.0,0.0,0.0,0.0,0.0,0.0,0.0,3.9647,4.1445,4.2342,4.2418,4.1672,0.0,0.0,0.0,0.0,0.0,0.0,4.7055,4.7362,4.8833,5.1869,5.2175,5.2848,5.4061,5.4964,5.5416,5.545,5.6079,5.6411,5.6411,5.6397,5.6397,5.6411,5.6397,5.6397,5.6259,5.4412,5.3398,5.2811,5.0857,4.9836,4.9597,5.0686,5.0683,5.0562,5.3626,5.4229,5.3542,5.2684,5.1954,5.0979,4.8623,0.0,0.0,0.0,0.0,5.0467,5.3045,5.3706,5.4171,5.6142,5.6606,5.6606,5.6606,5.6415,5.5755,0.0,5.2648,5.0544,4.668,4.7617,0.0,4.6289,4.9802,5.2956,5.3617,5.5404,5.6606,5.6606,5.6606,5.6606,5.6606,5.6606,5.6606,5.6606,5.6606,5.6606,5.6606,5.4743,5.3071,5.1745,0.0,0.0,0.0,0.0,0.0,0.0,0.0,0.0,0.0,0.0,0.0,0.0,0.0,0.0,0.0,0.0,0.0,0.0,0.0,0.0,0.0,0.0,0.0,0.0,0.0,0.0,0.0,0.0,0.0,4.5937,4.5975,0.0,0.0,0.0,0.0,4.5733,4.6738,4.802,4.9615,5.05,5.1775,5.3611,5.4476,5.4943,5.5036,5.5899,5.6328,5.6328,5.6372,5.6411,5.6406,5.6315,5.6354,5.6406,5.6308,5.6361,5.6372,5.6259,5.5293,5.382,5.3689,5.268,5.1481,5.3188,5.3764,5.4005,5.5818,5.6445,5.625,5.539,5.3429,5.1535,5.2185,5.0663,0.0,0.0,5.2472,5.3125,5.5723,5.6411,5.645,5.6567,5.6606,5.6606,5.6606,5.5957,5.5573,0.0,5.6333,5.5404,5.2722,0.0,5.2412,5.2255,5.2529,5.3617,5.6064,5.6528,5.6606,5.6606,5.6606,5.6606,5.6606,5.6606,5.6606,5.6606,5.6606,5.6606,5.6606,5.6489,5.5208,5.2683,5.1667,0.0,0.0,0.0,0.0,0.0,0.0,0.0,0.0,0.0,0.0,0.0,0.0,0.0,0.0,0.0,0.0,0.0,0.0,0.0,0.0,0.0,0.0,0.0,0.0,0.0,0.0,0.0,0.0,4.6206,4.7168,0.0,4.6248,4.7396,4.8275,4.8535,5.0424,5.2037,5.3204,5.3545,5.4216,5.5372,5.5696,5.588,5.5872,5.6184,5.6339,5.6339,5.6339,5.6339,5.6339,5.6308,5.6308,5.6339,5.6297,5.6308,5.6339,5.6339,5.5996,5.5524,5.5517,5.5134,5.4677,5.5326,5.5533,5.5633,5.6323,5.6523,5.6484,5.6211,5.5507,5.4803,5.5111,5.4557,5.4017,5.4961,5.5195,5.5425,5.638,5.6606,5.6606,5.6606,5.6606,5.6606,5.6606,5.6376,5.6224,5.6528,5.6149,5.5101,5.3034,5.4083,5.4626,5.2956,5.4122,5.556,5.6489,5.6606,5.6606,5.6606,5.6606,5.6606,5.6606,5.6606,5.6606,5.6606,5.6606,5.6606,5.6606,5.6606,5.6181,5.5248,5.4896,5.2214,0.0,0.0,0.0,0.0,0.0,0.0,0.0,0.0,0.0,0.0,0.0,0.0,0.0,0.0,0.0,0.0,0.0,0.0,0.0,0.0,0.0,0.0,0.0,0.0,0.0,4.4957,4.7225,4.6605,4.861,4.9357,4.7548,4.9769,5.1398,5.1608,5.3263,5.4615,5.5444,5.5512,5.5745,5.63,5.6302,5.6291,5.6291,5.6291,5.6291,5.6291,5.6291,5.6291,5.6291,5.6291,5.6291,5.6291,5.6291,5.6291,5.6291,5.6291,5.6308,5.6386,5.6386,5.6419,5.6406,5.6407,5.6386,5.6417,5.645,5.6476,5.6478,5.6523,5.6561,5.6561,5.6561,5.6591,5.661,5.6582,5.6585,5.6582,5.661,5.6606,5.6606,5.6606,5.6606,5.6606,5.6606,5.6606,5.6684,5.6957,5.6305,5.5375,5.42,5.5443,5.5989,5.4247,5.572,5.7001,5.7012,5.7278,5.7426,5.7426,5.7426,5.7309,5.7035,5.6731,5.6579,5.6606,5.6302,5.6263,5.6606,5.6028,5.572,5.572,5.572,5.3307,4.8357,0.0,0.0,0.0,0.0,0.0,0.0,0.0,0.0,0.0,0.0,0.0,0.0,0.0,0.0,0.0,0.0,0.0,0.0,0.0,0.0,0.0,0.0,0.0,4.5227,4.6469,4.7567,4.7564,5.0494,5.188,5.0228,5.2338,5.4159,5.4983,5.5112,5.5473,5.6265,5.6291,5.6291,5.6291,5.6291,5.6291,5.6291,5.6291,5.6291,5.633,5.633,5.633,5.6369,5.6369,5.6369,5.6369,5.6369,5.6369,5.6369,5.6369,5.6369,5.6369,5.6369,5.6397,5.641,5.6391,5.6407,5.6379,5.6386,5.6407,5.6425,5.6484,5.6515,5.6482,5.6484,5.6559,5.6606,5.6528,5.6567,5.6606,5.6606,5.6606,5.6645,5.6645,5.6645,5.6684,5.6684,5.6684,5.6918,5.7699,5.7192,5.6684,5.6684,5.6684,5.6653,5.6597,5.7288,0.0,5.7848,5.8577,5.9104,5.9065,5.9065,5.8714,5.7855,5.702,5.6554,5.6645,5.577,5.5692,5.6567,5.4987,5.4097,5.4097,5.4019,5.2687,5.0142,0.0,0.0,0.0,0.0,0.0,0.0,0.0,0.0,0.0,0.0,0.0,0.0,0.0,0.0,0.0,0.0,0.0,0.0,0.0,0.0,0.0,4.5996,4.7894,4.6852,4.9184,5.1044,5.1031,5.2417,5.34,5.3521,5.4246,5.5093,5.5877,5.5979,5.6057,5.6291,5.6291,5.6291,5.6291,5.6291,5.6291,5.6291,5.6291,5.6602,5.7224,5.7224,5.7535,5.8117,5.8117,5.8117,5.8117,5.8117,5.8117,5.8117,5.8117,5.8117,5.8001,5.6796,5.6329,5.6314,5.6278,5.6276,5.6315,5.6398,5.6439,5.6484,5.6546,5.6562,5.6579,5.6556,5.6588,5.6606,5.6567,5.6606,5.6606,5.6606,5.7035,5.7465,5.7465,5.7933,5.8402,5.8402,5.8402,5.848,5.8714,5.8558,5.8402,5.8402,5.8402,5.8402,5.8375,5.8601,0.0,5.8726,5.8953,5.8879,5.8233,5.8157,5.8079,5.7806,5.7575,5.7452,5.7469,5.7239,5.6926,5.6606,5.6146,5.5876,5.5876,5.4013,5.2375,0.0,0.0,0.0,0.0,0.0,0.0,0.0,0.0,0.0,0.0,0.0,0.0,0.0,0.0,0.0,0.0,0.0,0.0,0.0,0.0,0.0,0.0,4.8794,5.0518,5.0076,5.1692,5.2885,5.2887,5.3676,5.44,5.4851,5.5294,5.5746,5.6239,5.6265,5.6278,5.6291,5.6291,5.6291,5.6291,5.6291,5.6486,5.6835,5.6835,5.7263,5.8078,5.8078,5.835,5.8817,5.8817,5.8817,5.8817,5.8817,5.8817,5.8817,5.8817,5.8817,0.0,0.0,0.0,0.0,0.0,5.73,5.7352,5.7375,5.741,5.7463,5.7531,5.7547,5.7575,5.7575,5.7577,5.7617,5.7577,5.7577,5.7617,5.7617,5.7968,5.8281,5.8281,5.8671,5.9062,5.9062,5.9062,5.9179,5.9531,5.9609,0.0,6.0038,5.9556,5.9109,5.9081,5.9425,5.9624,5.9604,5.9915,5.9956,5.9412,5.9375,5.9258,5.8864,5.8514,0.0,0.0,0.0,5.7226,5.6052,5.5692,0.0,0.0,0.0,5.3349,5.3572,0.0,0.0,0.0,4.9838,4.9489,0.0,0.0,0.0,0.0,0.0,0.0,0.0,0.0,0.0,0.0,0.0,0.0,0.0,0.0,0.0,0.0,5.1606,5.3722,5.3722,5.38,5.3839,5.3761,5.4498,5.504,5.5055,5.5753,5.6209,5.6199,5.6199,5.6265,5.6291,5.6291,0.0,0.0,0.0,5.6874,5.7729,5.7729,5.8156,5.8933,5.8933,5.9011,5.9088,5.9088,5.9088,5.9088,5.9088,5.9088,5.9088,5.9088,5.9088,5.9088,5.8894,5.8817,5.8817,5.8817,5.8817,5.8817,5.8791,0.0,0.0,5.89,5.8927,5.8927,5.8927,5.8942,5.8973,5.8913,5.8942,5.8983,5.8983,5.9061,5.9139,5.9139,5.9217,5.9295,5.9295,5.9295,5.949,6.0271,6.0427,6.0666,6.1369,6.0312,5.9394,5.9371,6.0061,6.0532,6.0463,6.1132,6.1562,6.1385,0.0,0.0,6.0366,5.9592,5.9163,5.9148,5.8325,5.7193,5.5681,5.4843,5.4411,5.4411,5.4331,5.5065,5.6606,5.6606,5.6606,5.6489,5.1123,5.0228,0.0,0.0,0.0,0.0,0.0,0.0,0.0,0.0,0.0,0.0,0.0,0.0,0.0,0.0,0.0,5.0311,5.2802,5.4568,5.4568,5.5117,5.531,5.4646,5.5343,5.5901,5.5947,5.6093,5.6199,5.6278,5.6278,5.6291,5.6291,5.6291,5.6602,5.734,5.734,5.7729,5.8545,5.8583,5.9011,5.9865,0.0,0.0,6.0914,6.0914,6.0914,6.0914,6.0914,6.0914,6.0914,6.0914,6.0914,6.0759,5.936,5.8817,5.8817,5.8817,5.8817,5.8791,5.8849,5.888,5.89,5.8949,5.8967,5.8967,5.8967,5.8973,0.0,5.8967,5.8973,5.8983,5.8983,5.9529,6.0037,6.0037,6.0549,6.1017,6.1017,6.1017,6.1056,6.1252,6.1252,6.133,6.1486,6.1285,6.1131,6.1133,6.1313,6.1451,6.1424,6.158,6.1391,6.0702,6.0624,6.0545,6.039,6.0234,6.0117,6.0038,5.9234,5.8587,5.8285,5.7495,5.707,5.707,5.6432,5.6259,5.6606,5.6606,5.6606,5.6567,5.54,5.5208,0.0,0.0,0.0,0.0,0.0,0.0,0.0,0.0,0.0,0.0,0.0,4.6035,4.8565,0.0,5.1407,5.2709,5.4304,5.5426,5.5426,5.5763,5.584,5.5449,5.583,5.6101,5.6084,5.6078,5.611,5.611,5.611,5.611,5.6141,5.6582,5.7038,5.748,5.7974,5.8609,5.9438,5.9438,5.9904,6.0759,6.0759,6.0992,6.1419,6.1419,6.1652,6.2041,6.2041,6.2313,6.2663,6.2235,6.2041,6.1924,6.0604,6.0099,6.0099,6.0099,6.0099,6.0099,6.0137,6.0149,6.0161,6.0176,6.0195,6.0195,6.0195,6.0195,6.0195,6.0195,6.0195,6.0195,6.0195,6.0507,6.0857,6.0857,6.1179,6.1451,6.1451,6.1451,6.1451,6.1451,6.1451,6.1451,6.1451,6.1524,6.158,6.1601,6.1668,6.169,6.1668,6.1638,6.1444,6.0991,6.0948,6.0939,6.0906,6.0906,6.0918,6.09,6.0087,5.9612,5.9646,5.8847,5.8387,5.8387,5.7617,5.7218,5.7218,5.6813,5.6606,5.6606,5.6606,5.6606,0.0,0.0,0.0,0.0,0.0,0.0,0.0,4.2473,4.3131,4.6336,4.7728,4.9019,5.127,5.2801,5.4039,5.4885,5.5586,5.5995,5.5995,5.5998,5.598,5.5977,5.6012,5.6051,5.598,5.5977,5.5938,5.5921,5.6075,5.6209,5.6244,5.7146,5.7738,5.7901,5.8668,5.9474,6.0332,6.0332,6.072,6.1419,6.1575,6.1652,6.1652,6.1847,6.2274,6.2934,6.2934,6.3362,6.3945,6.3245,6.2934,6.2896,6.2196,6.1924,6.1847,6.1536,6.1419,6.1419,6.1419,6.1419,6.1419,6.1419,6.1419,6.1419,6.1419,6.1419,6.1419,6.1419,6.1419,6.1419,6.1419,6.1419,6.1419,6.1419,6.1419,6.1419,6.1419,6.1419,6.1419,6.1419,6.1419,6.1458,6.1614,6.169,6.1736,6.1824,6.1874,6.1946,6.207,6.2052,6.2017,6.1993,6.2024,6.1987,6.1939,6.1746,6.1666,6.1715,6.0926,6.0477,6.051,5.9703,5.924,5.924,5.8423,5.8045,5.8045,5.7415,5.7086,5.7086,5.7079,5.6918,4.2124,4.228,4.3272,4.3844,4.3448,4.4095,0.0,4.8424,4.815,5.0829,5.2026,5.2913,5.3994,5.4452,5.4912,5.5727,5.5941,5.598,5.598,5.5943,5.5905,5.5905,5.5924,5.5943,5.5884,5.5902,5.5921,5.5995,5.6764,5.7224,5.7224,5.8086,5.8894,5.9677,5.9871,6.0366,6.1264,6.1264,6.1303,6.1419,6.2196,6.2546,6.2585,6.3362,6.375,6.3867,6.3867,6.3906,6.3983,6.3906,6.3867,6.3828,6.375,6.3711,6.3517,6.1963,6.1419,6.1419,6.1419,6.1419,6.1419,6.1419,6.1419,6.1419,6.1419,6.1419,6.1419,6.1419,6.1419,6.1419,6.1419,6.1419,6.1419,6.1419,6.1419,6.1419,6.1419,6.1419,6.1419,6.1419,6.1419,6.1652,6.2429,6.2546,6.2591,6.257,6.2635,6.2939,6.3716,6.3828,6.3823,6.3812,6.3812,6.3812,6.3806,6.3038,6.2572,6.2581,6.1744,6.1253,6.1266,6.0516,6.0058,6.0058,5.9274,5.8875,5.8875,5.8826,5.8789,5.8711,5.8808,5.8011,4.6326,4.5526,4.5001,4.6287,4.6728,4.7422,4.9507,4.9815,5.0393,5.2974,5.3745,5.4304,5.5248,5.5477,5.5611,5.5941,5.6018,5.6,5.5943,5.5885,5.5827,5.5827,5.5787,5.5787,5.5847,5.5885,5.6136,5.658,5.6966,5.741,5.7969,5.8856,5.9547,5.9924,6.0476,6.0988,6.1419,6.1419,6.1652,6.2157,6.2546,6.2973,6.3478,6.3828,6.4255,6.4721,6.5226,6.546,6.5421,6.4916,6.4683,6.4644,6.4178,6.3983,6.3867,6.2624,6.2157,6.208,6.1575,6.1419,6.1419,6.1419,6.1419,6.1419,6.1419,6.1419,6.1419,6.1419,6.1419,6.1419,6.1419,6.1419,6.1419,6.1419,6.1419,6.1419,6.1419,6.1808,6.2157,6.2157,6.2585,6.3012,6.3401,6.3456,6.3612,6.4066,6.3826,6.3706,6.4057,6.406,6.4051,6.4042,6.4031,6.4031,6.4031,6.3675,6.3441,6.3468,6.2627,6.216,6.2157,6.1355,6.0915,6.0915,6.0088,5.9708,5.9708,5.9261,5.9048,5.9009,5.9023,5.8667,4.7663,4.7045,4.6408,4.8102,4.9355,5.024,5.049,5.1183,5.2281,5.4169,5.4747,5.5133,5.5864,5.598,5.6018,5.6018,5.5961,5.5924,5.5885,5.5807,5.5766,5.5766,5.5724,5.5724,5.5766,5.5807,5.6192,5.6999,5.7247,5.7769,5.8701,5.961,6.0133,6.0187,6.0876,6.1236,6.1352,6.1585,6.2051,6.2701,6.3168,6.3711,6.4333,6.4566,6.4993,6.5576,6.6237,6.6508,6.647,6.5809,6.5576,6.5498,6.4916,6.4683,6.4566,6.3711,6.3245,6.2973,6.2352,6.2119,6.208,6.1847,6.1769,6.173,6.1458,6.1419,6.1419,6.1419,6.1419,6.1419,6.1419,6.1419,6.1458,6.1691,6.1769,6.1808,6.208,6.2624,6.3051,6.3051,6.3556,6.4061,6.4294,6.4333,6.4605,6.5421,6.5111,6.4778,6.4778,6.4715,6.4675,6.4697,6.4683,6.4683,6.4683,6.445,6.4337,6.4309,6.3534,6.3054,6.3075,6.2212,6.1769,6.1769,6.0966,6.0544,6.0544,5.9974,5.9703,5.9703,5.9673,5.9684,4.4449,4.562,4.7255,4.8951,5.0625,5.2049,5.2955,5.3822,5.4439,5.4648,5.5362,5.5941,5.5995,5.6016,5.6018,5.6018,5.5905,5.5807,5.5787,5.5745,5.5703,5.5703,5.5703,5.5703,5.5703,5.5703,5.6049,5.6956,5.7769,5.8638,5.9524,6.0453,6.0941,6.0963,6.0983,6.1079,6.1181,6.2034,6.2548,6.274,6.4372,6.5149,6.5188,6.6042,6.6431,6.647,6.6508,6.6508,6.6508,6.647,6.647,6.647,6.6431,6.6431,6.6314,6.546,6.4644,6.3945,6.3945,6.3906,6.3789,6.2934,6.2663,6.2507,6.1652,6.1419,6.1419,6.1419,6.1419,6.1419,6.1419,6.1419,6.1614,6.2468,6.2663,6.2896,6.375,6.3945,6.3945,6.3945,6.3983,6.4255,6.5032,6.5149,6.546,6.6314,6.6431,6.6446,6.6446,6.6446,6.6431,6.6431,6.6431,6.6431,6.6431,6.5654,6.5149,6.5149,6.4411,6.3945,6.3959,6.3129,6.2663,6.2663,6.1808,6.1342,6.1342,6.1401,6.1412,6.1422,6.1426,6.1412,4.6355,4.7681,4.8951,5.0625,5.2356,5.3703,5.4031,5.4724,5.5343,5.5403,5.5249,5.5093,5.5148,5.513,5.5112,5.5075,5.548,5.5787,5.5745,5.5724,5.5703,5.5703,5.5703,5.5703,5.5703,5.6203,5.6917,5.7807,5.8633,5.954,6.0492,6.0783,6.0941,6.1002,6.1041,6.1389,6.1986,6.2296,6.2993,6.4191,6.5347,6.5924,6.5924,6.6322,6.6508,6.6508,6.6508,6.6508,6.6508,6.6508,6.6508,6.6508,6.6508,6.6508,6.647,6.6159,6.5887,6.5498,6.4372,6.3983,6.3945,6.3673,6.3556,6.3517,6.3206,6.3129,6.3129,6.3129,6.3129,6.3129,6.3129,6.3129,6.3206,6.3478,6.3556,6.3634,6.3945,6.4411,6.4799,6.4799,6.5265,6.5732,6.6003,6.6081,6.6159,6.647,6.6508,6.6508,6.6508,6.6508,6.6508,6.6508,6.6508,6.6508,6.6508,6.6237,6.6081,6.6081,6.5265,6.4799,6.4799,6.3983,6.3556,6.3556,6.2701,6.2274,6.2274,6.1751,6.149,6.149,6.1534,6.1559,4.7855,4.8971,4.9933,5.2241,5.3664,5.4587,5.4878,5.536,5.5745,5.5807,5.5191,5.4669,5.4687,5.4687,5.4669,5.4631,5.5188,5.5703,5.5703,5.566,5.566,5.5703,5.5703,5.5818,5.6126,5.6934,5.7687,5.8269,5.9034,5.9919,6.0894,6.0894,6.1032,6.1383,6.1404,6.187,6.2799,6.3109,6.3979,6.5373,6.5993,6.6244,6.6263,6.6389,6.6422,6.6422,6.6493,6.6508,6.6508,6.6508,6.6508,6.6508,6.6508,6.6508,6.6508,6.6508,6.6508,6.6353,6.5265,6.4877,6.4838,6.4527,6.4411,6.4372,6.41,6.3983,6.3983,6.3983,6.3983,6.3983,6.3983,6.3983,6.4061,6.4372,6.4411,6.4527,6.4838,6.5304,6.5639,6.5623,6.6105,6.6508,6.6493,6.6493,6.6508,6.6508,6.6508,6.6508,6.6508,6.6508,6.6508,6.6508,6.6508,6.6508,6.6508,6.6508,6.6508,6.6508,6.5965,6.5654,6.5654,6.4877,6.4411,6.4411,6.3595,6.3168,6.3168,6.2639,6.2402,6.2413,6.244,6.2439,4.8779,4.951,5.0394,5.3664,5.4511,5.4801,5.5612,5.5787,5.5807,5.5769,5.5113,5.4532,5.4417,5.4457,5.4458,5.4477,5.5066,5.5531,5.5682,5.5615,5.557,5.5703,5.5742,5.6088,5.6896,5.7819,5.8357,5.8357,5.9127,5.9935,6.0742,6.0781,6.1204,6.205,6.2089,6.2583,6.356,6.4431,6.5286,6.6165,6.6165,6.6185,6.6185,6.6244,6.6299,6.6316,6.6422,6.6508,6.6508,6.6508,6.6508,6.6508,6.6508,6.6508,6.6508,6.6508,6.6508,6.6508,6.6508,6.6508,6.6353,6.5537,6.5265,6.511,6.4372,6.4139,6.4139,6.4139,6.4139,6.4139,6.4139,6.4139,6.4333,6.511,6.5265,6.5498,6.6314,6.6508,6.6493,6.6406,6.6439,6.6493,6.6406,6.6439,6.6508,6.6508,6.6547,6.6547,6.6508,6.6508,6.6508,6.6508,6.6508,6.6508,6.6508,6.6508,6.6508,6.6508,6.6508,6.6508,6.6508,6.5732,6.5265,6.5265,6.4488,6.4061,6.4061,6.4037,6.3998,6.3998,6.3982,6.4003,4.9817,5.1279,5.2587,5.4126,5.4934,5.5434,5.5686,5.5724,5.5357,5.3985,5.3126,5.2223,5.0991,5.1761,5.2608,5.2723,5.4359,5.5682,5.5703,5.5682,5.5682,5.5703,5.628,5.6742,5.6973,5.8319,5.9204,5.9204,5.9973,6.055,6.0781,6.0781,6.1204,6.205,6.2089,6.2805,6.433,6.5177,6.5741,6.5958,6.6013,6.6058,6.6058,6.6185,6.6225,6.6299,6.6334,6.6406,6.6508,6.6508,6.6508,6.6508,6.6508,6.6508,6.6508,6.6508,6.6508,6.6508,6.6508,6.6508,6.647,6.6237,6.6159,6.612,6.5926,6.5848,6.5848,6.5848,6.5848,6.5848,6.5848,6.5848,6.5926,6.612,6.6159,6.6221,6.6384,6.6422,6.6406,6.6411,6.6389,6.6422,6.6493,6.6493,6.6508,6.6508,6.7052,6.7247,6.6586,6.6508,6.6508,6.6508,6.6508,6.6508,6.6508,6.6508,6.6508,6.6508,6.6508,6.6508,6.6508,6.6275,6.6159,6.6159,6.5343,6.4877,6.4877,6.4273,6.4009,6.4021,6.4037,6.4101,5.1318,5.2741,5.3972,5.4818,5.5357,5.5511,5.4699,5.4523,5.3925,5.1765,5.1045,5.0279,4.8548,5.0298,5.1895,5.1491,5.3797,5.5638,5.5703,5.566,5.5753,5.6203,5.6703,5.728,5.8011,5.8934,5.9665,6.005,6.0512,6.0781,6.0781,6.1166,6.1743,6.2589,6.3012,6.382,6.5166,6.5667,6.5897,6.5897,6.5933,6.5958,6.5982,6.6058,6.6144,6.6167,6.6263,6.6334,6.6422,6.6493,6.6508,6.6508,6.6508,6.6508,6.6508,6.6508,6.6508,6.6508,6.6508,6.6508,6.6508,6.6508,6.6508,6.6508,6.6508,6.6508,6.6508,6.6508,6.6508,6.6508,6.6508,6.6508,6.6508,6.6439,6.6477,6.6422,6.6355,6.6338,6.6338,6.6338,6.6338,6.6373,6.6493,6.6819,6.7037,6.7005,6.7726,6.8075,6.7557,6.7515,6.7515,6.748,6.748,6.748,6.748,6.7515,6.7376,6.7027,6.7037,6.6897,6.6508,6.6508,6.6508,6.6508,6.6003,6.577,6.577,6.5297,6.5103,6.5115,6.5182,6.5205,5.2779,5.3857,5.4703,5.5511,5.5703,5.522,5.3421,5.2938,5.2072,4.9401,4.8854,4.8356,4.6666,4.9125,5.1202,5.0682,5.3152,5.5301,5.5643,5.5615,5.59,5.6896,5.7088,5.778,5.9358,5.9588,5.9973,6.0742,6.0896,6.0973,6.0973,6.1666,6.2512,6.3435,6.432,6.5128,6.5897,6.5897,6.5897,6.5897,6.5897,6.5897,6.5897,6.5982,6.599,6.6013,6.6187,6.6281,6.6316,6.6406,6.6493,6.6508,6.6493,6.6493,6.6508,6.6508,6.6508,6.6508,6.6508,6.6508,6.6508,6.6508,6.6508,6.6508,6.6508,6.6508,6.6508,6.6508,6.6508,6.6508,6.6493,6.6493,6.6493,6.6389,6.6389,6.6355,6.6303,6.6284,6.6264,6.6281,6.6379,6.6513,6.6633,6.7386,6.7898,6.7754,6.849,6.8995,6.8872,6.8839,6.884,6.87,6.87,6.87,6.87,6.882,6.8568,6.7831,6.7881,6.7542,6.6687,6.6664,6.6625,6.6508,6.6508,6.6508,6.6508,6.6508,6.6508,6.6508,6.6555,6.6574,5.2933,5.3857,5.4703,5.5511,5.5703,5.522,5.3464,5.2581,5.1118,4.7673,4.655,4.5841,4.4748,4.6244,4.8279,5.0259,5.2197,5.3958,5.5489,5.5682,5.5989,5.6896,5.7627,5.8434,5.9396,6.0165,6.0627,6.0781,6.1473,6.1858,6.1858,6.2012,6.2781,6.432,6.5205,6.5743,6.5897,6.5897,6.5897,6.5897,6.5897,6.5897,6.5897,6.5923,6.5958,6.6013,6.6058,0.0,6.6299,6.6264,6.6338,6.6508,6.6389,6.6406,6.6508,6.6508,6.6508,6.6508,6.6508,6.6508,6.6508,6.6508,6.6508,6.6508,6.6508,6.6508,6.6508,6.6508,6.6508,6.6493,6.6422,6.6406,6.6389,6.632,6.634,6.6264,6.6144,6.6165,6.6225,6.6264,6.6919,6.7459,6.7402,6.8139,6.8645,6.8548,6.9262,6.9761,6.9648,6.9121,6.8721,6.87,6.87,6.87,6.87,6.8721,6.8702,6.8588,6.8645,6.8351,6.7548,6.7542,6.7247,6.6508,6.6508,6.6508,6.6508,6.6508,6.6508,6.6508,6.65,6.653,5.3087,5.4126,5.5203,5.5588,5.5703,5.4874,5.1749,5.073,4.9214,4.4701,4.3962,4.3694,4.2317,4.4614,4.7087,4.8294,5.1037,5.3459,5.4809,5.5391,5.6203,5.7511,5.805,5.8781,6.005,6.055,6.0781,6.0781,6.1589,6.2089,6.2089,6.2935,6.3974,6.5243,6.5667,6.5897,6.5897,6.5897,6.5897,6.5897,6.5897,6.5897,6.5897,6.5897,6.5923,6.5958,6.599,6.6041,6.6147,6.6185,6.6245,6.6338,6.6299,6.6334,6.6406,6.6454,6.6508,6.6508,6.6508,6.6508,6.6508,6.6508,6.6508,6.6508,6.6508,6.6508,6.6493,6.6422,6.6406,6.6389,6.632,6.6301,6.6283,6.6205,6.6183,6.6234,6.6592,6.6669,6.6846,6.7398,6.7849,6.8161,6.8181,6.8878,6.9438,6.927,7.0004,7.0536,7.0388,7.0053,6.9847,6.9847,6.9847,6.9847,6.9847,6.9919,6.9772,6.9331,6.9417,6.9111,6.8351,6.8368,6.8208,6.7868,6.7402,6.7169,6.7169,6.6703,6.6508,6.6508,6.6508,6.6514,5.3203,5.4434,5.5703,5.5703,5.5703,5.4545,5.0128,4.9034,4.7482,4.2366,4.1799,4.1877,4.0653,4.3254,4.5781,4.638,4.9488,5.2334,5.3798,5.4809,5.6104,5.8088,5.8319,5.8973,6.0627,6.0781,6.0858,6.105,6.205,6.2627,6.2627,6.4051,6.5205,6.5859,6.5897,6.5897,6.5897,6.5897,6.5897,6.5897,6.5897,6.5897,6.5897,6.5897,6.5897,6.5897,6.5958,6.599,6.6013,6.608,6.6144,6.6185,6.6206,6.6244,6.632,6.66,6.6749,6.6749,6.6959,6.7037,6.7021,6.7021,6.6765,6.6508,6.6493,6.6439,6.6422,6.6299,6.6281,6.6244,6.6185,6.632,6.6492,6.6582,6.6568,6.6704,6.732,6.7449,6.7667,6.8458,6.8776,6.8915,6.8906,6.9662,7.0197,7.0078,7.0632,7.103,7.0925,7.0898,7.0898,7.0898,7.0898,7.0898,7.0898,7.1005,7.0747,7.0117,7.0174,6.9899,6.915,6.9149,6.9127,6.9079,6.8396,6.8062,6.8062,6.7402,6.6975,6.678,6.678,6.6664,5.3203,5.4434,5.5703,5.5703,5.5703,5.4545,5.0172,4.8639,4.6817,4.2311,4.0941,4.0691,4.1185,4.1625,4.2886,4.6015,4.7404,4.9281,5.2647,5.3897,5.5401,5.7989,5.8319,5.8973,6.0627,6.0781,6.1127,6.1897,6.3474,6.4359,6.4359,6.5282,6.582,6.5897,6.5897,6.5897,6.5897,6.5897,6.5897,6.5897,6.5897,6.5897,6.5897,6.5897,6.5897,6.5897,6.5923,6.5933,0.0,6.5933,6.6029,6.6185,6.608,6.6102,6.6283,6.7172,6.7519,6.7635,6.8535,6.8791,6.8664,6.8664,6.7687,6.6493,6.6334,6.6316,6.6299,6.6225,6.6205,6.6185,6.6123,6.6681,6.747,6.8126,6.8219,6.8205,6.8282,6.8385,6.8497,6.8598,6.9308,6.9855,6.9702,7.0411,7.0965,7.081,7.0887,7.0925,7.0898,7.0898,7.0898,7.0898,7.0898,7.0898,7.0898,7.0898,7.0914,7.0889,7.0965,7.0652,6.9833,6.9982,6.9711,6.8935,6.8946,6.8995,6.8995,6.8917,6.8451,6.7674,6.7674,6.7247,5.3682,5.4818,5.5703,5.5703,5.4891,5.3097,4.929,4.7371,4.5281,4.1414,4.0024,3.9737,4.0479,4.0632,4.1546,4.4417,4.6001,4.7724,5.0183,5.2273,5.4303,5.6422,5.762,5.8973,6.0627,6.0781,6.1358,6.2704,6.3935,6.482,6.5359,6.5705,6.5897,6.5897,6.5897,6.5897,6.5897,6.5897,6.5897,6.5897,6.5897,6.5897,6.5897,6.5897,6.5897,6.5897,6.5897,6.5923,0.0,6.5923,6.6242,6.6761,6.6761,6.7155,6.7686,6.8101,6.8258,6.8297,6.8723,6.884,6.88,6.88,6.8355,6.7813,6.7774,6.7755,6.7735,6.7647,6.7625,6.7602,6.7509,6.773,6.8077,6.8373,6.8424,6.8552,6.909,6.922,6.94,6.99,7.0298,7.0491,7.0478,7.0748,7.0952,7.0898,7.0898,7.0898,7.0898,7.0898,7.0898,7.0898,7.0898,7.0898,7.0898,7.0898,7.0898,7.0925,7.0979,7.0876,7.0628,7.0699,7.0655,7.0486,7.0019,6.98,6.9811,6.9344,6.8917,6.8567,6.8567,6.8412,5.3605,5.4895,5.5703,5.5703,5.4331,5.2072,4.8677,4.6546,4.4246,4.0479,3.93,3.9109,3.9622,3.9716,4.0532,4.2974,4.4615,4.6397,4.859,5.0779,5.2886,5.4925,5.6491,5.8073,5.985,6.0911,6.2127,6.3589,6.4474,6.5243,6.5859,6.5897,6.5897,6.5897,6.5897,6.5897,6.5897,6.5897,6.5897,6.5897,6.5897,6.5897,6.5897,6.5897,6.5897,6.5897,6.5897,6.5897,0.0,6.6167,6.659,6.7154,6.7499,6.7986,6.8588,6.8922,6.9043,6.9082,6.9375,6.9452,6.9408,6.9408,6.9385,6.9363,6.9363,6.9038,6.8651,6.8574,6.8525,6.8602,6.8732,6.8783,6.8859,6.909,6.9129,6.9321,6.9937,7.0052,7.0206,7.0783,7.0898,7.0898,7.0898,7.0898,7.0898,7.0898,7.0898,7.0898,7.0898,7.0898,7.0898,7.0898,7.0898,7.0898,7.0898,7.0898,7.0898,7.0898,7.0898,7.0952,7.103,7.1081,7.1201,7.1435,7.0893,7.0619,7.0665,7.0121,6.9694,6.9461,6.9461,6.9344,5.2741,5.4434,5.5703,5.5703,5.4331,5.2072,4.8677,4.6546,4.4093,3.9718,3.8861,3.888,3.8801,3.8819,3.9596,4.2033,4.317,4.4924,4.8414,4.9619,5.1116,5.3798,5.4855,5.6091,5.7939,6.1247,6.3628,6.4512,6.5397,6.5897,6.5897,6.5897,6.5897,6.5897,6.5897,6.5897,6.5897,6.5897,6.5897,6.5897,6.5897,6.5897,6.5897,6.5897,6.5897,6.5897,6.5897,6.5897,0.0,6.6744,6.709,6.7167,6.8052,6.8398,6.8539,6.9437,6.9794,6.9934,7.0938,7.1186,7.1067,7.1067,7.0966,7.086,7.086,6.981,6.8574,6.8424,6.8398,6.859,6.9475,6.9706,6.9898,7.0667,7.086,7.0898,7.0898,7.0898,7.0898,7.0898,7.0898,7.0898,7.0898,7.0898,7.0898,7.0898,7.0898,7.0898,7.0898,7.0898,7.0898,7.0898,7.0898,7.0898,7.0898,7.0898,7.0898,7.0898,7.0898,7.0898,7.0898,7.103,7.1154,7.1291,7.1396,7.1511,7.1598,7.1559,7.1131,7.0277,7.0277,6.9849,4.9942,5.0785,5.1053,5.0521,4.9439,4.7996,4.5801,4.4381,4.281,4.0291,3.9319,3.9071,3.9523,3.9161,3.9785,4.2791,4.3512,4.4673,4.7492,4.9758,5.1863,5.3861,5.7057,5.9533,6.0734,6.2334,6.3666,6.4551,6.5397,6.5897,6.5897,6.5897,6.5897,6.5897,6.5897,6.5897,6.5897,6.5897,6.5897,6.5897,6.5897,6.5897,6.5897,6.5897,6.5897,6.5936,6.6474,6.6705,6.6782,6.7628,6.8359,6.8898,6.9167,6.9629,7.0129,7.0452,7.0555,7.0593,7.0915,7.1005,7.0952,7.0952,7.0925,7.0898,7.0898,7.0541,7.0144,7.009,7.0129,7.0167,7.0437,7.0514,7.0591,7.0821,7.0898,7.0898,7.0898,7.0898,7.0898,7.0898,7.0898,7.0898,7.0898,7.0898,7.0898,7.0898,7.0898,7.0898,7.0898,7.0898,7.0898,7.0898,7.0898,7.0898,7.0898,7.0898,7.0898,7.0898,7.0898,7.0898,7.0898,7.0952,7.103,7.1154,7.1291,7.1435,7.155,7.1564,7.1442,7.117,7.117,7.1054,4.7444,4.84,4.8558,4.8022,4.6882,4.5633,4.4363,4.3079,4.1701,4.0063,3.9318,3.9052,3.9467,3.9163,3.9675,4.2322,4.3042,4.4241,4.7074,4.9262,5.1558,5.4243,5.7656,6.0364,6.1887,6.2796,6.382,6.5013,6.559,6.5897,6.5897,6.5897,6.5897,6.5897,6.5897,6.5897,6.5897,6.5897,6.5897,6.5897,6.5897,6.5897,6.5897,6.5897,6.5897,6.5936,6.6744,6.709,0.0,6.8398,6.9206,6.9744,7.0014,7.0475,7.0898,7.0898,7.0898,7.0898,7.0898,7.0898,7.0898,7.0898,7.0898,7.0898,7.0898,7.0898,7.0898,7.0898,7.0898,7.0898,7.0898,7.0898,7.0898,7.0898,7.0898,7.0898,7.0898,7.0898,7.0898,7.0898,7.0898,7.0898,7.0898,7.0898,7.0898,7.0898,7.0898,7.0898,7.0898,7.0898,7.0898,7.0898,7.0898,7.0898,7.0898,7.0898,7.0898,7.0898,7.0898,7.0898,7.0898,7.0898,7.0952,7.1106,7.1178,7.1313,7.1494,7.1547,7.1598,7.1598,7.1598,7.1598,0.0,4.6835,4.7489,4.7291,4.6037,4.4636,4.3902,4.2446,0.0,3.9413,3.9088,3.9051,3.8994,3.8976,3.9527,4.1184,4.2155,4.3855,4.731,4.8767,5.095,5.5008,5.7161,5.9268,6.1761,6.2784,6.4012,6.5782,6.5897,6.5897,6.5897,6.5897,6.5897,6.5897,6.5897,6.5897,6.5897,6.5897,6.5897,6.5897,6.5897,6.5897,6.5897,6.5897,6.5936,6.6013,6.6821,6.7244,6.7398,6.909,6.9783,6.986,7.0591,7.0898,7.0898,7.0898,7.0898,7.0898,7.0898,7.0898,7.0898,7.0898,7.0898,7.0898,7.0898,7.0898,7.0898,7.0898,7.0898,7.0898,7.0898,7.0898,7.0898,7.0898,7.0898,7.0898,7.0898,7.0898,7.0898,7.0898,7.0898,7.0898,7.0898,7.0898,7.0898,7.0898,7.0898,7.0898,7.0898,7.0898,7.0898,7.0898,7.0898,7.0898,7.0898,7.0898,7.0898,7.0898,7.0898,7.0898,7.0898,7.0898,7.0952,7.1081,7.1106,7.1224,7.1494,7.1547,7.1598,7.1598,7.1598,7.1598,4.1055,0.0,4.2692,4.2003,4.1998,4.1998,0.0,4.1226,4.1111,4.0177,3.9929,4.0081,4.0611,4.0172,4.068,4.3573,4.4194,4.5556,4.9023,5.2676,5.5552,5.7161,5.901,6.0863,6.2643,6.313,6.4012,6.5782,6.5897,6.5897,6.5897,6.5897,6.5897,6.5897,6.5897,6.5897,6.5897,6.5897,6.5897,6.5897,6.5897,6.5897,6.5897,6.5897,6.6244,6.6859,6.7705,6.8475,6.9167,7.0206,7.0629,7.0629,7.0821,7.0898,7.0898,7.0898,7.0898,7.0898,7.0898,7.0898,7.0898,7.0898,7.0898,7.0898,7.0898,7.0898,7.0898,7.0898,7.0898,7.0898,7.0898,7.0898,7.0898,7.0898,7.0898,7.0898,7.0898,7.0898,7.0898,7.0898,7.0898,7.0898,7.0898,7.0898,7.0898,7.0898,7.0898,7.0898,7.0898,7.0898,7.0898,7.0898,7.0898,7.0898,7.0898,7.0898,7.0898,7.0898,7.0898,7.0898,7.0898,7.0898,7.0925,7.0952,7.1056,7.1224,7.1494,7.1513,7.1568,7.1598,7.1598,7.1598,3.9757,4.0667,4.1261,4.0718,4.0924,4.1195,4.0784,4.0786,4.0635,3.9871,3.9986,4.0234,4.0155,4.1109,4.2269,4.3535,4.5513,4.8067,5.1446,5.5008,5.7621,5.8489,5.983,6.1338,6.3028,6.3271,6.4012,6.5782,6.5897,6.5897,6.5897,6.5897,6.5897,6.5897,6.5897,6.5897,6.5897,6.5897,6.5897,6.5897,6.5897,6.5897,6.5897,6.5897,6.632,6.7128,6.8013,6.8898,6.9744,7.0552,7.0898,7.0898,7.0898,7.0898,7.0898,7.0898,7.0898,7.0898,7.0898,7.0898,7.0898,7.0898,7.0898,7.0898,7.0898,7.0898,7.0898,7.0898,7.0898,7.0898,7.0898,7.0898,7.0898,7.0898,7.0898,7.0898,7.0898,7.0898,7.0898,7.0898,7.0898,7.0898,7.0898,7.0898,7.0898,7.0898,7.0898,7.0898,7.0898,7.0898,7.0898,7.0898,7.0898,7.0898,7.0898,7.0898,7.0898,7.0898,7.0898,7.0898,7.0898,7.0898,7.0898,7.0898,7.103,7.1178,7.1291,7.1435,7.1513,7.1529,7.1581,7.1598,4.0214,4.1244,4.1914,4.119,4.1168,4.1271,4.1161,4.0652,4.0005,3.9337,3.9757,4.0177,3.9852,4.2028,4.3767,4.343,4.6892,5.068,5.3847,5.6371,5.8221,5.9179,6.0227,6.1467,6.3117,6.3411,6.4166,6.5782,6.5897,6.5897,6.5897,6.5897,6.5897,6.5897,6.5897,6.5897,6.5897,6.5897,6.5897,6.5897,6.5897,6.5897,6.5897,6.6013,6.6513,6.7359,6.8205,0.0,6.9937,7.0629,7.0898,7.0898,7.0898,7.0898,7.0898,7.0898,7.0898,7.0898,7.0898,7.0898,7.0898,7.0898,7.0898,7.0898,7.0898,7.0898,7.0898,7.0898,7.0898,7.0898,7.0898,7.0898,7.0898,7.0898,7.0898,7.0898,7.0898,7.0898,7.0898,7.0898,7.0898,7.0898,7.0898,7.0898,7.0898,7.0898,7.0898,7.0898,7.0898,7.0898,7.0898,7.0898,7.0898,7.0898,7.0898,7.0898,7.0898,7.0898,7.0898,7.0898,7.0898,7.0898,7.0898,7.0898,7.1005,7.1081,7.1106,7.1373,7.1475,7.1494,7.1564,7.1598,4.1683,4.352,4.4135,4.0971,4.0756,4.1119,4.0499,4.0233,4.0118,4.0101,4.012,4.0995,4.3805,4.3454,4.39,4.7324,4.9778,5.2188,5.4886,5.6975,5.8496,5.9229,6.08,6.2194,6.3053,6.3899,6.482,6.582,6.5897,6.5897,6.5897,6.5897,6.5897,6.5897,6.5897,6.5897,6.5897,6.5897,6.5897,6.5897,6.5897,6.5897,6.5897,6.659,6.7398,6.8244,0.0,6.9975,7.0744,7.086,7.0898,7.0898,7.0898,7.0898,7.0898,7.0898,7.0898,7.0898,7.0898,7.0898,7.0898,7.0898,7.0898,7.0898,7.0898,7.0898,7.0898,7.0898,7.0898,7.0898,7.0898,7.0898,7.0898,7.0898,7.0898,7.0898,7.0898,7.0898,7.0898,7.0898,7.0898,7.0898,7.0898,7.0898,7.0898,7.0898,7.0898,7.0898,7.0898,7.0898,7.0898,7.0898,7.0898,7.0898,7.0898,7.0898,7.0898,7.0898,7.0898,7.0898,7.0898,7.0898,7.0898,7.0898,7.0925,7.0979,7.1106,7.1247,7.1415,7.1494,7.1564,7.1598,4.1113,4.2355,4.3233,4.2372,4.3878,4.5485,4.5145,4.4707,4.398,4.2565,4.2601,4.3288,4.4378,4.5426,4.7532,5.1852,5.28,5.3872,5.6482,5.7555,5.8527,5.9856,6.1134,6.226,6.3105,6.4064,6.4974,6.582,6.5897,6.5897,6.5897,6.5897,6.5897,6.5897,6.5897,6.5897,6.5897,6.5897,6.5897,6.5897,6.5897,6.5897,6.5936,6.6744,6.759,6.8475,0.0,7.0167,7.0898,7.0898,7.0898,7.0898,7.0898,7.0898,7.0898,7.0898,7.0898,7.0898,7.0898,7.0898,7.0898,7.0898,7.0898,7.0898,7.0898,7.0898,7.0898,7.0898,7.0898,7.0898,7.0898,7.0898,7.0898,7.0898,7.0898,7.0898,7.0898,7.0898,7.0898,7.0898,7.0898,7.0898,7.0898,7.0898,7.0898,7.0898,7.0898,7.0898,7.0898,7.0898,7.0898,7.0898,7.0898,7.0898,7.0898,7.0898,7.0898,7.0898,7.0898,7.0898,7.0898,7.0898,7.0898,7.0898,7.0898,7.0925,7.1005,7.113,7.1247,7.1376,7.1513,7.1547,4.0768,4.155,4.2693,4.4192,4.5969,4.7635,4.8673,4.7966,4.6664,4.5225,4.5434,4.5795,4.5545,4.7996,5.1146,5.4463,5.4695,5.5274,5.7733,5.8119,5.8783,6.0457,6.1557,6.2427,6.3218,6.4282,6.5166,6.5859,6.5897,6.5897,6.5897,6.5897,6.5897,6.5897,6.5897,6.5897,6.5897,6.5897,6.5897,6.5897,6.5897,6.6013,6.6205,6.7013,6.7898,6.8744,6.9629,7.0321,7.0898,7.0898,7.0898,7.0898,7.0898,7.0898,7.0898,7.0898,7.0898,7.0898,7.0898,7.0898,7.0898,7.0898,7.0898,7.0898,7.0898,7.0898,7.0898,7.0898,7.0898,7.0898,7.0898,7.0898,7.0898,7.0898,7.0898,7.0898,7.0898,7.0898,7.0898,7.0898,7.0898,7.0898,7.0898,7.1052,7.1206,7.1206,7.1398,7.1514,7.1514,7.1514,7.1514,7.1514,7.1514,7.1514,7.1514,7.1514,7.1514,7.1514,7.1129,7.0898,7.0898,7.0898,7.0898,7.0898,7.0898,7.0898,7.0898,7.103,7.1154,7.1247,7.1435,7.1532,4.2164,4.3349,4.4547,4.5972,4.4069,4.298,4.7144,4.6125,4.4934,4.7221,4.7639,4.8094,4.9647,5.1362,5.2638,5.2968,5.4364,5.6069,5.8027,5.8912,5.9719,6.0642,6.2219,6.3218,6.3281,6.482,6.582,6.5897,6.5897,6.5897,6.5897,6.5897,6.5897,6.5897,6.5897,6.5897,6.5897,6.5897,6.5897,6.5897,6.5897,6.6282,6.7051,6.7898,6.8783,6.9667,7.0475,7.086,7.0898,7.0898,7.0898,7.0898,7.0898,7.0898,7.0898,7.0898,7.0898,7.0898,7.0898,7.0898,7.0898,7.0898,7.0898,7.0898,7.0898,7.0898,7.0898,7.0898,7.0898,7.0898,7.0898,7.0898,7.0898,7.0898,7.0898,7.0898,7.0898,7.0898,7.0898,7.0898,7.0898,7.0898,7.0898,7.1552,7.2091,7.2091,7.2783,7.3322,7.3322,7.3322,7.3322,7.3322,7.3322,7.3322,7.3322,7.3322,7.3322,7.3322,7.1783,7.0898,7.0898,7.0898,7.0898,7.0898,7.0898,7.0898,7.0898,7.103,7.1106,7.113,7.1394,7.1494,4.1073,4.2698,4.4479,4.5451,4.5099,4.5579,4.9524,5.0023,4.9904,5.0795,5.1009,5.107,5.1117,5.3046,5.4418,5.3828,5.5263,5.6851,5.8127,5.9011,5.9819,6.0704,6.2281,6.332,6.332,6.4897,6.5897,6.5897,6.5897,6.5897,6.5897,6.5897,6.5897,6.5897,6.5897,6.5897,6.5897,6.5897,6.5897,6.5897,6.5897,6.632,6.7128,6.8013,6.8898,6.9744,7.0552,7.0898,7.0898,7.0898,7.0898,7.0898,7.0898,7.0898,7.0898,7.0898,7.0898,7.0898,7.0898,7.0898,7.0898,7.0898,7.0898,7.0898,7.0898,7.0898,7.0898,7.0898,7.0898,7.0898,7.0898,7.0898,7.0898,7.0898,7.0898,7.0898,7.0898,7.0898,7.0898,7.0898,7.1321,7.1706,7.1706,7.2437,7.3014,7.3014,7.3283,7.3514,7.3514,7.3514,7.3514,7.3514,7.3514,7.3514,7.3514,7.3514,7.3514,7.3514,7.236,7.1706,7.1706,7.1206,7.0898,7.0898,7.0898,7.0898,7.0898,7.0952,7.103,7.1106,7.1201,7.1313,4.153,4.2794,4.4518,4.5778,4.6118,4.7133,5.1024,5.206,5.2494,5.3483,5.3545,5.3222,5.2556,5.3974,5.5061,5.4396,5.606,5.7627,5.8204,5.9242,6.0127,6.0742,6.2281,6.332,6.332,6.4897,6.5897,6.5897,6.5897,6.5897,6.5897,6.5897,6.5897,6.5897,6.5897,6.5897,6.5897,6.5897,6.5897,6.5897,6.6167,6.6705,6.7513,6.8129,6.9013,7.0129,7.0667,7.0898,7.0898,7.0898,7.0898,7.0898,7.0898,7.0898,7.0898,7.0898,7.0898,7.0898,7.0898,7.0898,7.0898,7.0898,7.0898,7.0898,7.0898,7.0898,7.0898,7.0898,7.0898,7.0898,7.0898,7.0898,7.0898,7.0898,7.0898,7.0898,7.0898,7.1129,7.1321,7.1321,7.2014,7.2591,7.2591,7.3322,7.3899,7.3899,7.413,7.4284,7.4284,7.4284,7.4284,7.4284,7.4284,7.4284,7.4284,7.4284,7.4284,7.4284,7.3476,7.286,7.2629,7.2052,7.1706,7.1706,7.1706,7.1706,7.1706,7.1706,7.1761,7.184,7.1891,7.195,4.4039,4.4116,4.4844,4.7337,4.6682,4.6546,5.0909,5.1092,5.1354,5.4968,5.4962,5.4296,5.4296,5.4296,5.4296,5.4296,5.656,5.8319,5.8319,5.9742,6.0781,6.0819,6.2281,6.332,6.332,6.4897,6.5897,6.5897,6.5897,6.5897,6.5897,6.5897,6.5897,6.5897,6.5897,6.5897,6.5897,6.5897,6.5897,6.5897,6.6705,6.7552,6.8398,6.8398,6.9321,7.0898,7.0898,7.0898,7.0898,7.0898,7.0898,7.0898,7.0898,7.0898,7.0898,7.0898,7.0898,7.0898,7.0898,7.0898,7.0898,7.0898,7.0898,7.0898,7.0898,7.0898,7.0898,7.0898,7.0898,7.0898,7.0898,7.0898,7.0898,7.0898,7.0898,7.0898,7.0898,7.1591,7.2206,7.2206,7.2937,7.3514,7.3514,7.4168,7.4707,7.4707,7.5438,7.6015,7.6015,7.6015,7.6015,7.6015,7.6015,7.6015,7.6015,7.6015,7.6015,7.6015,7.5207,7.4361,7.3553,7.3514,7.3514,7.3514,7.3514,7.3514,7.3514,7.3514,7.3514,7.3514,7.3574,7.3639,4.1457,4.3922,4.6602,4.608,4.8821,5.182,5.2538,5.2461,5.2944,5.522,5.5385,5.4948,5.4373,5.4825,5.5253,5.5163,5.6944,5.8511,5.905,6.0089,6.1012,6.1627,6.2666,6.3551,6.4166,6.5243,6.5897,6.5897,6.5897,6.5897,6.5897,6.5897,6.5897,6.5897,6.5897,6.5897,6.5897,6.5897,6.5897,6.5897,6.6705,6.7552,6.8436,6.9052,6.9898,7.0898,7.0898,7.0898,7.0898,7.0898,7.0898,7.0898,7.0898,7.0898,7.0898,7.0898,7.0898,7.0898,7.0898,7.0898,7.0898,7.0898,7.0898,7.0898,7.0898,7.0898,7.0898,7.0898,7.0898,7.0898,7.0898,7.136,7.1668,7.1052,7.136,7.1822,7.1822,7.2514,7.3129,7.3129,7.3783,7.4361,7.4361,7.5053,7.563,7.563,7.5822,7.6015,7.6015,7.6015,7.6015,7.6015,7.6015,7.6015,7.6015,7.6015,7.6015,7.6015,7.5745,7.5245,7.4399,7.3822,7.3514,7.3514,7.3514,7.3514,7.3514,7.3514,7.3514,7.3514,7.3504,7.3586,4.4325,4.6505,4.8477,4.9149,5.1322,5.3437,5.3942,5.4101,5.443,5.5472,5.566,5.5439,5.4962,5.5583,5.6181,5.6115,5.7582,5.8934,5.9435,6.0242,6.1127,6.1973,6.282,6.3628,6.4512,6.5397,6.5897,6.5897,6.5897,6.5897,6.5897,6.5897,6.5897,6.5897,6.5897,6.5897,6.5897,6.5897,6.6051,6.6397,6.7205,6.809,6.8936,6.9475,7.0129,7.0898,7.0898,7.0898,7.0898,7.0898,7.0898,7.0898,7.0898,7.0898,7.0898,7.0898,7.0898,7.0898,7.0898,7.0898,7.0898,7.0898,7.0898,7.0898,7.0898,7.0898,7.0898,7.0898,7.0898,7.0975,7.1321,7.1822,7.2052,7.1552,7.2091,7.2706,7.2706,7.3399,7.3976,7.3976,7.4668,7.5207,7.5207,7.5668,7.6015,7.6015,7.6015,7.6015,7.6015,7.6015,7.6015,7.6015,7.6015,7.6015,7.6015,7.6015,7.6015,7.6015,7.6015,7.5745,7.5245,7.4745,7.4476,7.4476,7.4476,7.4476,7.4476,7.4476,7.4476,7.4476,7.4476,7.4504,4.9789,5.0227,5.032,5.4353,5.3755,5.279,5.5143,5.5703,5.5703,5.5703,5.5703,5.5703,5.5703,5.6395,5.7011,5.7088,5.8473,5.9511,5.9627,6.0281,6.1127,6.2089,6.2858,6.3666,6.4628,6.5436,6.5897,6.5897,6.5897,6.5897,6.5897,6.5897,6.5897,6.5897,6.5897,6.5897,6.5897,6.5897,6.6282,6.709,6.7975,6.8859,6.9706,6.9783,7.0206,7.0898,7.0898,7.0898,7.0898,7.0898,7.0898,7.0898,7.0898,7.0898,7.0898,7.0898,7.0898,7.0898,7.0898,7.0898,7.0898,7.0898,7.0898,7.0898,7.0898,7.0898,7.0898,7.0898,7.0975,7.1206,7.1975,7.2322,7.2437,7.2437,7.3014,7.363,7.363,7.4245,7.4822,7.4822,7.5476,7.6015,7.6015,7.6015,7.6015,7.6015,7.6015,7.6015,7.6015,7.6015,7.6015,7.6015,7.6015,7.6015,7.6015,7.6015,7.6015,7.6015,7.6015,7.6015,7.6015,7.6015,7.6015,7.6015,7.6015,7.6015,7.6015,7.6015,7.6015,7.6015,7.6015,7.6005,4.5333,4.8362,5.1459,5.2384,5.3755,5.5028,5.5588,5.5703,5.5703,5.5703,5.5703,5.5703,5.5703,5.6395,5.7203,5.7896,5.8858,5.9742,6.0435,6.0666,6.1358,6.2858,6.3205,6.3897,6.5474,6.5782,6.5897,6.5897,6.5897,6.5897,6.5897,6.5897,6.5897,6.5897,6.5897,6.5897,6.5897,6.5897,6.6282,6.709,6.7975,6.8859,6.9706,7.036,7.0744,7.0898,7.0898,7.0898,7.0898,7.0898,7.0898,7.0898,7.0898,7.0898,7.0898,7.0898,7.0898,7.0898,7.0898,7.0898,7.0898,7.0898,7.0898,7.0898,7.0898,7.0898,7.0898,7.0898,7.1398,7.1937,7.2129,7.3168,7.4168,7.4168,7.4322,7.4437,7.4437,7.513,7.5707,7.5707,7.5861,7.6015,7.6015,7.6015,7.6015,7.6015,7.6015,7.6015,7.6015,7.6015,7.6015,7.6015,7.6015,7.6015,7.6015,7.6015,7.6015,7.6015,7.6015,7.6015,7.6015,7.6015,7.6015,7.6015,7.6015,7.6015,7.6015,7.6015,7.6015,7.6015,7.6015,7.6015,4.616,4.9034,5.1513,5.3234,5.4682,5.5703,5.5703,5.5703,5.5703,5.5703,5.5703,5.5818,5.6242,5.7011,5.7896,5.8742,5.9588,6.0281,6.0742,6.0781,6.1435,6.3089,6.332,6.3974,6.5743,6.5897,6.5897,6.5897,6.5897,6.5897,6.5897,6.5897,6.5897,6.5897,6.5897,6.5897,6.5897,6.5897,6.6513,6.7744,6.8167,6.9052,7.0283,7.0706,7.0898,7.0898,7.0898,7.0898,7.0898,7.0898,7.0898,7.0898,7.0898,7.0898,7.0898,7.0898,7.0898,7.0898,7.0898,7.0898,7.0898,7.0898,7.0898,7.0898,7.0898,7.0898,7.0975,7.1398,7.186,7.236,7.3206,7.4053,7.4822,7.5207,7.5322,7.5322,7.5322,7.5668,7.6015,7.6015,7.6015,7.6015,7.6015,7.6015,7.6015,7.6015,7.6015,7.6015,7.6015,7.6015,7.6015,7.6015,7.6015,7.6015,7.6015,7.6015,7.6015,7.6015,7.6015,7.6015,7.6015,7.6015,7.6015,7.6015,7.6015,7.6015,7.6015,7.6015,7.6015,7.6015,7.6015,7.6015,4.7333,4.9614,5.1223,5.4814,5.5703,5.5703,5.5703,5.5703,5.5703,5.5703,5.5703,5.5972,5.6819,5.7703,5.855,5.9358,6.0242,6.0781,6.0781,6.0935,6.1589,6.3128,6.3435,6.4166,6.5743,6.5897,6.5897,6.5897,6.5897,6.5897,6.5897,6.5897,6.5897,6.5897,6.5897,6.5897,6.5897,6.6051,6.6898,6.8398,6.8706,6.9552,7.0898,7.0898,7.0898,7.0898,7.0898,7.0898,7.0898,7.0898,7.0898,7.0898,7.0898,7.0898,7.0898,7.0898,7.0898,7.0898,7.0898,7.0898,7.0898,7.0898,7.0898,7.0898,7.0898,7.1014,7.1283,7.2014,7.2399,7.2937,7.4361,7.4822,7.513,7.5822,7.6015,7.6015,7.6015,7.6015,7.6015,7.6015,7.6015,7.6015,7.6015,7.6015,7.6015,7.6015,7.6015,7.6015,7.6015,7.6015,7.6015,7.6015,7.6015,7.6015,7.6015,7.6015,7.6015,7.6015,7.6015,7.6015,7.6015,7.6015,7.6015,7.6015,7.6015,7.6015,7.6015,7.6015,7.6015,7.6015,7.6015,7.6015,4.2352,4.647,5.1331,5.4836,5.5703,5.5703,5.5703,5.5703,5.5703,5.5703,5.5703,5.5972,5.6819,5.7703,5.855,5.9358,6.0242,6.0781,6.0781,6.1435,6.2281,6.3205,6.3974,6.482,6.5782,6.5897,6.5897,6.5897,6.5897,6.5897,6.5897,6.5897,6.5897,6.5897,6.5897,6.5897,6.5897,6.659,6.7436,6.8436,6.986,7.0667,7.0898,7.0898,7.0898,7.0898,7.0898,7.0898,7.0898,7.0898,7.0898,7.0898,7.0898,7.0898,7.0898,7.0898,7.0898,7.0898,7.0898,7.0898,7.0898,7.0898,7.0898,7.0898,7.0898,7.1437,7.2052,7.2168,7.3245,7.4437,7.463,7.5245,7.5861,7.5976,7.6015,7.6015,7.6015,7.6015,7.6015,7.6015,7.6015,7.6015,7.6015,7.6015,7.6015,7.6015,7.6015,7.6015,7.6015,7.6015,7.6015,7.6015,7.6015,7.6015,7.6015,7.6015,7.6015,7.6015,7.6015,7.6015,7.6015,7.6015,7.6015,7.6015,7.6015,7.6015,7.6015,7.6015,7.6015,7.6015,7.6015,7.6015,4.3978,4.8081,5.1945,5.4951,5.5703,5.5703,5.5703,5.5703,5.5703,5.5703,5.6088,5.6703,5.755,5.8396,5.9242,6.0089,6.055,6.0781,6.0781,6.155,6.2397,6.3205,6.4089,6.4936,6.582,6.5947,6.5947,6.5897,6.5947,6.5947,6.5947,6.5923,6.5923,6.5947,6.5923,6.6128,6.6551,6.6898,6.7782,6.9129,7.0321,7.0898,7.0898,7.0898,7.0898,7.0898,7.0898,7.0898,7.0898,7.0898,7.0898,7.0898,7.0898,7.0898,7.0898,7.0898,7.0898,7.0898,7.0898,7.0898,7.0898,7.0898,7.0898,7.0898,7.0898,7.1514,7.2283,7.2783,7.3783,7.4822,7.5284,7.5707,7.6015,7.6015,7.6015,7.6015,7.6015,7.6015,7.6015,7.6015,7.6015,7.6015,7.6015,7.6015,7.6015,7.6015,7.6015,7.6015,7.6015,7.6015,7.6015,7.6015,7.6015,7.6015,7.6015,7.6015,7.6015,7.6015,7.6015,7.6015,7.6015,7.6015,7.6015,7.6015,7.6015,7.6015,7.6015,7.6015,7.6015,7.6015,7.6015,7.6015,4.4801,4.7984,5.0308,5.3832,5.4852,5.5143,5.5588,5.5703,5.5703,5.5703,5.6549,5.7511,5.8165,5.8973,5.9781,6.0666,6.0781,6.0781,6.0781,6.1728,6.2651,6.3243,6.4306,6.5191,6.5846,6.5972,6.5996,6.5909,6.5958,6.5982,6.5982,6.5933,6.5972,6.5996,6.5947,6.6307,6.709,6.7552,6.8513,7.0014,7.0591,7.0898,7.0898,7.0898,7.0898,7.0898,7.0898,7.0898,7.0898,7.0898,7.0898,7.0898,7.0898,7.0898,7.0898,7.0898,7.0898,7.0898,7.0898,7.0898,7.0898,7.0898,7.0898,7.0937,7.1168,7.1822,7.2706,7.3553,7.4399,7.5168,7.5822,7.6015,7.6015,7.6015,7.6015,7.6015,7.6015,7.6015,7.6015,7.6015,7.6015,7.6015,7.6015,7.6015,7.6015,7.6015,7.6015,7.6015,7.6015,7.6015,7.6015,7.6015,7.6015,7.6015,7.6015,7.6015,7.6015,7.6015,7.6015,7.6015,7.6015,7.6015,7.6015,7.6015,7.6015,7.6015,7.6015,7.6015,7.6015,7.6015,7.6015,7.6015,4.1531,4.3039,4.451,5.05,5.2576,5.3596,5.5297,5.5703,5.5703,5.5703,5.7049,5.8242,5.828,5.8973,5.9781,6.0666,6.0781,6.0781,6.0781,6.2252,6.3315,6.3281,6.4831,6.5919,6.5996,6.5996,6.5982,6.599,6.599,6.599,6.599,6.599,6.6005,6.5996,6.5996,6.6357,6.709,6.8744,6.9975,7.0821,7.0898,7.0898,7.0898,7.0898,7.0898,7.0898,7.0898,7.0898,7.0898,7.0898,7.0898,7.0898,7.0898,7.0898,7.0898,7.0898,7.0898,7.0898,7.0898,7.0898,7.0898,7.0898,7.0898,7.1052,7.186,7.2745,7.3591,7.4399,7.5245,7.5938,7.5976,7.6015,7.6015,7.6015,7.6015,7.6015,7.6015,7.6015,7.6015,7.6015,7.6015,7.6015,7.6015,7.6015,7.6015,7.6015,7.6015,7.6015,7.6015,7.6015,7.6015,7.6015,7.6015,7.6015,7.6015,7.6015,7.6015,7.6015,7.6015,7.6015,7.6015,7.6015,7.6015,7.6015,7.6015,7.6015,7.6015,7.6015,7.6015,7.6015,7.6015,7.6015,4.0272,4.2217,4.4238,4.7618,5.0363,5.2423,5.3042,5.4507,5.5857,5.6395,5.7473,5.8473,5.8973,5.9742,6.0435,6.0742,6.0781,6.1012,6.155,6.2613,6.3561,6.4099,6.5264,6.602,6.6005,6.6052,6.6074,6.6013,6.6036,6.6058,6.6058,6.6036,6.6013,6.6074,6.6029,6.6637,6.8013,6.9655,7.0591,7.0898,7.0898,7.0898,7.0898,7.0898,7.0898,7.0898,7.0898,7.0898,7.0898,7.0898,7.0898,7.0898,7.0898,7.0898,7.0898,7.0898,7.0898,7.0898,7.0898,7.0898,7.0898,7.0898,7.0898,7.1052,7.1937,7.2822,7.3668,7.4476,7.5322,7.6015,7.6015,7.6015,7.6015,7.6015,7.6015,7.6015,7.6015,7.6015,7.6015,7.6015,7.6015,7.6015,7.6015,7.6015,7.6015,7.6015,7.6015,7.6015,7.6015,7.6015,7.6015,7.6015,7.6015,7.6015,7.6015,7.6015,7.6015,7.6015,7.6015,7.6015,7.6015,7.6015,7.6015,7.6015,7.6015,7.6015,7.6015,7.6015,7.6015,7.6015,7.6015,7.6015,3.8861,4.0708,4.2878,4.5791,4.7843,4.9767,5.2132,5.3541,5.4891,5.6626,5.7703,5.855,5.9358,6.0204,6.0781,6.0781,6.0781,6.1089,6.1973,6.2805,6.3676,6.4609,6.5481,6.6005,6.6036,6.608,6.608,6.608,6.6102,6.6123,6.6123,6.608,6.6196,6.6527,6.6769,6.7547,6.8924,7.0259,7.0925,7.0898,7.0898,7.0898,7.0898,7.0898,7.0898,7.0898,7.0898,7.0898,7.0898,7.0898,7.0898,7.0898,7.0898,7.0898,7.0898,7.0898,7.0898,7.0898,7.0898,7.0898,7.0898,7.0898,7.1091,7.1514,7.236,7.3245,7.4091,7.4899,7.5553,7.6015,7.6015,7.6015,7.6015,7.6015,7.6015,7.6015,7.6015,7.6015,7.6015,7.6015,7.6015,7.6015,7.6015,7.6015,7.6015,7.6015,7.6015,7.6015,7.6015,7.6015,7.6015,7.6015,7.6015,7.6015,7.6015,7.6015,7.6015,7.6015,7.6015,7.6015,7.6015,7.6015,7.6015,7.6015,7.6015,7.6015,7.6015,7.6015,7.6015,7.6015,7.6015,7.6015,0.0,0.0,0.0,4.4874,4.4995,4.5633,5.2449,5.2861,5.2828,5.6258,5.7703,5.8588,5.9396,6.0242,6.0781,6.0781,6.0781,6.1089,6.2012,6.2868,6.3723,6.4609,6.5465,6.6036,6.6102,6.6102,6.6123,6.6185,6.6185,6.6185,6.6185,6.6185,6.659,6.7377,6.8158,6.8998,6.981,7.0619,7.0979,7.0898,7.0898,7.0898,7.0898,7.0898,7.0898,7.0898,7.0898,7.0898,7.0898,7.0898,7.0898,7.0898,7.0898,7.0898,7.0898,7.0898,7.0898,7.0898,7.0898,7.0898,7.0898,7.0898,7.1475,7.236,7.3245,7.4053,7.4899,7.5745,7.6015,7.6015,7.6015,7.6015,7.6015,7.6015,7.6015,7.6015,7.6015,7.6015,7.6015,7.6015,7.6015,7.6015,7.6015,7.6015,7.6015,7.6015,7.6015,7.6015,7.6015,7.6015,7.6015,7.6015,7.6015,7.6015,7.6015,7.6015,7.6015,7.6015,7.6015,7.6015,7.6015,7.6015,7.6015,7.6015,7.6015,7.6015,7.6015,7.6015,7.6015,7.6015,7.6015,7.6015,3.7485,0.0,0.0,0.0,0.0,0.0,4.6189,4.9822,5.3305,5.5516,5.7697,5.9435,6.0281,6.0627,6.0781,6.0781,6.0781,6.132,6.2781,6.3166,6.3907,6.5465,6.5836,6.6058,6.6144,6.6165,6.6165,6.6185,6.6185,6.6185,6.6185,6.6185,6.6611,6.7441,6.822,6.8998,6.9847,7.0555,7.0925,7.0898,7.0898,7.0898,7.0898,7.0898,7.0898,7.0898,7.0898,7.0898,7.0898,7.0898,7.0898,7.0898,7.0898,7.0898,7.0898,7.0898,7.0898,7.0898,7.0898,7.0898,7.0898,7.0898,7.1475,7.236,7.3245,7.4053,7.4899,7.5745,7.6015,7.6015,7.6015,7.6015,7.6015,7.6015,7.6015,7.6015,7.6015,7.6015,7.6015,7.6015,7.6015,7.6015,7.6015,7.6015,7.6015,7.6015,7.6015,7.6015,7.6015,7.6015,7.6015,7.6015,7.6015,7.6015,7.6015,7.6015,7.6015,7.6015,7.6015,7.6015,7.6015,7.6015,7.6015,7.6015,7.6015,7.6015,7.6015,7.6015,7.6015,7.6015,7.6015,7.6015,3.8167,3.8319,3.8812,3.9342,0.0,0.0,4.5709,4.9051,5.2379,5.5999,5.8197,5.9781,6.0627,6.0781,6.0781,6.0781,6.0781,6.1281,6.2627,6.3089,6.3869,6.5296,6.582,6.6058,6.6165,6.6185,6.6185,6.6185,6.6185,6.6185,6.6185,6.6185,6.6766,6.8003,6.842,6.92,7.0411,7.0774,7.0925,7.0898,7.0898,7.0898,7.0898,7.0898,7.0898,7.0898,7.0898,7.0898,7.0898,7.0898,7.0898,7.0898,7.0898,7.0898,7.0898,7.0898,7.0898,7.0898,7.0898,7.0898,7.0975,7.1321,7.2014,7.2899,7.3745,7.4591,7.5361,7.5861,7.6015,7.6015,7.6015,7.6015,7.6015,7.6015,7.6015,7.6015,7.6015,7.6015,7.6015,7.6015,7.6015,7.6015,7.6015,7.6015,7.6015,7.6015,7.6015,7.6015,7.6015,7.6015,7.6015,7.6015,7.6015,7.6015,7.6015,7.6015,7.6015,7.6015,7.6015,7.6015,7.6015,7.6015,7.6015,7.6015,7.6015,7.6015,7.6015,7.6015,7.6015,7.6015,7.6015,7.6015,3.9364,3.9039,3.9456,4.1616,4.0593,0.0,4.7602,4.9121,5.0604,5.5999,5.8004,5.9027,5.9796,5.9988,6.0027,5.995,6.0258,6.0896,6.1935,6.2704,6.3561,6.464,6.5434,6.5942,6.6165,6.6165,6.6185,6.6185,6.6185,6.6185,6.6185,6.6301,6.7114,6.8717,6.8828,6.9571,7.1042,7.103,7.0952,7.0898,7.0898,7.0898,7.0898,7.0898,7.0898,7.0898,7.0898,7.0898,7.0898,7.0898,7.0898,7.0898,7.0898,7.0898,7.0898,7.0898,7.0898,7.0898,7.0898,7.0898,7.1052,7.1898,7.2783,7.3668,7.4476,7.5322,7.6015,7.6015,7.6015,7.6015,7.6015,7.6015,7.6015,7.6015,7.6015,7.6015,7.6015,7.6015,7.6015,7.6015,7.6015,7.6015,7.6015,7.6015,7.6015,7.6015,7.6015,7.6015,7.6015,7.6015,7.6015,7.6015,7.6015,7.6015,7.6015,7.6015,7.6015,7.6015,7.6015,7.6015,7.6015,7.6015,7.6015,7.6015,7.6015,7.6015,7.6015,7.6015,7.6015,7.6015,7.6015,7.6015,4.2117,4.12,4.0669,4.0442,4.1048,0.0,4.1873,4.5559,4.9082,4.9587,5.2088,5.4226,5.4417,5.4953,5.5222,5.4532,5.6789,5.9456,6.1781,6.2243,6.2921,6.4556,6.491,6.5302,6.5958,6.608,6.6123,6.6123,6.6165,6.6185,6.6185,6.6882,6.7712,6.8712,6.934,7.0078,7.103,7.0952,7.0925,7.0898,7.0898,7.0898,7.0898,7.0898,7.0898,7.0898,7.0898,7.0898,7.0898,7.0898,7.0898,7.0898,7.0898,7.0898,7.0898,7.0898,7.0898,7.0898,7.0898,7.0898,7.1052,7.1898,7.2783,7.3668,7.4476,7.5322,7.6015,7.6015,7.6015,7.6015,7.6015,7.6015,7.6015,7.6015,7.6015,7.6015,7.6015,7.6015,7.6015,7.6015,7.6015,7.6015,7.6015,7.6015,7.6015,7.6015,7.6015,7.6015,7.6015,7.6015,7.6015,7.6015,7.6015,7.6015,7.6015,7.6015,7.6015,7.6015,7.6015,7.6015,7.6015,7.6015,7.6015,7.6015,7.6015,7.6015,7.6015,7.6015,7.6015,7.6015,7.6015,7.6015,4.305,4.2109,4.1806,4.1806,4.1806,0.0,0.0,4.5445,4.7609,4.9754,5.0994,5.192,5.2738,5.2853,5.2853,5.2891,5.5437,5.7618,5.804,6.0426,6.2574,6.3916,6.4479,6.5103,6.5936,6.6058,6.6102,6.6144,6.6165,6.6185,6.6185,6.7036,6.7866,6.869,6.9471,7.0271,7.1005,7.0925,7.0898,7.0898,7.0898,7.0925,7.0952,7.0925,7.0925,7.0952,7.0925,7.0898,7.0898,7.0898,7.0898,7.0898,7.0898,7.0898,7.0898,7.0898,7.0898,7.0898,7.0898,7.0898,7.1129,7.2437,7.3129,7.3745,7.4976,7.5668,7.6015,7.6015,7.6015,7.6015,7.6015,7.6015,7.6015,7.6015,7.6015,7.6015,7.6015,7.6015,7.6015,7.6015,7.6015,7.6015,7.6015,7.6015,7.6015,7.6015,7.6015,7.6015,7.6015,7.6015,7.6015,7.6015,7.6015,7.6015,7.6015,7.6015,7.6015,7.6015,7.6015,7.6015,7.6015,7.6015,7.6015,7.6015,7.6015,7.6015,7.6015,7.6015,7.6015,7.6015,7.6015,7.6015,4.4151,4.3512,4.3663,4.3891,4.3284,4.3346,0.0,0.0,0.0,5.0236,5.0168,4.9748,5.11,5.0756,5.0512,5.1023,5.3475,5.4709,5.3097,5.7196,6.0719,6.1728,6.3392,6.4648,6.5172,6.5126,6.5385,6.6126,6.5585,6.5469,6.6147,6.7036,6.7845,6.8668,6.9471,7.0246,7.0979,7.0952,7.0925,7.0898,7.0925,7.0952,7.0979,7.0925,7.0925,7.0979,7.0925,7.0898,7.0898,7.0898,7.0898,7.0898,7.0898,7.0898,7.0898,7.0898,7.0898,7.0898,7.0898,7.1014,7.1398,7.3014,7.3707,7.4245,7.5592,7.6015,7.6015,7.6015,7.6015,7.6015,7.6015,7.6015,7.6015,7.6015,7.6015,7.6015,7.6015,7.6015,7.6015,7.6015,7.6015,7.6015,7.6015,7.6015,7.6015,7.6015,7.6015,7.6015,7.6015,7.6015,7.6015,7.6015,7.6015,7.6015,7.6015,7.6015,7.6015,7.6015,7.6015,7.6015,7.6015,7.6015,7.6015,7.6015,7.6015,7.6015,7.6015,7.6015,7.6015,7.6015,7.6015,7.6015,4.7808,4.7378,4.7453,4.5293,4.6316,4.6999,4.3725,0.0,4.5835,4.4924,0.0,4.5569,4.5759,0.0,0.0,4.4849,4.7577,4.9463,4.8486,5.1582,5.4546,5.6116,6.058,6.3253,6.2452,6.1781,6.2728,6.587,6.3299,6.2934,6.6031,6.7036,6.7845,6.8598,6.9447,7.0221,7.0925,7.0952,7.0952,7.0898,7.0952,7.0952,7.0898,7.0898,7.0898,7.0898,7.0898,7.0898,7.0898,7.0898,7.0898,7.0898,7.0898,7.0898,7.0898,7.0898,7.0898,7.0898,7.0898,7.1398,7.2206,7.3168,7.4514,7.5745,7.5938,7.6015,7.6015,7.6015,7.6015,7.6015,7.6015,7.6015,7.6015,7.6015,7.6015,7.6015,7.6015,7.6015,7.6015,7.6015,7.6015,7.6015,7.6015,7.6015,7.6015,7.6015,7.6015,7.6015,7.6015,7.6015,7.6015,7.6015,7.6015,7.6015,7.6015,7.6015,7.6015,7.6015,7.6015,7.6015,7.6015,7.6015,7.6015,7.6015,7.6015,7.6015,7.6015,7.6015,7.6015,7.6015,7.6015,7.6015,4.8125,4.8466,4.9036,4.6898,4.7238,4.75,4.5128,4.4308,4.4194,4.499,0.0,0.0,0.0,0.0,0.0,0.0,4.6197,4.7462,4.5603,4.9258,5.2762,5.4459,5.6611,5.888,6.1041,6.2814,6.447,6.6028,6.4788,6.4616,6.6108,6.7036,6.7823,6.8598,6.9447,7.0221,7.0898,7.0979,7.0979,7.0952,7.0979,7.1005,7.1005,7.0925,7.0925,7.0952,7.0925,7.0898,7.0898,7.0898,7.0898,7.0898,7.0898,7.0898,7.0898,7.0898,7.0898,7.0975,7.1475,7.1898,7.2399,7.3745,7.5014,7.6015,7.6015,7.6015,7.6015,7.6015,7.6015,7.6015,7.6015,7.6015,7.6015,7.6015,7.6015,7.6015,7.6015,7.6015,7.6015,7.6015,7.6015,7.6015,7.6015,7.6015,7.6015,7.6015,7.6015,7.6015,7.6015,7.6015,7.6015,7.6015,7.6015,7.6015,7.6015,7.6015,7.6015,7.6015,7.6015,7.6015,7.6015,7.6015,7.6015,7.6015,7.6015,7.6015,7.6015,7.6015,7.6015,7.6015,7.6015,7.6015,4.9493,5.0038,5.0607,4.8061,4.768,4.76,4.6177,4.4611,4.3966,4.5824,4.4914,0.0,0.0,0.0,4.3512,4.3663,0.0,4.5703,4.3346,4.6534,4.9701,5.1381,5.2818,5.5298,5.9296,6.1982,6.3923,6.5002,6.4844,6.5136,6.6147,6.6804,6.7592,6.8559,6.9215,7.0015,7.0925,7.1005,7.103,7.103,7.103,7.1056,7.1081,7.0952,7.0925,7.0979,7.0925,7.0898,7.0898,7.0898,7.0898,7.0898,7.0898,7.0898,7.0898,7.0898,7.0898,7.1014,7.1898,7.2514,7.3129,7.4591,7.5476,7.6015,7.6015,7.6015,7.6015,7.6015,7.6015,7.6015,7.6015,7.6015,7.6015,7.6015,7.6015,7.6015,7.6015,7.6015,7.6015,7.6015,7.6015,7.6015,7.6015,7.6015,7.6015,7.6015,7.6015,7.6015,7.6015,7.6015,7.6015,7.6015,7.6015,7.6015,7.6015,7.6015,7.6015,7.6015,7.6015,7.6015,7.6015,7.6015,7.6015,7.6015,7.6015,7.6015,7.6015,7.6015,7.6015,7.6015,7.6015,7.6015,5.3541,5.3188,5.2831,4.8479,4.8048,4.801,4.552,4.552,4.6089,4.6165,4.6733,4.7264,4.7302,4.662,4.5558,4.3966,4.3777,0.0,0.0,4.2109,4.3346,4.5014,4.9683,5.3824,5.6573,5.6918,5.8472,6.2073,6.1533,6.2562,6.6031,6.6224,6.6973,6.8559,6.8636,6.9398,7.0966,7.1056,7.1106,7.1106,7.1106,7.1056,7.1005,7.0925,7.0898,7.0898,7.0898,7.0898,7.0898,7.0898,7.0898,7.0898,7.0898,7.0898,7.0898,7.0898,7.0898,7.1014,7.1898,7.3245,7.4784,7.5668,7.5976,7.6015,7.6015,7.6015,7.6015,7.6015,7.6015,7.6015,7.6015,7.6015,7.6015,7.6015,7.6015,7.6015,7.6015,7.6015,7.6015,7.6015,7.6015,7.6015,7.6015,7.6015,7.6015,7.6015,7.6015,7.6015,7.6015,7.6015,7.6015,7.6015,7.6015,7.6015,7.6015,7.6015,7.6015,7.6015,7.6015,7.6015,7.6015,7.6015,7.6015,7.6015,7.6015,7.6015,7.6015,7.6015,7.6015,7.6015,7.6015,7.6015,0.0,0.0,5.5785,5.1242,5.0846,5.055,4.6619,4.5975,4.6203,4.6203,4.6847,4.7378,4.7378,4.6733,4.5824,4.4687,4.4042,4.3095,0.0,4.1427,4.1844,4.2375,4.76,5.1276,5.1622,5.6851,6.0527,6.1345,6.3196,6.4861,6.6147,6.6185,6.6935,6.8559,6.8598,6.9359,7.0925,7.1056,7.1106,7.1106,7.1106,7.1081,7.1056,7.0952,7.0898,7.0898,7.0898,7.0898,7.0898,7.0898,7.0898,7.0898,7.0898,7.0898,7.0898,7.0898,7.1283,7.1975,7.336,7.4591,7.563,7.5899,7.6015,7.6015,7.6015,7.6015,7.6015,7.6015,7.6015,7.6015,7.6015,7.6015,7.6015,7.6015,7.6015,7.6015,7.6015,7.6015,7.6015,7.6015,7.6015,7.6015,7.6015,7.6015,7.6015,7.6015,7.6015,7.6015,7.6015,7.6015,7.6015,7.6015,7.6015,7.6015,7.6015,7.6015,7.6015,7.6015,7.6015,7.6015,7.6015,7.6015,7.6015,7.6015,7.6015,7.6015,7.6015,7.6015,7.6015,7.6015,7.6015,7.6015,5.6681,5.7401,0.0,5.3483,5.297,0.0,4.8514,4.7846,4.8074,4.8074,4.8213,4.8681,5.0038,4.853,4.6834,4.6022,4.4659,4.3019,0.0,4.0745,4.0745,4.0745,4.527,4.8662,4.9404,5.4518,5.8788,6.1186,6.2827,6.4436,6.6108,6.6185,6.6956,6.8583,6.8598,6.9384,7.0966,7.1081,7.1106,7.113,7.1106,7.1081,7.1056,7.0952,7.0898,7.0898,7.0898,7.0898,7.0898,7.0898,7.0898,7.0898,7.0898,7.1091,7.136,7.136,7.2091,7.3245,7.4322,7.5284,7.6015,7.6015,7.6015,7.6015,7.6015,7.6015,7.6015,7.6015,7.6015,7.6015,7.6015,7.6015,7.6015,7.6015,7.6015,7.6015,7.6015,7.6015,7.6015,7.6015,7.6015,7.6015,7.6015,7.6015,7.6015,7.6015,7.6015,7.6015,7.6015,7.6015,7.6015,7.6015,7.6015,7.6015,7.6015,7.6015,7.6015,7.6015,7.6015,7.6015,7.6015,7.6015,7.6015,7.6015,7.6015,7.6015,7.6015,7.6015,7.6015,7.6015,7.6015,7.6015]},{"header":{"parameterUnit":"m.s-1","parameterCategory":1,"la1":30.6,"la2":29.2853,"lo1":-89.7004,"lo2":-87.6739,"dy":0.0162,"dx":0.0183,"nx":112,"ny":82,"refTime":"2023-11-13T18:00:00:Z","depth":0,"parameterNumber":3,"parameterNumberName":"V-component_of_WINDS"},"data":[0.0,0.0,0.0,0.0,0.0,0.0,0.0,0.0,0.0,0.0,0.0,0.0,0.0,0.0,0.0,0.0,0.0,0.0,0.0,0.0,0.0,0.0,0.0,0.0,0.0,0.0,0.0,0.0,0.0,0.0,0.0,0.0,0.0,0.0,0.0,0.0,0.0,0.0,0.0,0.0,0.0,0.0,0.0,0.0,0.0,0.0,0.0,0.0,0.0,0.0,0.0,0.0,0.0,0.0,0.0,0.0,0.0,0.0,0.0,0.0,0.0,0.0,0.0,0.0,0.0,0.0,0.0,0.0,0.0,0.0,0.0,0.0,0.0,0.0,0.0,0.0,0.0,0.0,0.0,0.0,0.0,0.0,0.0,0.0,0.0,0.0,0.0,0.0,0.0,0.0,0.0301,0.0,0.0,-0.0449,-0.1458,-0.1683,-0.1624,-0.1289,0.0,0.0,0.0,0.0,0.0,0.0,0.0,0.0,0.0,0.0,0.0,0.0,0.0,0.0,0.0,0.0,0.0,0.0,0.0,0.0,0.0,0.0,0.0,0.0,0.0,0.0,0.0,0.0,0.0,0.0,0.0,0.0,0.0,0.0,0.0,0.0,0.0,0.0,0.0,0.0,0.0,0.0,0.0,0.0,0.0,0.0,0.0,0.0,0.0,0.0,0.0,0.0,0.0,0.0,0.0,0.0,0.0,0.0,0.0,0.0,0.0,0.0,0.0,0.0,0.0,0.0,0.0,0.0,0.0,0.0,0.0,0.0,0.0,0.0,0.0,0.0,0.0,0.0,0.0,0.0,0.0,0.0,0.0,0.0,0.0,0.0,0.0,0.0,0.0,0.0,0.0,0.0,0.0,0.0,0.0,0.0,0.0,0.0,0.0,0.0,0.0,0.0,0.0,0.0,0.1828,0.0218,0.0,-0.0112,-0.0224,-0.1234,-0.0979,0.0809,0.0,0.0,0.0,0.0,0.0,0.0,0.0,0.0,0.0,0.0,0.0,0.0,0.0,0.0,0.0,0.0,0.0,0.0,0.0,0.0,0.0,0.0,0.0,0.0,0.0,0.0,0.0,0.0,0.0,0.0,0.0,0.0,0.0,0.0,0.0,0.0,0.0,0.0,0.0,0.0,0.0,0.0,0.0,0.0,0.0,0.0,0.0,0.0,0.0,0.0,0.0,0.0,0.0,0.0,0.0,0.0,0.0,0.0,0.0,0.0,0.0,0.0,0.0,0.0,0.0,0.0,0.0,0.0,0.0,0.0,0.0,0.0,0.0,0.0,0.0,0.0,0.0,0.0,0.0,0.0,0.0,0.0,0.0,0.0,0.0,0.0,0.0,0.0,0.0,0.0,0.0,0.0,0.0,0.0,0.0,0.0,0.0,0.0,0.0,0.0,0.0,0.0,0.0,0.1777,0.1573,0.0114,0.0,0.0,0.0,-0.1127,-0.0759,0.18,0.1163,0.0,0.0,0.0,0.0,0.0,0.0,0.0,0.0,0.0,0.0,0.0,0.0,0.0,0.0,0.0,0.0,0.0,0.0,0.0,0.0,0.0,0.0,0.0,0.0,0.0,0.0,0.0,0.0,0.0,0.0,0.0,0.0,0.0,0.0,0.0,0.0,0.0,0.0,0.0,0.0,0.0,0.0,0.0,0.0,0.0,0.0,0.0,0.0,0.0,0.0,0.0,0.0,0.0,0.0,0.0,0.0,0.0,0.0,0.0,0.0,0.0,0.0,0.0,0.0,0.0,0.0,0.0,0.0,0.0,0.0,0.0,0.0,0.0,0.0,0.0,0.0,0.0,0.0,0.0,0.0,0.0,0.0,0.0,0.0,0.0,0.0,0.0,0.0,0.0,0.0,0.0,0.0,0.0,0.0,0.0,0.0,0.0,0.0,0.0,0.0,0.0,0.0,0.1279,0.077,0.0117,0.0,0.0,0.0,-0.0798,-0.0326,0.209,0.2419,0.0,0.0,0.0,0.0,0.0,0.0,0.0,0.0,0.0,0.0,0.0,0.0,0.0,0.0,0.0,0.0,0.0,0.0,0.0,0.0,0.0,0.0,0.0,0.0,0.0,0.0,0.0,0.0,0.0,0.0,0.0,0.0,0.0,0.0,0.0,0.0,0.0,0.0,0.0,0.0,0.0,0.0,0.0,0.0,0.0,0.0,0.0,0.0,0.0,0.0,0.0,0.0,0.0,0.0,0.0,0.0,0.0,0.0,0.0,0.0,0.0,0.0,0.0,0.0,0.0,0.0,0.0,0.0,0.0,0.0,0.0,0.0,0.0,0.0,0.0,0.0,0.0,0.0,0.0,0.0,0.0,0.0,0.0,0.0,0.0,0.0,0.0,0.0,0.0,0.0,0.0,0.0,0.0,0.0,0.0,0.0,0.0,0.0,0.0,0.0,0.0,0.0,0.0669,0.0117,0.0,0.0,0.0,0.0,-0.0116,0.0332,0.1318,0.2047,0.0,0.0,0.0,0.0,0.0,0.0,0.0,0.0,0.0,0.0,0.0,0.0,0.0,0.0,0.0,0.0,0.0,0.0,0.0,0.0,0.0,0.0,0.0,0.0,0.0,0.0,0.0,0.0,0.0,0.0,0.0,0.0,0.0,0.0,0.0,0.0,0.0,0.0,0.0,0.0,0.0,0.0,0.0,0.0,0.0,0.0,0.0,0.0,0.0,0.0,0.0,0.0,0.0,0.0,0.0,0.0,0.0,0.0,0.0,0.0,0.0,0.0,0.0,0.0,0.0,0.0,0.0,0.0,0.0,0.0,0.0,0.0,0.0,0.0,0.0,0.0,0.0,0.0,0.0,0.0,0.0,0.0,0.0,0.0,0.0,0.0,0.0,0.0,0.0,0.0,0.0,0.0,0.0,0.0,0.0,0.0,0.0,0.0,0.0,0.0,0.0,0.0,0.1117,0.0705,0.0121,0.0,0.0,0.0,0.0,0.0335,0.12,0.0,0.0,0.0,0.0,0.0,0.0,0.0,0.0,0.0,0.0,0.0,0.0,0.0,0.0,0.0,0.0,0.0,0.0,0.0,0.0,0.0,0.0,0.0,0.0,0.0,0.0,0.0,0.0,0.0,0.0,0.0,0.0,0.0,0.0,0.0,0.0,0.0,0.0,0.0,0.0,0.0,0.0,0.0,0.0,0.0,0.0,0.0,0.0,0.0,0.0,0.0,0.0,0.0,0.0,0.0,0.0,0.0,0.0,0.0,0.0,0.0,0.0,0.0,0.0,0.0,0.0,0.0,0.0,0.0,0.0,0.0,0.0,0.0,0.0,0.0,0.0,0.0,0.0,0.0,0.0,0.0,0.0,0.0,0.0,0.0,0.0,0.0,0.0,0.0,0.0,0.0,0.0,0.0,0.0,0.0,0.0,0.0,0.0,0.0,0.0,0.0,0.0,0.1477,0.1131,0.0715,0.0123,0.0,0.0,0.0,0.0,0.034,0.1309,0.0,0.0,0.0,0.0,0.0,0.0,0.0,0.0,0.0,0.0,0.0,0.0,0.0,0.0,0.0,0.0,0.0,0.0,0.0,0.0,0.0,0.0,0.0,0.0,0.0,0.0,0.0,0.0,0.0,0.0,0.0,0.0,0.0,0.0,0.0,0.0,0.0,0.0,0.0,0.0,0.0,0.0,0.0,0.0,0.0,0.0,0.0,0.0,0.0,0.0,0.0,0.0,0.0,0.0,0.0,0.0,0.0,0.0,0.0,0.0,0.0,0.0,0.0,0.0,0.0,0.0,0.0,0.0,0.0,0.0,0.0,0.0,0.0,0.0,0.0,0.0,0.0,0.0,0.0,0.0,0.0,0.0,0.0,0.0,0.0,0.0,0.0,0.0,0.0,0.0,0.0,0.0,0.0,0.0,0.0,0.0,0.0,0.0,0.0,0.0,0.0,0.0,0.1484,0.0582,-0.0,-0.0,-0.0,-0.0,-0.0,-0.0,0.0347,0.0,0.0,0.0,0.0,0.0,0.0,0.0,0.0,0.0,0.0,0.0,0.0,0.0,0.0,0.0,0.0,0.0,0.0,0.0,0.0,0.0,0.0,0.0,0.0,0.0,0.0,0.0,0.0,0.0,0.0,0.0,0.0,0.0,0.0,0.0,0.0,0.0,0.0,0.0,0.0,0.0,0.0,0.0,0.0,0.0,0.0,0.0,0.0,0.0,0.0,0.0,0.0,0.0,0.0,0.0,0.0,0.0,0.0,0.0,0.0,0.0,0.0,0.0,0.0,0.0,0.0,0.0,0.0,0.0,0.0,0.0,0.0,0.0,0.0,0.0,0.0,0.0,0.0,0.0,0.0,0.0,0.0,0.0,0.0,0.0,0.0,0.0,0.0,0.0,0.0,0.0,0.0,0.0,0.0,0.0,0.0,0.0,0.0,0.0,0.0,0.0,0.0,0.0,0.0848,-0.0582,-0.1235,-0.0741,-0.0741,-0.0741,-0.0741,-0.0246,0.0352,0.1149,0.0,0.0,0.0,0.0,0.0,0.0,0.0,0.0,0.0,0.0,0.0,0.0,0.0,0.0,0.0,0.0,0.0,0.0,0.0,0.0,0.0,0.0,0.0,0.0,0.0,0.0,0.0,0.0,0.0,0.0,0.0,0.0,0.0,0.0,0.0,0.0,0.0,0.0,0.0,0.0,0.0,0.0,0.0,0.0,0.0,0.0,0.0,0.0,0.0,0.0,0.0,0.0,0.0,0.0,0.0,0.0,0.0,0.0,0.0,0.0,0.0,0.0,0.0,0.0,0.0,0.0,0.0,0.0,0.0,0.0,0.0,0.0,0.0,0.0,0.0,0.0,0.0,0.0,0.0,0.0,0.0,0.0,0.0,0.0,0.0,0.0,0.0,0.0,0.0,0.0,0.0,0.0,0.0,0.0,0.0,0.0,0.0,0.0,0.0,0.0,0.0,0.0,0.0848,-0.0815,-0.1853,-0.1482,-0.1358,-0.1358,-0.1358,-0.0988,-0.0477,0.0218,0.0,0.0,0.0,0.0,0.0,0.0,0.0,0.0,0.0,0.0,0.0,0.0,0.0,0.0,0.0,0.0,0.0,0.0,0.0,0.0,0.0,0.0,0.0,0.0,0.0,0.0,0.0,0.0,0.0,0.0,0.0,0.0,0.0,0.0,0.0,0.0,0.0,0.0,0.0,0.0,0.0,0.0,0.0,0.0,0.0,0.0,0.0,0.0,0.0,0.0,0.0,0.0,0.0,0.0,0.0,0.0,0.0,0.0,0.0,0.0,0.0,0.0,0.0,0.0,0.0,0.0,0.0,0.0,0.0,0.0,0.0,0.0,0.0,0.0,0.0,0.0,0.0,0.0,0.0,0.0,0.0,0.0,0.0,0.0,0.0,0.0,0.0,0.0,0.0,0.0,0.0,0.0,0.0,0.0,0.0,0.0,0.0,0.0,0.0,0.0,0.0,0.0,0.1272,-0.0582,-0.1977,-0.1977,-0.1977,-0.1977,-0.1977,-0.1977,-0.1695,-0.1038,0.0,0.0,0.0,0.0,0.0,0.0,0.0,0.0,0.0,0.0,0.0,0.0,0.0,0.0,0.0,0.0,0.0,0.0,0.0,0.0,0.0,0.0,0.0,0.0,0.0,0.0,0.0,0.0,0.0,0.0,0.0,0.0,0.0,0.0,0.0,0.0,0.0,0.0,0.0,0.0,0.0,0.0,0.0,0.0,0.0,0.0,0.0,0.0,0.0,0.0,0.0,0.0,0.0,0.0,0.0,0.0,0.0,0.0,0.0,0.0,0.0735,0.1529,0.0,0.0,0.0,0.0,0.0,0.0,0.0,0.0,0.0,0.0,0.0,0.0,0.0,0.0,0.0,0.0,0.0,0.0,0.0,0.0,0.0,0.0,0.0,0.0,0.0,0.0,0.0,0.0,0.0,0.0,0.0,0.0,0.0,0.0,0.0,0.0,0.0,0.0,0.0,0.0,0.0531,-0.0932,-0.1853,-0.1482,-0.173,-0.1977,-0.1977,-0.1606,-0.1332,-0.0923,-0.0447,0.0,0.0,0.0,0.0,0.0,0.0,0.0,0.0,0.0,0.0,0.0,0.0,0.0,0.0,0.0,0.0,0.0,0.0,0.0,0.0,0.0,0.0,0.0,0.0,0.0,0.0,0.0,0.0,0.0,0.0,0.0,0.0,0.0,0.0,0.0,0.0,0.0,0.0,0.0,0.0,0.0,0.0,0.0,0.0,0.0,0.0,0.0,0.0,0.0,0.0,0.0,0.0,0.0,0.0,0.0,0.0,0.0,0.0,0.0,0.0199,0.0669,0.0,0.0,0.0,0.0,0.0,0.0,0.0,0.0,0.0,0.0,0.0,0.0,0.0,0.0,0.0,0.0,0.0,0.0,0.0,0.0,0.0,0.0,0.0,0.0,0.0,0.0,0.0,0.0,0.0,0.0,0.0,0.0,0.0,0.0,0.0,0.0,0.0,0.0,0.0,0.0,-0.0212,-0.1048,-0.1606,-0.1606,-0.1853,-0.1977,-0.1977,-0.173,-0.159,-0.1432,-0.1032,0.0,0.0,0.0,0.0,0.0,0.0,0.0,0.0,0.0,0.0,0.0,0.0,0.0,0.0,0.0,0.0,0.0,0.0,0.0,0.0,0.0,0.0,0.0,0.0,0.0,0.0,0.0,0.0,0.0,0.0,0.0,0.0,0.0,0.0,0.0,0.0,0.0,0.0,0.0,0.0,0.0,0.0,0.0,0.0,0.0,0.0,0.0,0.0,0.0,0.0,0.0,0.0,0.0,0.0525,-0.0,0.0,0.0213,-0.0108,-0.1005,-0.0108,-0.0109,-0.0666,0.0713,0.0,0.0,0.0,0.0,0.0,0.0,0.0,0.0,0.0,0.0,0.0,0.0,0.0,0.0,0.0,0.0,0.0,0.0,0.0,0.0,0.0,0.0,0.0,0.0,-0.1018,-0.0915,-0.0426,0.0,0.0,0.0,0.0,0.0,0.0,0.0,0.0,0.0,0.0,0.0,-0.0753,-0.1171,-0.1606,-0.1977,-0.1977,-0.1977,-0.1977,-0.1977,-0.1977,-0.1977,-0.1529,-0.125,0.0,0.0,0.0,0.0,0.0,0.0,0.0,0.0,0.0,0.0,0.0,0.0,0.0,0.0,0.0,0.0,0.0,0.0,0.0,0.0,0.0,0.0,0.0,0.0,0.0,0.0,0.0,0.0,0.0,0.0,0.0,0.0,-0.0167,-0.0171,0.0,0.0,0.0,0.0,0.0,0.0,0.0,0.0,0.0,0.0,0.0,0.0,0.0,0.12,0.0613,-0.043,-0.0663,-0.0332,-0.1143,-0.1635,-0.154,-0.0473,-0.0597,-0.1824,-0.0484,0.0,-0.0768,-0.0549,0.0,0.0,0.0,0.0,0.0,0.0,0.0,0.0,0.0,0.0,0.0,0.0,0.0,0.0,0.0,0.0,0.0,0.0,0.0,0.0,0.0,0.0,-0.0967,-0.1698,-0.1828,-0.1831,0.0,-0.1004,-0.0207,-0.0205,-0.0202,0.0,0.0,0.0,0.0,0.0,0.0,0.0,-0.0791,-0.1435,-0.1977,-0.1977,-0.1977,-0.1977,-0.1977,-0.1977,-0.1977,-0.1977,-0.1962,-0.1677,-0.1148,-0.1121,0.0,0.0,0.0,0.0,0.0,0.0,0.0,0.0,0.0,0.0,0.0,0.0,0.0,0.0,0.0,0.0,0.0,0.0,0.0,0.0,0.0,0.0,0.0,0.0,0.0,0.0,0.0,0.0,0.0,0.0247,0.0173,0.0176,0.0432,0.0674,0.0,0.0,0.0,0.0,0.0,0.0,0.0,0.0,0.0,0.2218,0.224,0.2605,0.3228,0.1493,0.105,0.1868,0.0836,0.0242,0.0366,0.0854,0.0857,0.0246,0.0863,0.0967,0.0701,-0.0344,-0.0443,0.0106,0.0,0.0,0.0,0.0,0.1744,0.1845,0.2494,0.2087,0.152,0.256,0.0,0.0,0.0,0.0,0.0,0.0,0.0,0.0,0.0,0.0,-0.0837,-0.1719,-0.1977,-0.1977,-0.1977,-0.1665,-0.1139,0.0,-0.0539,-0.0103,0.0382,0.029,0.0,0.0,0.0,-0.0779,-0.0916,-0.156,-0.1977,-0.1977,-0.1977,-0.1977,-0.1977,-0.1977,-0.1977,-0.1977,-0.1977,-0.1837,-0.1559,-0.1275,-0.0884,0.0,0.0,0.0,0.0,0.0,0.0,0.0,0.0,0.0,0.0,0.0,0.0,0.0,0.0,0.0,0.0,0.0,0.0,0.0,0.0,0.0,0.0,0.0,0.0,0.0,0.0,0.0,0.0,0.0259,0.0181,0.037,0.0555,0.0818,0.0,0.0,0.0,0.0,0.0,0.0,0.226,0.2379,0.2666,0.2945,0.3077,0.358,0.4611,0.2881,0.242,0.327,0.2448,0.197,0.197,0.2339,0.2339,0.197,0.2339,0.2339,0.1842,0.0475,-0.0233,-0.0346,0.0444,0.087,0.1082,0.1327,0.1438,0.1545,0.2224,0.1775,0.1168,0.23,0.2836,0.2783,0.0955,0.0,0.0,0.0,0.0,0.044,-0.0463,-0.0703,-0.0946,-0.1838,-0.1977,-0.1977,-0.1977,-0.1847,-0.1703,0.0,-0.0919,-0.0551,0.0,-0.0208,0.0,0.0,-0.0543,-0.1156,-0.1287,-0.1693,-0.1977,-0.1977,-0.1977,-0.1977,-0.1977,-0.1977,-0.1977,-0.1977,-0.1977,-0.1977,-0.1977,-0.1553,-0.1274,-0.1129,0.0,0.0,0.0,0.0,0.0,0.0,0.0,0.0,0.0,0.0,0.0,0.0,0.0,0.0,0.0,0.0,0.0,0.0,0.0,0.0,0.0,0.0,0.0,0.0,0.0,0.0,0.0,0.0,0.0,-0.01,0.0401,0.0,0.0,0.0,0.0,0.3399,0.2347,0.2517,0.4341,0.4529,0.4302,0.3866,0.3809,0.324,0.2162,0.2074,0.209,0.209,0.1969,0.197,0.2093,0.3198,0.32,0.2093,0.3321,0.3077,0.1969,0.1842,0.1448,0.0939,0.1523,0.1264,0.0562,0.1277,0.1643,0.1414,0.0487,0.0123,0.0123,0.0121,0.0933,0.1687,0.0455,0.0332,0.0,0.0,0.1718,0.0,-0.1459,-0.197,-0.1971,-0.1975,-0.1977,-0.1977,-0.1977,-0.1465,-0.1213,0.0,-0.1967,-0.1693,-0.115,0.0,-0.1029,-0.1026,-0.1032,-0.1287,-0.1835,-0.1974,-0.1977,-0.1977,-0.1977,-0.1977,-0.1977,-0.1977,-0.1977,-0.1977,-0.1977,-0.1977,-0.1977,-0.1973,-0.1687,-0.115,-0.1127,0.0,0.0,0.0,0.0,0.0,0.0,0.0,0.0,0.0,0.0,0.0,0.0,0.0,0.0,0.0,0.0,0.0,0.0,0.0,0.0,0.0,0.0,0.0,0.0,0.0,0.0,0.0,0.0,0.2017,0.1338,0.0,0.2727,0.2484,0.2847,0.414,0.3526,0.3411,0.407,0.4214,0.4148,0.3872,0.475,0.4889,0.452,0.4545,0.4558,0.4558,0.4558,0.4558,0.4558,0.4926,0.4926,0.4558,0.5049,0.4926,0.4558,0.4558,0.3302,0.1575,0.1817,0.1564,0.1074,0.169,0.2425,0.2794,0.0737,0.0,0.0,0.0,0.0242,0.0359,-0.0842,-0.119,-0.0825,0.012,-0.0,-0.0726,-0.1723,-0.1977,-0.1977,-0.1977,-0.1977,-0.1977,-0.1977,-0.1846,-0.1718,-0.1974,-0.1593,-0.1323,-0.1157,-0.1416,-0.155,-0.1156,-0.1417,-0.1698,-0.1973,-0.1977,-0.1977,-0.1977,-0.1977,-0.1977,-0.1977,-0.1977,-0.1977,-0.1977,-0.1977,-0.1977,-0.1977,-0.1977,-0.1839,-0.1688,-0.1677,-0.1139,0.0,0.0,0.0,0.0,0.0,0.0,0.0,0.0,0.0,0.0,0.0,0.0,0.0,0.0,0.0,0.0,0.0,0.0,0.0,0.0,0.0,0.0,0.0,0.0,0.0,0.1963,0.1959,0.3259,0.2441,0.2371,0.3742,0.3371,0.3594,0.4856,0.4309,0.4059,0.4485,0.4613,0.4632,0.4555,0.5421,0.5916,0.5916,0.5916,0.5916,0.5916,0.5916,0.5916,0.5916,0.5916,0.5916,0.5916,0.5916,0.5916,0.5916,0.5916,0.4926,0.3325,0.3325,0.271,0.2093,0.2956,0.3943,0.4564,0.1971,0.0986,0.0863,-0.0,-0.037,-0.037,-0.037,-0.1111,-0.1853,-0.1482,-0.1358,-0.1482,-0.1853,-0.1977,-0.1977,-0.1977,-0.1977,-0.1977,-0.1977,-0.1977,-0.1979,-0.1989,-0.1597,-0.1329,-0.1419,-0.1694,-0.1711,-0.1065,-0.1581,-0.1866,-0.1493,-0.175,-0.2005,-0.2005,-0.2005,-0.2001,-0.1992,-0.1733,-0.1605,-0.1977,-0.172,-0.1719,-0.1977,-0.1712,-0.1581,-0.1581,-0.1581,-0.1163,-0.0422,0.0,0.0,0.0,0.0,0.0,0.0,0.0,0.0,0.0,0.0,0.0,0.0,0.0,0.0,0.0,0.0,0.0,0.0,0.0,0.0,0.0,0.0,0.0,0.3361,0.2944,0.2909,0.3535,0.3642,0.3969,0.4505,0.4119,0.4381,0.5658,0.4701,0.4609,0.579,0.5916,0.5916,0.5916,0.5916,0.5916,0.5916,0.5916,0.5916,0.5921,0.5921,0.5921,0.5925,0.5925,0.5925,0.5925,0.5925,0.5925,0.5925,0.5925,0.5925,0.5925,0.5925,0.481,0.3574,0.5306,0.6302,0.6548,0.3943,0.2956,0.2587,-0.0123,-0.0986,-0.0493,0.2096,0.0617,-0.1977,-0.1974,-0.1975,-0.1977,-0.1977,-0.1977,-0.1978,-0.1978,-0.1978,-0.1979,-0.1979,-0.1979,-0.1988,-0.2015,-0.1997,-0.1979,-0.1979,-0.1979,-0.1731,-0.0741,-0.1375,0.0,-0.0631,-0.1406,-0.2064,-0.2063,-0.2063,-0.205,-0.202,-0.112,-0.0987,-0.1978,-0.1095,-0.1094,-0.1975,-0.12,-0.0708,-0.0708,-0.0707,-0.092,-0.1204,0.0,0.0,0.0,0.0,0.0,0.0,0.0,0.0,0.0,0.0,0.0,0.0,0.0,0.0,0.0,0.0,0.0,0.0,0.0,0.0,0.0,0.4024,0.4295,0.4099,0.3871,0.4129,0.5139,0.4586,0.4555,0.5743,0.4746,0.4457,0.575,0.5513,0.5521,0.5916,0.5916,0.5916,0.5916,0.5916,0.5916,0.5916,0.5916,0.5949,0.6014,0.6014,0.6047,0.6108,0.6108,0.6108,0.6108,0.6108,0.6108,0.6108,0.6108,0.6108,0.6096,0.597,0.5548,0.5298,0.6039,0.6412,0.6416,0.4315,0.3081,0.2096,0.1357,-0.0123,-0.1605,-0.0864,-0.1235,-0.1977,-0.1975,-0.1977,-0.1977,-0.1977,-0.1992,-0.2007,-0.2007,-0.2023,-0.2039,-0.2039,-0.2039,-0.2042,-0.205,-0.2045,-0.2039,-0.2039,-0.2039,-0.2039,-0.1656,-0.1918,0.0,-0.1666,-0.193,-0.1799,-0.1016,-0.0888,-0.0887,-0.0883,-0.0628,-0.1003,-0.1881,-0.1749,-0.1739,-0.1977,-0.1715,-0.1585,-0.1585,-0.1061,-0.0914,0.0,0.0,0.0,0.0,0.0,0.0,0.0,0.0,0.0,0.0,0.0,0.0,0.0,0.0,0.0,0.0,0.0,0.0,0.0,0.0,0.0,0.0,0.5128,0.5533,0.5263,0.5205,0.5442,0.6143,0.576,0.5598,0.6492,0.569,0.549,0.6035,0.6162,0.6039,0.5916,0.5916,0.5916,0.5916,0.5916,0.5937,0.5974,0.5974,0.6019,0.6104,0.6104,0.6133,0.6182,0.6182,0.6182,0.6182,0.6182,0.6182,0.6182,0.6182,0.6182,0.0,0.0,0.0,0.0,0.0,0.6402,0.6281,0.5272,0.4392,0.364,0.3141,0.1884,0.0628,0.0628,0.0251,-0.0126,0.0377,0.0251,-0.0251,-0.0251,-0.0253,-0.0254,-0.0254,-0.0256,-0.0258,-0.0258,-0.0258,-0.0258,-0.026,-0.026,0.0,-0.0393,-0.13,-0.1935,-0.1547,-0.1816,-0.1691,-0.078,-0.0915,-0.0785,0.0518,0.0,-0.0,0.0642,0.0383,0.0,0.0,0.0,0.0125,-0.0489,-0.1094,0.0,0.0,0.0,-0.1048,-0.152,0.0,0.0,0.0,-0.0761,-0.054,0.0,0.0,0.0,0.0,0.0,0.0,0.0,0.0,0.0,0.0,0.0,0.0,0.0,0.0,0.0,0.0,0.5994,0.6715,0.6715,0.6725,0.673,0.672,0.6812,0.688,0.676,0.6846,0.6653,0.6403,0.6403,0.6162,0.5916,0.5916,0.0,0.0,0.0,0.5978,0.6068,0.6068,0.6112,0.6194,0.6194,0.6202,0.621,0.621,0.621,0.621,0.621,0.621,0.621,0.621,0.621,0.621,0.619,0.6182,0.6182,0.6182,0.6182,0.6182,0.605,0.0,0.0,0.4377,0.3991,0.3991,0.3991,0.3089,0.2446,0.3603,0.3089,0.2189,0.2189,0.2191,0.2194,0.2194,0.2197,0.22,0.22,0.22,0.2207,0.2236,0.2242,0.2119,0.2143,-0.0132,-0.1555,-0.0648,-0.1442,-0.1321,0.0792,0.0267,0.0269,0.1607,0.0,0.0,0.1713,0.143,0.142,0.1936,0.2929,0.2872,0.158,0.012,-0.0594,-0.0594,-0.0711,-0.1202,-0.1977,-0.1977,-0.1977,-0.1973,-0.1004,-0.0767,0.0,0.0,0.0,0.0,0.0,0.0,0.0,0.0,0.0,0.0,0.0,0.0,0.0,0.0,0.0,0.6289,0.6834,0.7184,0.7184,0.7501,0.7527,0.7194,0.7286,0.7235,0.6869,0.6639,0.6403,0.6039,0.6039,0.5916,0.5916,0.5916,0.5949,0.6027,0.6027,0.6068,0.6153,0.6157,0.6202,0.6292,0.0,0.0,0.6402,0.6402,0.6402,0.6402,0.6402,0.6402,0.6402,0.6402,0.6402,0.6386,0.6239,0.6182,0.6182,0.6182,0.6182,0.605,0.5019,0.4634,0.4377,0.296,0.2575,0.2575,0.2575,0.2446,0.0,0.2575,0.2446,0.2189,0.2189,0.2209,0.2228,0.2228,0.2114,0.2131,0.2131,0.2131,0.2132,0.2139,0.2139,0.2142,0.2147,0.0669,-0.04,-0.0133,-0.1338,-0.2012,-0.1608,-0.1613,-0.134,-0.0265,-0.0265,-0.0396,-0.0132,-0.0131,-0.0,0.0393,0.168,0.2302,0.2035,0.0753,-0.0,-0.0,-0.1231,-0.1842,-0.1977,-0.1977,-0.1977,-0.1975,-0.1814,-0.1687,0.0,0.0,0.0,0.0,0.0,0.0,0.0,0.0,0.0,0.0,0.0,0.5856,0.6394,0.0,0.6654,0.6939,0.739,0.7543,0.7543,0.7961,0.7972,0.7669,0.7474,0.751,0.7633,0.7383,0.7138,0.7138,0.7138,0.7138,0.6893,0.6822,0.6625,0.6549,0.6349,0.6289,0.6247,0.6247,0.6296,0.6386,0.6386,0.6411,0.6455,0.6455,0.648,0.6521,0.6521,0.6549,0.6586,0.6541,0.6521,0.6509,0.637,0.6317,0.6317,0.6317,0.6317,0.6317,0.5526,0.5395,0.5263,0.4604,0.4341,0.4341,0.4341,0.4341,0.4341,0.4341,0.4341,0.4341,0.4341,0.4364,0.4389,0.4389,0.4278,0.4297,0.4297,0.4297,0.4297,0.4297,0.4297,0.4297,0.4297,0.309,0.1613,0.0269,-0.1211,-0.1885,-0.1211,-0.0538,0.0402,0.173,0.1862,0.2128,0.2926,0.2926,0.266,0.2127,0.2886,0.2994,0.2213,0.1541,0.1147,0.1147,-0.0251,-0.0999,-0.0999,-0.1612,-0.1977,-0.1977,-0.1977,-0.1977,0.0,0.0,0.0,0.0,0.0,0.0,0.0,0.5686,0.5774,0.6822,0.7027,0.7107,0.7091,0.7421,0.7595,0.7469,0.7812,0.7994,0.7994,0.8244,0.8366,0.8116,0.7872,0.7877,0.8366,0.8116,0.8111,0.8233,0.8255,0.815,0.7905,0.765,0.7345,0.6981,0.6814,0.6645,0.6341,0.6341,0.6382,0.6455,0.6472,0.648,0.648,0.65,0.6545,0.6615,0.6615,0.666,0.6721,0.6647,0.6615,0.6611,0.6537,0.6509,0.65,0.6468,0.6455,0.6455,0.6455,0.6455,0.6455,0.6455,0.6455,0.6455,0.6455,0.6455,0.6455,0.6455,0.6455,0.6455,0.6455,0.6455,0.6455,0.6455,0.6455,0.6455,0.6455,0.6455,0.6455,0.6455,0.6455,0.646,0.6476,0.5262,0.3506,0.1214,-0.0405,-0.0946,0.0271,0.1489,0.2572,0.3792,0.3929,0.447,0.5555,0.5945,0.5531,0.4451,0.4528,0.4229,0.3039,0.2737,0.2586,0.2586,0.1275,0.0507,0.0507,-0.0877,-0.1619,-0.1619,-0.1869,-0.1988,0.6202,0.5942,0.6178,0.6846,0.659,0.6492,0.0,0.7886,0.7626,0.7937,0.8124,0.8262,0.8431,0.8016,0.784,0.8204,0.836,0.8366,0.8366,0.861,0.8854,0.8854,0.8732,0.861,0.8477,0.8355,0.8233,0.7994,0.7851,0.7661,0.7661,0.739,0.7231,0.6931,0.6954,0.6745,0.6439,0.6439,0.6443,0.6455,0.6537,0.6574,0.6578,0.666,0.67,0.6713,0.6713,0.6717,0.6725,0.6717,0.6713,0.6709,0.67,0.6696,0.6676,0.6513,0.6455,0.6455,0.6455,0.6455,0.6455,0.6455,0.6455,0.6455,0.6455,0.6455,0.6455,0.6455,0.6455,0.6455,0.6455,0.6455,0.6455,0.6455,0.6455,0.6455,0.6455,0.6455,0.6455,0.6455,0.6455,0.648,0.6562,0.5335,0.424,0.3964,0.2735,0.1923,0.2086,0.2229,0.2368,0.2647,0.2647,0.2647,0.2786,0.3994,0.4513,0.4376,0.5538,0.6168,0.6034,0.4763,0.4068,0.4068,0.2718,0.1927,0.1927,0.0513,-0.0128,-0.0128,-0.154,-0.2026,0.7648,0.7211,0.7027,0.7642,0.761,0.7723,0.8285,0.8336,0.8433,0.8627,0.8753,0.8722,0.8503,0.8291,0.8187,0.836,0.8372,0.8494,0.861,0.8976,0.9092,0.9092,0.9335,0.9335,0.897,0.8726,0.864,0.8835,0.8895,0.8836,0.8534,0.8403,0.7972,0.7491,0.7158,0.6814,0.6455,0.6455,0.648,0.6533,0.6574,0.6619,0.6672,0.6709,0.6754,0.6803,0.6856,0.688,0.6876,0.6823,0.6798,0.6794,0.6745,0.6725,0.6713,0.6582,0.6533,0.6525,0.6472,0.6455,0.6455,0.6455,0.6455,0.6455,0.6455,0.6455,0.6455,0.6455,0.6455,0.6455,0.6455,0.6455,0.6455,0.6455,0.6455,0.6455,0.6455,0.6496,0.6533,0.6533,0.6578,0.6623,0.6664,0.611,0.5705,0.5887,0.3904,0.2364,0.2377,0.3217,0.4058,0.4759,0.4899,0.4899,0.4899,0.5431,0.5411,0.4577,0.5755,0.6122,0.5301,0.5503,0.5597,0.5597,0.4202,0.339,0.339,0.2069,0.1288,0.1288,-0.0129,-0.0768,0.8404,0.8084,0.787,0.8157,0.8481,0.8633,0.8562,0.868,0.8749,0.8822,0.8916,0.8732,0.8349,0.8366,0.8372,0.8372,0.8488,0.8732,0.8976,0.9214,0.9457,0.9457,0.97,0.97,0.9457,0.9214,0.9277,0.9666,0.9837,0.9797,0.9429,0.9175,0.8853,0.8191,0.7744,0.7383,0.6719,0.6745,0.6796,0.659,0.6639,0.6696,0.6762,0.6786,0.6831,0.6892,0.6962,0.699,0.6986,0.6917,0.6892,0.6884,0.6823,0.6798,0.6786,0.6696,0.6647,0.6619,0.6553,0.6529,0.6525,0.65,0.6492,0.6488,0.646,0.6455,0.6455,0.6455,0.6455,0.6455,0.6455,0.6455,0.646,0.6484,0.6492,0.6496,0.6525,0.6582,0.6627,0.6627,0.668,0.6733,0.6758,0.6762,0.679,0.6876,0.5124,0.3678,0.3678,0.4667,0.5658,0.6657,0.6798,0.6798,0.6798,0.6774,0.6337,0.5344,0.6118,0.621,0.5103,0.599,0.6492,0.6492,0.5468,0.4898,0.4898,0.3537,0.2737,0.2737,0.1302,0.0651,0.7738,0.7839,0.8014,0.8521,0.8927,0.9178,0.898,0.9007,0.8866,0.8289,0.8274,0.836,0.7994,0.8122,0.8372,0.8372,0.8854,0.9214,0.9335,0.9579,0.9822,0.9822,0.9822,0.9822,0.9822,0.9822,0.9883,0.9915,0.9797,0.9813,0.9961,0.9845,0.9516,0.9111,0.8978,0.8584,0.7512,0.7617,0.7265,0.6594,0.6766,0.6847,0.6851,0.6941,0.6982,0.6986,0.699,0.699,0.699,0.6986,0.6986,0.6986,0.6982,0.6982,0.697,0.688,0.6794,0.6721,0.6721,0.6717,0.6705,0.6615,0.6586,0.657,0.648,0.6455,0.6455,0.6455,0.6455,0.6455,0.6455,0.6455,0.6476,0.6566,0.6586,0.6611,0.67,0.6721,0.6721,0.6721,0.6725,0.6754,0.6835,0.6847,0.688,0.697,0.6982,0.6837,0.6837,0.6837,0.6982,0.6982,0.6982,0.6982,0.6982,0.69,0.6847,0.6847,0.677,0.6721,0.6581,0.6635,0.6586,0.6586,0.6496,0.6447,0.6447,0.4967,0.4294,0.416,0.2682,0.201,0.8174,0.83,0.8521,0.8927,0.9232,0.9469,0.9406,0.9526,0.9385,0.9023,0.8751,0.848,0.8119,0.8239,0.8359,0.86,0.9035,0.9335,0.9579,0.97,0.9822,0.9822,0.9822,0.9822,0.9822,0.991,0.9908,0.9803,1.0075,1.0097,0.9852,0.9763,0.9516,0.9117,0.8851,0.8628,0.8298,0.834,0.8433,0.8308,0.7879,0.7657,0.7657,0.7263,0.699,0.699,0.699,0.699,0.699,0.699,0.699,0.699,0.699,0.699,0.6986,0.6954,0.6925,0.6884,0.6766,0.6725,0.6721,0.6692,0.668,0.6676,0.6643,0.6635,0.6635,0.6635,0.6635,0.6635,0.6635,0.6635,0.6643,0.6672,0.668,0.6688,0.6721,0.677,0.6811,0.6811,0.686,0.6909,0.6937,0.6945,0.6954,0.6986,0.699,0.699,0.699,0.699,0.699,0.699,0.699,0.699,0.699,0.6962,0.6945,0.6945,0.686,0.6811,0.6811,0.6725,0.668,0.668,0.659,0.6545,0.6545,0.4996,0.43,0.43,0.188,0.0672,0.8438,0.8635,0.8804,0.9211,0.9462,0.9625,0.9553,0.9513,0.9579,0.9214,0.8865,0.8414,0.8295,0.8295,0.8414,0.8653,0.9359,0.9822,0.9822,1.0065,1.0065,0.9822,0.9822,0.9842,0.9897,1.0039,1.0042,0.9882,1.0277,1.0431,1.0054,1.0054,0.994,0.9722,0.9588,0.9385,0.9245,0.9291,0.9277,0.9188,0.8688,0.8574,0.843,0.7711,0.7421,0.7421,0.7135,0.699,0.699,0.699,0.699,0.699,0.699,0.699,0.699,0.699,0.699,0.6974,0.686,0.6819,0.6815,0.6782,0.677,0.6766,0.6737,0.6725,0.6725,0.6725,0.6725,0.6725,0.6725,0.6725,0.6733,0.6766,0.677,0.6782,0.6815,0.6864,0.7044,0.7187,0.7094,0.699,0.7135,0.7135,0.699,0.699,0.699,0.699,0.699,0.699,0.699,0.699,0.699,0.699,0.699,0.699,0.699,0.699,0.6933,0.69,0.69,0.6819,0.677,0.677,0.6684,0.6639,0.6639,0.5618,0.5185,0.5049,0.2726,0.1635,0.8601,0.873,0.8886,0.9462,0.9612,0.954,0.9431,0.9335,0.9214,0.8958,0.8606,0.8272,0.8254,0.8503,0.8747,0.8628,0.9834,1.0543,0.9943,1.0308,1.055,0.9822,0.9829,0.989,1.0032,1.0195,1.029,1.029,1.0426,1.0568,1.0711,1.0717,1.0792,1.0941,1.0948,1.0613,1.0209,1.0205,1.0048,0.9446,0.9446,0.9302,0.9302,0.8574,0.814,0.7996,0.7421,0.699,0.699,0.699,0.699,0.699,0.699,0.699,0.699,0.699,0.699,0.699,0.699,0.699,0.6974,0.6888,0.686,0.6843,0.6766,0.6741,0.6741,0.6741,0.6741,0.6741,0.6741,0.6741,0.6762,0.6843,0.686,0.6884,0.697,0.699,0.7135,0.7566,0.7276,0.7135,0.7566,0.7276,0.699,0.699,0.6994,0.6994,0.699,0.699,0.699,0.699,0.699,0.699,0.699,0.699,0.699,0.699,0.699,0.699,0.699,0.6909,0.686,0.686,0.6778,0.6733,0.6733,0.6589,0.6585,0.6585,0.5035,0.4195,0.8784,0.9042,0.9273,0.9544,0.9686,0.9774,0.9694,0.97,0.9761,0.9884,0.9367,0.8856,0.8647,0.8778,0.8922,0.8468,0.9341,0.9943,0.9822,0.9943,0.9943,0.9822,0.9924,1.0005,1.0046,1.0283,1.0439,1.0439,1.0575,1.0677,1.0717,1.0717,1.0792,1.0941,1.0948,1.0933,1.1054,1.12,1.1149,1.1038,1.0455,1.0167,1.0167,0.9302,0.8719,0.814,0.7851,0.7566,0.699,0.699,0.699,0.699,0.699,0.699,0.699,0.699,0.699,0.699,0.699,0.699,0.6986,0.6962,0.6954,0.6949,0.6929,0.6921,0.6921,0.6921,0.6921,0.6921,0.6921,0.6921,0.6929,0.6949,0.6954,0.7106,0.7417,0.7421,0.7566,0.786,0.7711,0.7421,0.7135,0.7135,0.699,0.699,0.7047,0.7068,0.6998,0.699,0.699,0.699,0.699,0.699,0.699,0.699,0.699,0.699,0.699,0.699,0.699,0.6966,0.6954,0.6954,0.6868,0.6819,0.6819,0.5764,0.5178,0.5039,0.3636,0.2238,0.9049,0.93,0.9517,0.9666,0.9761,0.9788,0.9891,0.9982,0.9994,1.0062,0.9461,0.8866,0.8779,0.8756,0.8684,0.8732,0.9607,1.0186,0.9822,1.0065,1.0207,0.991,0.9998,1.01,1.0229,1.0392,1.0521,1.0588,1.067,1.0717,1.0717,1.0785,1.0887,1.1036,1.1111,1.1253,1.1491,1.1579,1.1619,1.1619,1.1181,1.1038,1.0894,1.0167,0.959,0.9152,0.843,0.7851,0.7421,0.7135,0.699,0.699,0.699,0.699,0.699,0.699,0.699,0.699,0.699,0.699,0.699,0.699,0.699,0.699,0.699,0.699,0.699,0.699,0.699,0.699,0.699,0.699,0.699,0.7276,0.728,0.7421,0.8,0.8145,0.8145,0.8145,0.8145,0.7856,0.7135,0.7023,0.7194,0.7486,0.7716,0.7756,0.8145,0.7842,0.7842,0.8136,0.8136,0.8136,0.8136,0.7842,0.7677,0.7637,0.7194,0.7031,0.699,0.699,0.699,0.699,0.6937,0.6913,0.6913,0.6144,0.5696,0.5554,0.4129,0.2989,0.9306,0.9496,0.9646,0.9788,0.9822,0.9861,1.0142,1.017,1.0122,0.9939,0.9275,0.8744,0.886,0.8662,0.8568,0.9051,1.0091,1.0499,0.9937,1.0308,1.0487,1.0032,1.0066,1.0188,1.0466,1.0507,1.0575,1.0711,1.0738,1.0751,1.0751,1.0873,1.1023,1.1185,1.1341,1.1484,1.1619,1.1619,1.1619,1.1619,1.1619,1.1619,1.1619,1.0894,1.0599,1.0455,0.9008,0.8285,0.7996,0.7566,0.7135,0.699,0.7135,0.7135,0.699,0.699,0.699,0.699,0.699,0.699,0.699,0.699,0.699,0.699,0.699,0.699,0.699,0.699,0.699,0.699,0.7135,0.7135,0.7135,0.7711,0.7711,0.8,0.8729,0.8874,0.8724,0.8285,0.8444,0.8314,0.7297,0.7231,0.7586,0.8469,0.8561,0.893,0.9833,0.9216,0.891,0.9655,0.9655,0.9655,0.9655,0.906,0.8571,0.8479,0.7734,0.7248,0.7156,0.7007,0.7003,0.699,0.699,0.699,0.699,0.699,0.699,0.699,0.5677,0.4947,0.9334,0.9496,0.9646,0.9788,0.9822,0.9861,0.9909,0.9745,0.9705,0.9808,0.9048,0.86,0.8901,0.8989,0.8948,0.8975,0.9674,1.0244,0.9909,0.9943,0.9998,1.0032,1.0161,1.0304,1.0473,1.0609,1.069,1.0717,1.0839,1.0907,1.0907,1.0934,1.107,1.1341,1.1497,1.1592,1.1619,1.1619,1.1619,1.1619,1.1619,1.1619,1.1619,1.1476,1.1038,1.0455,1.0167,0.0,0.814,0.8724,0.8145,0.699,0.7711,0.7566,0.699,0.699,0.699,0.699,0.699,0.699,0.699,0.699,0.699,0.699,0.699,0.699,0.699,0.699,0.699,0.7135,0.7421,0.7566,0.7711,0.829,0.844,0.8724,0.959,0.9446,0.9013,0.8724,0.8217,0.7984,0.8127,0.8216,0.8581,0.9329,0.958,0.996,1.072,1.0022,0.9505,0.9655,0.9655,0.9655,0.9655,0.9505,0.935,0.903,0.8581,0.809,0.7547,0.7248,0.7068,0.699,0.699,0.699,0.699,0.699,0.699,0.699,0.6696,0.5967,0.9361,0.9544,0.9734,0.9802,0.9822,0.9799,0.9942,0.9861,0.9678,0.9705,0.9044,0.8592,0.8898,0.8975,0.9153,0.9497,0.9921,1.015,1.0158,1.0016,0.991,1.0141,1.0236,1.0365,1.0588,1.0677,1.0717,1.0717,1.086,1.0948,1.0948,1.1097,1.128,1.1504,1.1579,1.1619,1.1619,1.1619,1.1619,1.1619,1.1619,1.1619,1.1619,1.1619,1.1476,1.1038,1.0599,1.0017,0.9296,0.9302,0.8868,0.8145,0.814,0.7851,0.7566,0.7131,0.699,0.699,0.699,0.699,0.699,0.699,0.699,0.699,0.699,0.699,0.7135,0.7421,0.7566,0.7711,0.829,0.8435,0.8579,0.9157,0.9596,1.0047,1.0547,1.0559,1.0438,0.9922,0.9536,0.9276,0.9128,0.9221,0.945,1.0352,1.0462,1.0857,1.1779,1.1409,1.1219,1.1219,1.1219,1.1219,1.1219,1.0762,1.0427,1.0207,0.9602,0.8945,0.809,0.7941,0.7621,0.7133,0.7084,0.706,0.706,0.7011,0.699,0.699,0.699,0.6551,0.9381,0.9598,0.9822,0.9822,0.9822,0.9863,1.0085,0.9976,0.9768,0.9587,0.9076,0.871,0.9013,0.8997,0.9314,1.007,1.0293,1.041,1.0457,1.0158,1.0019,1.0243,1.0283,1.0399,1.069,1.0717,1.0731,1.0765,1.0941,1.1043,1.1043,1.1294,1.1497,1.1613,1.1619,1.1619,1.1619,1.1619,1.1619,1.1619,1.1619,1.1619,1.1619,1.1619,1.1619,1.1619,1.1038,1.0599,1.0455,1.0023,0.959,0.9302,0.8863,0.8574,0.829,0.7588,0.731,0.731,0.7185,0.7194,0.734,0.734,0.7165,0.699,0.7135,0.7276,0.7421,0.814,0.8285,0.8574,0.9302,0.9468,0.9641,1.0099,1.0692,1.1312,1.1417,1.159,1.1475,1.0996,1.0739,1.0607,1.0144,1.0101,1.0491,1.1256,1.1503,1.1727,1.2347,1.2501,1.2501,1.2501,1.2501,1.2501,1.2501,1.1882,1.1522,1.1262,1.0644,0.9824,0.895,0.8644,0.8182,0.7565,0.734,0.7154,0.7154,0.7084,0.7039,0.7019,0.7019,0.7007,0.9381,0.9598,0.9822,0.9822,0.9822,0.9863,0.9866,0.9565,0.9312,0.9477,0.8796,0.8464,0.9319,0.9323,0.9409,1.0096,1.0509,1.07,1.0234,1.0355,1.0393,1.0355,1.0283,1.0399,1.069,1.0717,1.0778,1.0914,1.1192,1.1348,1.1348,1.1511,1.1606,1.1619,1.1619,1.1619,1.1619,1.1619,1.1619,1.1619,1.1619,1.1619,1.1619,1.1619,1.1619,1.1619,1.1476,1.1181,0.0,1.1181,1.0606,0.9302,1.0023,0.9879,0.9168,0.8397,0.8141,0.8155,0.7506,0.7686,0.8431,0.8431,0.7712,0.7135,0.7851,0.7996,0.814,0.9013,0.9157,0.9302,0.9735,0.9966,1.0234,1.1095,1.1722,1.2026,1.204,1.1444,1.1002,1.0865,1.0358,1.0129,1.0884,1.1152,1.1399,1.2326,1.234,1.2347,1.2501,1.2501,1.2501,1.2501,1.2501,1.2501,1.2501,1.2501,1.2185,1.1863,1.1399,1.0874,1.0281,0.9213,0.8559,0.8464,0.7703,0.7252,0.7252,0.7243,0.7194,0.7113,0.7113,0.7068,0.9586,0.9666,0.9822,0.9822,0.9926,0.9961,0.9693,0.953,0.9418,0.9371,0.8782,0.8446,0.9252,0.9287,0.9496,1.0255,1.0515,1.0689,1.0781,1.0516,1.031,1.0457,1.0419,1.0399,1.069,1.0717,1.0819,1.1056,1.1274,1.143,1.1525,1.1586,1.1619,1.1619,1.1619,1.1619,1.1619,1.1619,1.1619,1.1619,1.1619,1.1619,1.1619,1.1619,1.1619,1.1619,1.1619,1.1476,0.0,1.1476,1.1234,1.0723,1.0723,1.0486,1.0116,0.942,0.9138,0.9143,0.8895,0.891,0.921,0.921,0.8999,0.8627,0.8923,0.9071,0.9218,1.011,1.0257,1.0405,1.0995,1.1334,1.1392,1.1749,1.1911,1.2088,1.2182,1.1894,1.1769,1.1854,1.1606,1.1638,1.1952,1.1998,1.2192,1.2501,1.2501,1.2501,1.2501,1.2501,1.2501,1.2501,1.2501,1.2501,1.2501,1.2501,1.2501,1.2347,1.2037,1.1702,1.1029,1.0566,0.9773,0.8655,0.8287,0.7798,0.7337,0.7288,0.7243,0.7207,0.7207,0.719,0.9573,0.968,0.9822,0.9822,0.9947,1.0122,0.9572,0.947,0.9405,0.9252,0.8803,0.8581,0.9147,0.926,0.9544,1.0416,1.0608,1.0712,1.1106,1.0794,1.064,1.0801,1.0725,1.0763,1.0823,1.0877,1.0955,1.1212,1.1369,1.1504,1.1613,1.1619,1.1619,1.1619,1.1619,1.1619,1.1619,1.1619,1.1619,1.1619,1.1619,1.1619,1.1619,1.1619,1.1619,1.1619,1.1619,1.1619,0.0,1.1667,1.1742,1.169,1.1295,1.1224,1.117,1.03,1.0011,1.0016,0.9904,0.9915,1.0218,1.0218,1.037,1.0521,1.0521,1.0318,1.026,1.1014,1.1314,1.1326,1.1965,1.2128,1.2142,1.2182,1.2189,1.2223,1.2332,1.2352,1.2379,1.2481,1.2501,1.2501,1.2501,1.2501,1.2501,1.2501,1.2501,1.2501,1.2501,1.2501,1.2501,1.2501,1.2501,1.2501,1.2501,1.2501,1.2501,1.2501,1.2501,1.2192,1.1727,1.1417,1.0641,0.9246,0.8862,0.8202,0.7427,0.737,0.7325,0.7301,0.7301,0.7288,0.93,0.9598,0.9822,0.9822,0.9947,1.0122,0.9572,0.947,0.9372,0.9078,0.8793,0.8709,0.9226,0.932,0.9597,1.048,1.0764,1.0993,1.1177,1.1341,1.1449,1.1435,1.1535,1.1539,1.1262,1.1213,1.1219,1.1375,1.1531,1.1619,1.1619,1.1619,1.1619,1.1619,1.1619,1.1619,1.1619,1.1619,1.1619,1.1619,1.1619,1.1619,1.1619,1.1619,1.1619,1.1619,1.1619,1.1619,0.0,1.1769,1.183,1.1843,1.1999,1.206,1.1931,1.1308,1.1054,1.092,1.0285,1.048,1.1256,1.1256,1.1876,1.2494,1.2494,1.1682,1.1014,1.1911,1.206,1.2094,1.225,1.2291,1.2325,1.2461,1.2494,1.2501,1.2501,1.2501,1.2501,1.2501,1.2501,1.2501,1.2501,1.2501,1.2501,1.2501,1.2501,1.2501,1.2501,1.2501,1.2501,1.2501,1.2501,1.2501,1.2501,1.2501,1.2501,1.2501,1.2501,1.2501,1.2501,1.1727,1.0952,1.0019,0.9241,0.8306,0.7525,0.7521,0.7476,0.7386,0.7386,0.7341,0.9821,0.9987,1.0039,0.9706,0.9946,0.9983,0.9214,0.9332,0.9393,0.9024,0.8717,0.8751,0.9397,0.9402,0.9643,1.0669,1.0849,1.1035,1.1511,1.1259,1.1142,1.1326,1.1091,1.1034,1.0982,1.1131,1.1226,1.1382,1.1531,1.1619,1.1619,1.1619,1.1619,1.1619,1.1619,1.1619,1.1619,1.1619,1.1619,1.1619,1.1619,1.1619,1.1619,1.1619,1.1619,1.1626,1.1721,1.1762,1.1775,1.1925,1.2054,1.2149,1.2196,1.2277,1.2366,1.2106,1.1965,1.1972,1.1708,1.1882,1.2192,1.2192,1.2347,1.2501,1.2501,1.228,1.2053,1.2359,1.2366,1.2372,1.242,1.2433,1.2447,1.2488,1.2501,1.2501,1.2501,1.2501,1.2501,1.2501,1.2501,1.2501,1.2501,1.2501,1.2501,1.2501,1.2501,1.2501,1.2501,1.2501,1.2501,1.2501,1.2501,1.2501,1.2501,1.2501,1.2501,1.2501,1.2501,1.2501,1.2501,1.2192,1.1727,1.0952,1.0019,0.9246,0.831,0.7838,0.7509,0.748,0.748,0.7468,0.976,0.9957,0.9769,0.9661,0.9965,1.0012,0.9227,0.9255,0.934,0.879,0.8537,0.8658,0.9293,0.9222,0.9434,1.0454,1.0632,1.0826,1.141,1.1147,1.1077,1.1406,1.1077,1.1052,1.1191,1.1214,1.1253,1.1463,1.1565,1.1619,1.1619,1.1619,1.1619,1.1619,1.1619,1.1619,1.1619,1.1619,1.1619,1.1619,1.1619,1.1619,1.1619,1.1619,1.1619,1.1626,1.1769,1.183,0.0,1.206,1.2203,1.2298,1.2345,1.2427,1.2501,1.2501,1.2501,1.2501,1.2501,1.2501,1.2501,1.2501,1.2501,1.2501,1.2501,1.2501,1.2501,1.2501,1.2501,1.2501,1.2501,1.2501,1.2501,1.2501,1.2501,1.2501,1.2501,1.2501,1.2501,1.2501,1.2501,1.2501,1.2501,1.2501,1.2501,1.2501,1.2501,1.2501,1.2501,1.2501,1.2501,1.2501,1.2501,1.2501,1.2501,1.2501,1.2501,1.2501,1.2501,1.2501,1.2501,1.2501,1.2192,1.1262,1.0796,0.9864,0.8778,0.7994,0.7525,0.7525,0.7525,0.7525,0.0,0.9422,0.9338,0.9729,0.9996,0.9998,0.9332,0.941,0.0,0.8467,0.8308,0.8479,0.8913,0.8819,0.9035,1.0173,1.0315,1.0428,1.0922,1.1035,1.1295,1.1567,1.137,1.1386,1.1865,1.1495,1.1287,1.1599,1.1619,1.1619,1.1619,1.1619,1.1619,1.1619,1.1619,1.1619,1.1619,1.1619,1.1619,1.1619,1.1619,1.1619,1.1619,1.1619,1.1626,1.164,1.1782,1.1857,1.1884,1.2182,1.2305,1.2318,1.2447,1.2501,1.2501,1.2501,1.2501,1.2501,1.2501,1.2501,1.2501,1.2501,1.2501,1.2501,1.2501,1.2501,1.2501,1.2501,1.2501,1.2501,1.2501,1.2501,1.2501,1.2501,1.2501,1.2501,1.2501,1.2501,1.2501,1.2501,1.2501,1.2501,1.2501,1.2501,1.2501,1.2501,1.2501,1.2501,1.2501,1.2501,1.2501,1.2501,1.2501,1.2501,1.2501,1.2501,1.2501,1.2501,1.2501,1.2501,1.2501,1.2501,1.2192,1.1417,1.1262,1.0486,0.8778,0.7994,0.7525,0.7525,0.7525,0.7525,0.9008,0.0,0.9562,0.9601,0.9793,0.9793,0.0,0.9139,0.9114,0.8632,0.8669,0.8886,0.9376,0.9367,0.9766,1.0763,1.1019,1.1042,1.1318,1.1077,1.105,1.137,1.107,1.1143,1.2035,1.1558,1.1287,1.1599,1.1619,1.1619,1.1619,1.1619,1.1619,1.1619,1.1619,1.1619,1.1619,1.1619,1.1619,1.1619,1.1619,1.1619,1.1619,1.1619,1.1681,1.1789,1.1938,1.2074,1.2196,1.2379,1.2454,1.2454,1.2488,1.2501,1.2501,1.2501,1.2501,1.2501,1.2501,1.2501,1.2501,1.2501,1.2501,1.2501,1.2501,1.2501,1.2501,1.2501,1.2501,1.2501,1.2501,1.2501,1.2501,1.2501,1.2501,1.2501,1.2501,1.2501,1.2501,1.2501,1.2501,1.2501,1.2501,1.2501,1.2501,1.2501,1.2501,1.2501,1.2501,1.2501,1.2501,1.2501,1.2501,1.2501,1.2501,1.2501,1.2501,1.2501,1.2501,1.2501,1.2501,1.2501,1.2347,1.2192,1.1572,1.0486,0.8778,0.8622,0.8154,0.7525,0.7525,0.7525,0.8905,0.9482,0.9337,0.9776,0.992,0.9795,0.9322,0.9135,0.8916,0.8566,0.8591,0.892,0.927,0.9302,0.9662,1.0754,1.0717,1.0766,1.1405,1.1567,1.1462,1.1502,1.1359,1.1368,1.1682,1.1441,1.1287,1.1599,1.1619,1.1619,1.1619,1.1619,1.1619,1.1619,1.1619,1.1619,1.1619,1.1619,1.1619,1.1619,1.1619,1.1619,1.1619,1.1619,1.1694,1.1837,1.1993,1.2149,1.2298,1.244,1.2501,1.2501,1.2501,1.2501,1.2501,1.2501,1.2501,1.2501,1.2501,1.2501,1.2501,1.2501,1.2501,1.2501,1.2501,1.2501,1.2501,1.2501,1.2501,1.2501,1.2501,1.2501,1.2501,1.2501,1.2501,1.2501,1.2501,1.2501,1.2501,1.2501,1.2501,1.2501,1.2501,1.2501,1.2501,1.2501,1.2501,1.2501,1.2501,1.2501,1.2501,1.2501,1.2501,1.2501,1.2501,1.2501,1.2501,1.2501,1.2501,1.2501,1.2501,1.2501,1.2501,1.2501,1.1727,1.0796,1.0019,0.9246,0.8622,0.815,0.7681,0.7525,0.9007,0.9238,0.91,0.9984,1.0074,0.9813,0.9597,0.9199,0.8869,0.8451,0.8541,0.8815,0.9018,0.9125,0.9403,1.0527,1.0288,1.0311,1.12,1.1725,1.1845,1.1637,1.1571,1.1531,1.1413,1.1324,1.1314,1.1599,1.1619,1.1619,1.1619,1.1619,1.1619,1.1619,1.1619,1.1619,1.1619,1.1619,1.1619,1.1619,1.1619,1.1619,1.1619,1.164,1.1728,1.1877,1.2026,0.0,1.2332,1.2454,1.2501,1.2501,1.2501,1.2501,1.2501,1.2501,1.2501,1.2501,1.2501,1.2501,1.2501,1.2501,1.2501,1.2501,1.2501,1.2501,1.2501,1.2501,1.2501,1.2501,1.2501,1.2501,1.2501,1.2501,1.2501,1.2501,1.2501,1.2501,1.2501,1.2501,1.2501,1.2501,1.2501,1.2501,1.2501,1.2501,1.2501,1.2501,1.2501,1.2501,1.2501,1.2501,1.2501,1.2501,1.2501,1.2501,1.2501,1.2501,1.2501,1.2501,1.2501,1.2501,1.2501,1.2501,1.1882,1.1417,1.1262,0.9713,0.8934,0.8778,0.7838,0.7525,0.9241,0.925,0.8779,0.9553,0.9785,0.9777,0.9164,0.9104,0.9078,0.8615,0.8894,0.9276,0.9411,0.9733,1.0236,1.1034,1.0808,1.0736,1.0793,1.0688,1.0842,1.1379,1.1269,1.1247,1.1971,1.1699,1.143,1.1606,1.1619,1.1619,1.1619,1.1619,1.1619,1.1619,1.1619,1.1619,1.1619,1.1619,1.1619,1.1619,1.1619,1.1619,1.1619,1.1742,1.1884,1.2033,0.0,1.2338,1.2474,1.2494,1.2501,1.2501,1.2501,1.2501,1.2501,1.2501,1.2501,1.2501,1.2501,1.2501,1.2501,1.2501,1.2501,1.2501,1.2501,1.2501,1.2501,1.2501,1.2501,1.2501,1.2501,1.2501,1.2501,1.2501,1.2501,1.2501,1.2501,1.2501,1.2501,1.2501,1.2501,1.2501,1.2501,1.2501,1.2501,1.2501,1.2501,1.2501,1.2501,1.2501,1.2501,1.2501,1.2501,1.2501,1.2501,1.2501,1.2501,1.2501,1.2501,1.2501,1.2501,1.2501,1.2501,1.2501,1.2347,1.2037,1.1262,1.033,0.9402,0.8778,0.7838,0.7525,0.8739,0.8714,0.8306,0.92,0.9627,0.9772,0.9493,0.9299,0.9148,0.9047,0.925,0.9399,0.9534,0.9863,1.0103,1.0432,1.0862,1.1083,1.0979,1.1188,1.1509,1.1635,1.1607,1.1539,1.1696,1.144,1.1457,1.1606,1.1619,1.1619,1.1619,1.1619,1.1619,1.1619,1.1619,1.1619,1.1619,1.1619,1.1619,1.1619,1.1619,1.1619,1.1626,1.1769,1.1918,1.2074,0.0,1.2372,1.2501,1.2501,1.2501,1.2501,1.2501,1.2501,1.2501,1.2501,1.2501,1.2501,1.2501,1.2501,1.2501,1.2501,1.2501,1.2501,1.2501,1.2501,1.2501,1.2501,1.2501,1.2501,1.2501,1.2501,1.2501,1.2501,1.2501,1.2501,1.2501,1.2501,1.2501,1.2501,1.2501,1.2501,1.2501,1.2501,1.2501,1.2501,1.2501,1.2501,1.2501,1.2501,1.2501,1.2501,1.2501,1.2501,1.2501,1.2501,1.2501,1.2501,1.2501,1.2501,1.2501,1.2501,1.2501,1.2501,1.2501,1.2347,1.1882,1.1107,1.033,0.9397,0.8622,0.7994,0.848,0.8359,0.8009,0.9091,0.9562,0.98,0.9792,0.9541,0.9282,0.9304,0.945,0.963,0.9681,0.9983,1.0174,1.0094,1.0755,1.1246,1.1092,1.1561,1.1826,1.1615,1.1687,1.1711,1.1289,1.1335,1.1491,1.1613,1.1619,1.1619,1.1619,1.1619,1.1619,1.1619,1.1619,1.1619,1.1619,1.1619,1.1619,1.1619,1.1619,1.164,1.1674,1.1816,1.1972,1.2121,1.2277,1.24,1.2501,1.2501,1.2501,1.2501,1.2501,1.2501,1.2501,1.2501,1.2501,1.2501,1.2501,1.2501,1.2501,1.2501,1.2501,1.2501,1.2501,1.2501,1.2501,1.2501,1.2501,1.2501,1.2501,1.2501,1.2501,1.2501,1.2501,1.2501,1.2501,1.2501,1.2501,1.2501,1.2501,1.2501,1.2501,1.2528,1.2556,1.2556,1.2589,1.261,1.261,1.261,1.261,1.261,1.261,1.261,1.261,1.261,1.261,1.261,1.2542,1.2501,1.2501,1.2501,1.2501,1.2501,1.2501,1.2501,1.2501,1.1727,1.0952,1.033,0.9246,0.8466,0.8866,0.8524,0.7855,0.9353,0.9669,0.9528,0.9271,0.9384,0.9551,0.9286,0.9584,0.9894,1.0101,1.0683,1.1069,1.1017,1.0814,1.0645,1.0362,1.052,1.0664,1.0829,1.1111,1.1289,1.1158,1.143,1.1606,1.1619,1.1619,1.1619,1.1619,1.1619,1.1619,1.1619,1.1619,1.1619,1.1619,1.1619,1.1619,1.1619,1.1619,1.1687,1.1823,1.1972,1.2128,1.2284,1.2427,1.2494,1.2501,1.2501,1.2501,1.2501,1.2501,1.2501,1.2501,1.2501,1.2501,1.2501,1.2501,1.2501,1.2501,1.2501,1.2501,1.2501,1.2501,1.2501,1.2501,1.2501,1.2501,1.2501,1.2501,1.2501,1.2501,1.2501,1.2501,1.2501,1.2501,1.2501,1.2501,1.2501,1.2501,1.2501,1.2501,1.2617,1.2712,1.2712,1.2834,1.2929,1.2929,1.2929,1.2929,1.2929,1.2929,1.2929,1.2929,1.2929,1.2929,1.2929,1.2657,1.2501,1.2501,1.2501,1.2501,1.2501,1.2501,1.2501,1.2501,1.1727,1.1262,1.1107,0.9558,0.8778,0.8356,0.8396,0.8445,0.9557,0.9895,0.9896,0.9514,0.961,0.9813,1.0334,1.0262,1.0158,1.0516,1.0431,1.0332,1.0707,1.0492,1.028,1.0249,1.0405,1.0548,1.0704,1.0982,1.1165,1.1165,1.1443,1.1619,1.1619,1.1619,1.1619,1.1619,1.1619,1.1619,1.1619,1.1619,1.1619,1.1619,1.1619,1.1619,1.1619,1.1619,1.1694,1.1837,1.1993,1.2149,1.2298,1.244,1.2501,1.2501,1.2501,1.2501,1.2501,1.2501,1.2501,1.2501,1.2501,1.2501,1.2501,1.2501,1.2501,1.2501,1.2501,1.2501,1.2501,1.2501,1.2501,1.2501,1.2501,1.2501,1.2501,1.2501,1.2501,1.2501,1.2501,1.2501,1.2501,1.2501,1.2501,1.2501,1.2501,1.2576,1.2644,1.2644,1.2773,1.2874,1.2874,1.2922,1.2963,1.2963,1.2963,1.2963,1.2963,1.2963,1.2963,1.2963,1.2963,1.2963,1.2963,1.2759,1.2644,1.2644,1.2556,1.2501,1.2501,1.2501,1.2501,1.2501,1.2192,1.1727,1.1262,1.0641,0.9864,0.8261,0.8512,0.8653,0.9522,0.9803,0.9911,0.9572,0.9766,1.0204,1.0638,1.0529,1.0345,1.0693,1.0369,1.0081,1.045,1.0264,1.0161,1.0263,1.0446,1.0602,1.0711,1.0982,1.1165,1.1165,1.1443,1.1619,1.1619,1.1619,1.1619,1.1619,1.1619,1.1619,1.1619,1.1619,1.1619,1.1619,1.1619,1.1619,1.1619,1.1667,1.1762,1.1904,1.2013,1.2169,1.2366,1.2461,1.2501,1.2501,1.2501,1.2501,1.2501,1.2501,1.2501,1.2501,1.2501,1.2501,1.2501,1.2501,1.2501,1.2501,1.2501,1.2501,1.2501,1.2501,1.2501,1.2501,1.2501,1.2501,1.2501,1.2501,1.2501,1.2501,1.2501,1.2501,1.2501,1.2501,1.2542,1.2576,1.2576,1.2698,1.28,1.28,1.2929,1.303,1.303,1.3071,1.3098,1.3098,1.3098,1.3098,1.3098,1.3098,1.3098,1.3098,1.3098,1.3098,1.3098,1.2956,1.2847,1.2807,1.2705,1.2644,1.2644,1.2644,1.2644,1.2644,1.2644,1.2331,1.1861,1.1547,1.0914,0.886,0.8875,0.8615,0.9094,0.9391,0.947,0.955,1.0047,1.0331,0.994,1.0187,1.0554,1.0554,1.0554,1.0554,1.0554,1.0355,1.0283,1.0283,1.0534,1.0717,1.0724,1.0982,1.1165,1.1165,1.1443,1.1619,1.1619,1.1619,1.1619,1.1619,1.1619,1.1619,1.1619,1.1619,1.1619,1.1619,1.1619,1.1619,1.1619,1.1762,1.1911,1.206,1.206,1.2223,1.2501,1.2501,1.2501,1.2501,1.2501,1.2501,1.2501,1.2501,1.2501,1.2501,1.2501,1.2501,1.2501,1.2501,1.2501,1.2501,1.2501,1.2501,1.2501,1.2501,1.2501,1.2501,1.2501,1.2501,1.2501,1.2501,1.2501,1.2501,1.2501,1.2501,1.2501,1.2501,1.2623,1.2732,1.2732,1.2861,1.2963,1.2963,1.3078,1.3173,1.3173,1.3302,1.3403,1.3403,1.3403,1.3403,1.3403,1.3403,1.3403,1.3403,1.3403,1.3403,1.3403,1.3261,1.3112,1.2969,1.2963,1.2963,1.2963,1.2963,1.2963,1.2963,1.2963,1.2963,1.2963,1.2147,1.1499,0.8812,0.9236,0.9587,0.9795,1.0044,1.019,0.9975,0.996,0.9932,0.9861,1.0265,1.0681,1.0569,1.0285,1.0116,1.0598,1.0425,1.0317,1.0412,1.0595,1.0758,1.0867,1.105,1.1206,1.1314,1.1504,1.1619,1.1619,1.1619,1.1619,1.1619,1.1619,1.1619,1.1619,1.1619,1.1619,1.1619,1.1619,1.1619,1.1619,1.1762,1.1911,1.2067,1.2176,1.2325,1.2501,1.2501,1.2501,1.2501,1.2501,1.2501,1.2501,1.2501,1.2501,1.2501,1.2501,1.2501,1.2501,1.2501,1.2501,1.2501,1.2501,1.2501,1.2501,1.2501,1.2501,1.2501,1.2501,1.2501,1.2501,1.2501,1.2583,1.2637,1.2528,1.2583,1.2664,1.2664,1.2786,1.2895,1.2895,1.301,1.3112,1.3112,1.3234,1.3336,1.3336,1.337,1.3403,1.3403,1.3403,1.3403,1.3403,1.3403,1.3403,1.3403,1.3403,1.3403,1.3403,1.3356,1.3268,1.3119,1.3017,1.2963,1.2963,1.2963,1.2963,1.2963,1.2963,1.2963,1.2963,1.2795,1.2314,0.922,0.9673,0.9973,1.0,1.0092,1.0266,1.0119,0.9905,0.9842,0.9781,1.0065,1.04,1.0187,1.0051,1.0033,1.04,1.0412,1.0392,1.048,1.0622,1.0778,1.0928,1.1077,1.1219,1.1375,1.1531,1.1619,1.1619,1.1619,1.1619,1.1619,1.1619,1.1619,1.1619,1.1619,1.1619,1.1619,1.1619,1.1647,1.1708,1.185,1.2006,1.2155,1.225,1.2366,1.2501,1.2501,1.2501,1.2501,1.2501,1.2501,1.2501,1.2501,1.2501,1.2501,1.2501,1.2501,1.2501,1.2501,1.2501,1.2501,1.2501,1.2501,1.2501,1.2501,1.2501,1.2501,1.2501,1.2501,1.2515,1.2576,1.2664,1.2705,1.2617,1.2712,1.282,1.282,1.2942,1.3044,1.3044,1.3166,1.3261,1.3261,1.3342,1.3403,1.3403,1.3403,1.3403,1.3403,1.3403,1.3403,1.3403,1.3403,1.3403,1.3403,1.3403,1.3403,1.3403,1.3403,1.3356,1.3268,1.318,1.3132,1.3132,1.3132,1.3132,1.3132,1.3132,1.3132,1.3132,1.3132,1.297,0.9791,0.9991,1.0123,0.9829,0.9842,0.9903,0.9847,0.9822,0.9822,0.9822,0.9822,0.9822,0.9822,0.9944,1.0053,1.0066,1.031,1.0493,1.0514,1.0629,1.0778,1.0948,1.1084,1.1226,1.1396,1.1538,1.1619,1.1619,1.1619,1.1619,1.1619,1.1619,1.1619,1.1619,1.1619,1.1619,1.1619,1.1619,1.1687,1.183,1.1986,1.2142,1.2291,1.2305,1.2379,1.2501,1.2501,1.2501,1.2501,1.2501,1.2501,1.2501,1.2501,1.2501,1.2501,1.2501,1.2501,1.2501,1.2501,1.2501,1.2501,1.2501,1.2501,1.2501,1.2501,1.2501,1.2501,1.2501,1.2515,1.2556,1.2691,1.2752,1.2773,1.2773,1.2874,1.2983,1.2983,1.3091,1.3193,1.3193,1.3308,1.3403,1.3403,1.3403,1.3403,1.3403,1.3403,1.3403,1.3403,1.3403,1.3403,1.3403,1.3403,1.3403,1.3403,1.3403,1.3403,1.3403,1.3403,1.3403,1.3403,1.3403,1.3403,1.3403,1.3403,1.3403,1.3403,1.3403,1.3403,1.3403,1.3403,1.3231,0.9739,0.9949,1.0003,0.9945,0.9842,0.9827,0.9802,0.9822,0.9822,0.9822,0.9822,0.9822,0.9822,0.9944,1.0086,1.0209,1.0378,1.0534,1.0656,1.0697,1.0819,1.1084,1.1145,1.1267,1.1545,1.1599,1.1619,1.1619,1.1619,1.1619,1.1619,1.1619,1.1619,1.1619,1.1619,1.1619,1.1619,1.1619,1.1687,1.183,1.1986,1.2142,1.2291,1.2406,1.2474,1.2501,1.2501,1.2501,1.2501,1.2501,1.2501,1.2501,1.2501,1.2501,1.2501,1.2501,1.2501,1.2501,1.2501,1.2501,1.2501,1.2501,1.2501,1.2501,1.2501,1.2501,1.2501,1.2501,1.2589,1.2684,1.2718,1.2901,1.3078,1.3078,1.3105,1.3125,1.3125,1.3247,1.3349,1.3349,1.3376,1.3403,1.3403,1.3403,1.3403,1.3403,1.3403,1.3403,1.3403,1.3403,1.3403,1.3403,1.3403,1.3403,1.3403,1.3403,1.3403,1.3403,1.3403,1.3403,1.3403,1.3403,1.3403,1.3403,1.3403,1.3403,1.3403,1.3403,1.3403,1.3403,1.3403,1.3403,0.9601,0.9976,1.013,0.9866,0.9765,0.9822,0.9822,0.9822,0.9822,0.9822,0.9822,0.9842,0.9917,1.0053,1.0209,1.0358,1.0507,1.0629,1.0711,1.0717,1.0833,1.1124,1.1165,1.128,1.1592,1.1619,1.1619,1.1619,1.1619,1.1619,1.1619,1.1619,1.1619,1.1619,1.1619,1.1619,1.1619,1.1619,1.1728,1.1945,1.202,1.2176,1.2393,1.2467,1.2501,1.2501,1.2501,1.2501,1.2501,1.2501,1.2501,1.2501,1.2501,1.2501,1.2501,1.2501,1.2501,1.2501,1.2501,1.2501,1.2501,1.2501,1.2501,1.2501,1.2501,1.2501,1.2515,1.2589,1.2671,1.2759,1.2908,1.3057,1.3193,1.3261,1.3281,1.3281,1.3281,1.3342,1.3403,1.3403,1.3403,1.3403,1.3403,1.3403,1.3403,1.3403,1.3403,1.3403,1.3403,1.3403,1.3403,1.3403,1.3403,1.3403,1.3403,1.3403,1.3403,1.3403,1.3403,1.3403,1.3403,1.3403,1.3403,1.3403,1.3403,1.3403,1.3403,1.3403,1.3403,1.3403,1.3403,1.3403,0.9522,0.9869,1.0189,0.9912,0.9822,0.9822,0.9822,0.9822,0.9822,0.9822,0.9822,0.9869,1.0019,1.0175,1.0324,1.0466,1.0622,1.0717,1.0717,1.0744,1.086,1.1131,1.1185,1.1314,1.1592,1.1619,1.1619,1.1619,1.1619,1.1619,1.1619,1.1619,1.1619,1.1619,1.1619,1.1619,1.1619,1.1647,1.1796,1.206,1.2115,1.2264,1.2501,1.2501,1.2501,1.2501,1.2501,1.2501,1.2501,1.2501,1.2501,1.2501,1.2501,1.2501,1.2501,1.2501,1.2501,1.2501,1.2501,1.2501,1.2501,1.2501,1.2501,1.2501,1.2501,1.2522,1.2569,1.2698,1.2766,1.2861,1.3112,1.3193,1.3247,1.337,1.3403,1.3403,1.3403,1.3403,1.3403,1.3403,1.3403,1.3403,1.3403,1.3403,1.3403,1.3403,1.3403,1.3403,1.3403,1.3403,1.3403,1.3403,1.3403,1.3403,1.3403,1.3403,1.3403,1.3403,1.3403,1.3403,1.3403,1.3403,1.3403,1.3403,1.3403,1.3403,1.3403,1.3403,1.3403,1.3403,1.3403,1.3403,0.9292,0.9454,0.963,0.9792,0.9822,0.9822,0.9822,0.9822,0.9822,0.9822,0.9822,0.9869,1.0019,1.0175,1.0324,1.0466,1.0622,1.0717,1.0717,1.0833,1.0982,1.1145,1.128,1.143,1.1599,1.1619,1.1619,1.1619,1.1619,1.1619,1.1619,1.1619,1.1619,1.1619,1.1619,1.1619,1.1619,1.1742,1.1891,1.2067,1.2318,1.2461,1.2501,1.2501,1.2501,1.2501,1.2501,1.2501,1.2501,1.2501,1.2501,1.2501,1.2501,1.2501,1.2501,1.2501,1.2501,1.2501,1.2501,1.2501,1.2501,1.2501,1.2501,1.2501,1.2501,1.2596,1.2705,1.2725,1.2915,1.3125,1.3159,1.3268,1.3376,1.3397,1.3403,1.3403,1.3403,1.3403,1.3403,1.3403,1.3403,1.3403,1.3403,1.3403,1.3403,1.3403,1.3403,1.3403,1.3403,1.3403,1.3403,1.3403,1.3403,1.3403,1.3403,1.3403,1.3403,1.3403,1.3403,1.3403,1.3403,1.3403,1.3403,1.3403,1.3403,1.3403,1.3403,1.3403,1.3403,1.3403,1.3403,1.3403,0.9348,0.9564,0.9745,0.9813,0.9822,0.9822,0.9822,0.9822,0.9822,0.9822,0.989,0.9998,1.0148,1.0297,1.0446,1.0595,1.0677,1.0717,1.0717,1.0853,1.1002,1.1145,1.1301,1.145,1.1606,1.1332,1.1332,1.1619,1.1332,1.1332,1.1332,1.1476,1.1476,1.1332,1.1476,1.166,1.1735,1.1796,1.1952,1.2189,1.24,1.2501,1.2501,1.2501,1.2501,1.2501,1.2501,1.2501,1.2501,1.2501,1.2501,1.2501,1.2501,1.2501,1.2501,1.2501,1.2501,1.2501,1.2501,1.2501,1.2501,1.2501,1.2501,1.2501,1.2501,1.261,1.2745,1.2834,1.301,1.3193,1.3275,1.3349,1.3403,1.3403,1.3403,1.3403,1.3403,1.3403,1.3403,1.3403,1.3403,1.3403,1.3403,1.3403,1.3403,1.3403,1.3403,1.3403,1.3403,1.3403,1.3403,1.3403,1.3403,1.3403,1.3403,1.3403,1.3403,1.3403,1.3403,1.3403,1.3403,1.3403,1.3403,1.3403,1.3403,1.3403,1.3403,1.3403,1.3403,1.3403,1.3403,1.3403,0.9421,0.9653,0.9779,0.9856,0.9919,0.9847,0.9802,0.9822,0.9822,0.9822,0.9971,1.0141,1.0256,1.0399,1.0541,1.0697,1.0717,1.0717,1.0717,1.0745,1.0906,1.1151,1.1194,1.1348,1.1462,1.1188,1.1044,1.1325,1.1038,1.0894,1.0894,1.1181,1.1188,1.1044,1.1332,1.1543,1.183,1.1911,1.2081,1.2345,1.2447,1.2501,1.2501,1.2501,1.2501,1.2501,1.2501,1.2501,1.2501,1.2501,1.2501,1.2501,1.2501,1.2501,1.2501,1.2501,1.2501,1.2501,1.2501,1.2501,1.2501,1.2501,1.2501,1.2508,1.2549,1.2664,1.282,1.2969,1.3119,1.3254,1.337,1.3403,1.3403,1.3403,1.3403,1.3403,1.3403,1.3403,1.3403,1.3403,1.3403,1.3403,1.3403,1.3403,1.3403,1.3403,1.3403,1.3403,1.3403,1.3403,1.3403,1.3403,1.3403,1.3403,1.3403,1.3403,1.3403,1.3403,1.3403,1.3403,1.3403,1.3403,1.3403,1.3403,1.3403,1.3403,1.3403,1.3403,1.3403,1.3403,1.3403,1.3403,0.9207,0.9443,0.9664,0.9816,0.9982,1.0054,0.9875,0.9822,0.9822,0.9822,1.0059,1.027,1.0276,1.0399,1.0541,1.0697,1.0717,1.0717,1.0717,1.0697,1.0737,1.1158,1.114,1.1031,1.1044,1.1044,1.0894,1.0599,1.0599,1.0599,1.0599,1.0599,1.075,1.1044,1.1044,1.1253,1.183,1.2121,1.2338,1.2488,1.2501,1.2501,1.2501,1.2501,1.2501,1.2501,1.2501,1.2501,1.2501,1.2501,1.2501,1.2501,1.2501,1.2501,1.2501,1.2501,1.2501,1.2501,1.2501,1.2501,1.2501,1.2501,1.2501,1.2528,1.2671,1.2827,1.2976,1.3119,1.3268,1.339,1.3397,1.3403,1.3403,1.3403,1.3403,1.3403,1.3403,1.3403,1.3403,1.3403,1.3403,1.3403,1.3403,1.3403,1.3403,1.3403,1.3403,1.3403,1.3403,1.3403,1.3403,1.3403,1.3403,1.3403,1.3403,1.3403,1.3403,1.3403,1.3403,1.3403,1.3403,1.3403,1.3403,1.3403,1.3403,1.3403,1.3403,1.3403,1.3403,1.3403,1.3403,1.3403,0.8928,0.9359,0.9807,0.9688,0.9904,0.9953,0.9831,0.9856,0.9849,0.9944,1.0134,1.031,1.0399,1.0534,1.0656,1.0711,1.0717,1.0758,1.0853,1.09,1.0922,1.1014,1.0921,1.09,1.075,1.0462,1.0317,1.0455,1.0311,1.0167,1.0167,1.0311,1.0455,1.0317,1.0606,1.1002,1.1534,1.2126,1.2447,1.2501,1.2501,1.2501,1.2501,1.2501,1.2501,1.2501,1.2501,1.2501,1.2501,1.2501,1.2501,1.2501,1.2501,1.2501,1.2501,1.2501,1.2501,1.2501,1.2501,1.2501,1.2501,1.2501,1.2501,1.2528,1.2684,1.284,1.299,1.3132,1.3281,1.3403,1.3403,1.3403,1.3403,1.3403,1.3403,1.3403,1.3403,1.3403,1.3403,1.3403,1.3403,1.3403,1.3403,1.3403,1.3403,1.3403,1.3403,1.3403,1.3403,1.3403,1.3403,1.3403,1.3403,1.3403,1.3403,1.3403,1.3403,1.3403,1.3403,1.3403,1.3403,1.3403,1.3403,1.3403,1.3403,1.3403,1.3403,1.3403,1.3403,1.3403,1.3403,1.3403,0.8972,0.9305,0.9801,0.9838,0.9951,0.9899,1.0016,0.9923,0.9926,0.9985,1.0175,1.0324,1.0466,1.0616,1.0717,1.0717,1.0717,1.0772,1.0928,1.0933,1.0942,1.0812,1.0811,1.075,1.0311,1.0023,1.0023,1.0023,0.9879,0.9735,0.9735,1.0023,1.0041,0.9942,1.0426,1.1001,1.1534,1.2073,1.2347,1.2501,1.2501,1.2501,1.2501,1.2501,1.2501,1.2501,1.2501,1.2501,1.2501,1.2501,1.2501,1.2501,1.2501,1.2501,1.2501,1.2501,1.2501,1.2501,1.2501,1.2501,1.2501,1.2501,1.2535,1.261,1.2759,1.2915,1.3064,1.3207,1.3322,1.3403,1.3403,1.3403,1.3403,1.3403,1.3403,1.3403,1.3403,1.3403,1.3403,1.3403,1.3403,1.3403,1.3403,1.3403,1.3403,1.3403,1.3403,1.3403,1.3403,1.3403,1.3403,1.3403,1.3403,1.3403,1.3403,1.3403,1.3403,1.3403,1.3403,1.3403,1.3403,1.3403,1.3403,1.3403,1.3403,1.3403,1.3403,1.3403,1.3403,1.3403,1.3403,1.3403,0.0,0.0,0.0,1.036,1.0181,1.0012,1.0433,1.0156,0.991,1.0046,1.0175,1.0331,1.0473,1.0622,1.0717,1.0717,1.0717,1.0772,1.0934,1.0803,1.0664,1.0812,1.0662,1.0311,0.9879,0.9879,0.9735,0.9302,0.9302,0.9302,0.9302,0.9302,0.9507,1.0069,1.0643,1.1083,1.1682,1.1818,1.2037,1.2501,1.2501,1.2501,1.2501,1.2501,1.2501,1.2501,1.2501,1.2501,1.2501,1.2501,1.2501,1.2501,1.2501,1.2501,1.2501,1.2501,1.2501,1.2501,1.2501,1.2501,1.2501,1.2501,1.2603,1.2759,1.2915,1.3057,1.3207,1.3356,1.3403,1.3403,1.3403,1.3403,1.3403,1.3403,1.3403,1.3403,1.3403,1.3403,1.3403,1.3403,1.3403,1.3403,1.3403,1.3403,1.3403,1.3403,1.3403,1.3403,1.3403,1.3403,1.3403,1.3403,1.3403,1.3403,1.3403,1.3403,1.3403,1.3403,1.3403,1.3403,1.3403,1.3403,1.3403,1.3403,1.3403,1.3403,1.3403,1.3403,1.3403,1.3403,1.3403,1.3403,0.9346,0.0,0.0,0.0,0.0,0.0,1.0029,1.0023,1.012,1.0415,1.0433,1.048,1.0629,1.069,1.0717,1.0717,1.0717,1.0812,1.107,1.1138,1.0981,1.0662,1.0575,1.0167,0.959,0.9446,0.9446,0.9302,0.9302,0.9302,0.9302,0.9302,0.9362,0.9628,1.05,1.1083,1.1219,1.1965,1.2347,1.2501,1.2501,1.2501,1.2501,1.2501,1.2501,1.2501,1.2501,1.2501,1.2501,1.2501,1.2501,1.2501,1.2501,1.2501,1.2501,1.2501,1.2501,1.2501,1.2501,1.2501,1.2501,1.2501,1.2603,1.2759,1.2915,1.3057,1.3207,1.3356,1.3403,1.3403,1.3403,1.3403,1.3403,1.3403,1.3403,1.3403,1.3403,1.3403,1.3403,1.3403,1.3403,1.3403,1.3403,1.3403,1.3403,1.3403,1.3403,1.3403,1.3403,1.3403,1.3403,1.3403,1.3403,1.3403,1.3403,1.3403,1.3403,1.3403,1.3403,1.3403,1.3403,1.3403,1.3403,1.3403,1.3403,1.3403,1.3403,1.3403,1.3403,1.3403,1.3403,1.3403,0.9516,0.9554,0.9677,0.9809,0.0,0.0,1.0029,1.0091,1.0181,1.0379,1.0524,1.0541,1.069,1.0717,1.0717,1.0717,1.0717,1.0806,1.1043,1.1124,1.0975,1.0488,1.0425,1.0167,0.9446,0.9302,0.9302,0.9302,0.9302,0.9302,0.9302,0.9302,0.9383,0.9557,1.0225,1.0806,1.1152,1.1843,1.2347,1.2501,1.2501,1.2501,1.2501,1.2501,1.2501,1.2501,1.2501,1.2501,1.2501,1.2501,1.2501,1.2501,1.2501,1.2501,1.2501,1.2501,1.2501,1.2501,1.2501,1.2501,1.2515,1.2576,1.2698,1.2854,1.3003,1.3152,1.3288,1.3376,1.3403,1.3403,1.3403,1.3403,1.3403,1.3403,1.3403,1.3403,1.3403,1.3403,1.3403,1.3403,1.3403,1.3403,1.3403,1.3403,1.3403,1.3403,1.3403,1.3403,1.3403,1.3403,1.3403,1.3403,1.3403,1.3403,1.3403,1.3403,1.3403,1.3403,1.3403,1.3403,1.3403,1.3403,1.3403,1.3403,1.3403,1.3403,1.3403,1.3403,1.3403,1.3403,1.3403,1.3403,0.9723,0.9734,0.9838,1.0376,1.0121,0.0,1.0335,1.0329,1.0295,1.0379,1.0489,1.0541,1.0678,1.0713,1.0719,1.0706,1.0761,1.0738,1.0921,1.1056,1.0922,1.0383,1.0364,1.0149,0.9446,0.9446,0.9302,0.9302,0.9302,0.9302,0.9302,0.9318,0.9432,0.981,1.0133,1.0708,1.1411,1.1727,1.2192,1.2501,1.2501,1.2501,1.2501,1.2501,1.2501,1.2501,1.2501,1.2501,1.2501,1.2501,1.2501,1.2501,1.2501,1.2501,1.2501,1.2501,1.2501,1.2501,1.2501,1.2501,1.2528,1.2678,1.2834,1.299,1.3132,1.3281,1.3403,1.3403,1.3403,1.3403,1.3403,1.3403,1.3403,1.3403,1.3403,1.3403,1.3403,1.3403,1.3403,1.3403,1.3403,1.3403,1.3403,1.3403,1.3403,1.3403,1.3403,1.3403,1.3403,1.3403,1.3403,1.3403,1.3403,1.3403,1.3403,1.3403,1.3403,1.3403,1.3403,1.3403,1.3403,1.3403,1.3403,1.3403,1.3403,1.3403,1.3403,1.3403,1.3403,1.3403,1.3403,1.3403,1.0306,1.0272,1.014,1.0083,1.0234,0.0,1.015,1.0518,1.0881,1.0766,1.0834,1.0909,1.0948,1.1056,1.111,1.0971,1.1039,1.102,1.0894,1.0975,1.0953,1.0658,1.0426,1.0197,1.0299,1.0023,0.9735,0.9735,0.9446,0.9302,0.9302,0.94,0.9667,1.0116,1.0672,1.1256,1.1727,1.2192,1.2347,1.2501,1.2501,1.2501,1.2501,1.2501,1.2501,1.2501,1.2501,1.2501,1.2501,1.2501,1.2501,1.2501,1.2501,1.2501,1.2501,1.2501,1.2501,1.2501,1.2501,1.2501,1.2528,1.2678,1.2834,1.299,1.3132,1.3281,1.3403,1.3403,1.3403,1.3403,1.3403,1.3403,1.3403,1.3403,1.3403,1.3403,1.3403,1.3403,1.3403,1.3403,1.3403,1.3403,1.3403,1.3403,1.3403,1.3403,1.3403,1.3403,1.3403,1.3403,1.3403,1.3403,1.3403,1.3403,1.3403,1.3403,1.3403,1.3403,1.3403,1.3403,1.3403,1.3403,1.3403,1.3403,1.3403,1.3403,1.3403,1.3403,1.3403,1.3403,1.3403,1.3403,1.0435,1.0499,1.0423,1.0423,1.0423,0.0,0.0,1.0492,1.0664,1.0916,1.0723,1.0681,1.097,1.0993,1.0993,1.1001,1.1027,1.1069,1.115,1.0927,1.0893,1.0696,1.0645,1.0457,1.0443,1.0167,0.9879,0.959,0.9446,0.9302,0.9302,0.9421,0.9689,1.0266,1.0848,1.1287,1.1882,1.2347,1.2501,1.2501,1.2501,1.2347,1.2192,1.2347,1.2347,1.2192,1.2347,1.2501,1.2501,1.2501,1.2501,1.2501,1.2501,1.2501,1.2501,1.2501,1.2501,1.2501,1.2501,1.2501,1.2542,1.2773,1.2895,1.3003,1.322,1.3342,1.3403,1.3403,1.3403,1.3403,1.3403,1.3403,1.3403,1.3403,1.3403,1.3403,1.3403,1.3403,1.3403,1.3403,1.3403,1.3403,1.3403,1.3403,1.3403,1.3403,1.3403,1.3403,1.3403,1.3403,1.3403,1.3403,1.3403,1.3403,1.3403,1.3403,1.3403,1.3403,1.3403,1.3403,1.3403,1.3403,1.3403,1.3403,1.3403,1.3403,1.3403,1.3403,1.3403,1.3403,1.3403,1.3403,1.0702,1.0849,1.0886,1.0943,1.0792,1.0707,0.0,0.0,0.0,1.0907,1.0664,1.0574,1.0978,1.0904,1.0737,1.0962,1.088,1.0882,1.1165,1.0988,1.0843,1.0745,1.075,1.0818,1.076,1.0315,0.9918,0.9441,0.9363,0.9347,0.9296,0.9421,0.9837,1.0416,1.0848,1.144,1.2037,1.2192,1.2347,1.2501,1.2347,1.2192,1.2037,1.2347,1.2347,1.2037,1.2347,1.2501,1.2501,1.2501,1.2501,1.2501,1.2501,1.2501,1.2501,1.2501,1.2501,1.2501,1.2501,1.2522,1.2589,1.2874,1.2996,1.3091,1.3329,1.3403,1.3403,1.3403,1.3403,1.3403,1.3403,1.3403,1.3403,1.3403,1.3403,1.3403,1.3403,1.3403,1.3403,1.3403,1.3403,1.3403,1.3403,1.3403,1.3403,1.3403,1.3403,1.3403,1.3403,1.3403,1.3403,1.3403,1.3403,1.3403,1.3403,1.3403,1.3403,1.3403,1.3403,1.3403,1.3403,1.3403,1.3403,1.3403,1.3403,1.3403,1.3403,1.3403,1.3403,1.3403,1.3403,1.3403,1.1367,1.1813,1.1831,1.1293,1.1548,1.1718,1.0801,0.0,1.1216,1.0993,0.0,1.1151,1.1197,0.0,0.0,1.0974,1.0984,1.0966,1.086,1.0964,1.1098,1.1417,1.0955,1.0869,1.1575,1.0894,1.0216,0.9844,0.9601,0.9406,0.928,0.9421,0.9837,1.0865,1.0999,1.1594,1.2347,1.2192,1.2192,1.2501,1.2192,1.2192,1.2501,1.2501,1.2501,1.2501,1.2501,1.2501,1.2501,1.2501,1.2501,1.2501,1.2501,1.2501,1.2501,1.2501,1.2501,1.2501,1.2501,1.2589,1.2732,1.2901,1.3139,1.3356,1.339,1.3403,1.3403,1.3403,1.3403,1.3403,1.3403,1.3403,1.3403,1.3403,1.3403,1.3403,1.3403,1.3403,1.3403,1.3403,1.3403,1.3403,1.3403,1.3403,1.3403,1.3403,1.3403,1.3403,1.3403,1.3403,1.3403,1.3403,1.3403,1.3403,1.3403,1.3403,1.3403,1.3403,1.3403,1.3403,1.3403,1.3403,1.3403,1.3403,1.3403,1.3403,1.3403,1.3403,1.3403,1.3403,1.3403,1.3403,1.1554,1.1636,1.1434,1.1476,1.1232,1.0966,1.1147,1.1047,1.1019,1.1217,0.0,0.0,0.0,0.0,0.0,0.0,1.0878,1.0958,1.0843,1.0808,1.0854,1.1328,1.1132,1.0913,1.1038,1.0652,1.0211,0.9574,0.9683,0.9513,0.9291,0.9421,0.9985,1.0865,1.0999,1.1594,1.2501,1.2037,1.2037,1.2192,1.2037,1.1882,1.1882,1.2347,1.2347,1.2192,1.2347,1.2501,1.2501,1.2501,1.2501,1.2501,1.2501,1.2501,1.2501,1.2501,1.2501,1.2515,1.2603,1.2678,1.2766,1.3003,1.3227,1.3403,1.3403,1.3403,1.3403,1.3403,1.3403,1.3403,1.3403,1.3403,1.3403,1.3403,1.3403,1.3403,1.3403,1.3403,1.3403,1.3403,1.3403,1.3403,1.3403,1.3403,1.3403,1.3403,1.3403,1.3403,1.3403,1.3403,1.3403,1.3403,1.3403,1.3403,1.3403,1.3403,1.3403,1.3403,1.3403,1.3403,1.3403,1.3403,1.3403,1.3403,1.3403,1.3403,1.3403,1.3403,1.3403,1.3403,1.3403,1.3403,1.154,1.1437,1.1219,1.1649,1.1227,1.088,1.1299,1.1123,1.0962,1.1425,1.1198,0.0,0.0,0.0,1.0849,1.0886,0.0,1.0762,1.0707,1.0636,1.0791,1.1156,1.1347,1.1125,1.0589,1.065,1.0411,0.957,0.9836,0.9735,0.9296,0.9389,0.9951,1.0859,1.0963,1.1403,1.2347,1.1882,1.1727,1.1727,1.1727,1.1572,1.1417,1.2192,1.2347,1.2037,1.2347,1.2501,1.2501,1.2501,1.2501,1.2501,1.2501,1.2501,1.2501,1.2501,1.2501,1.2522,1.2678,1.2786,1.2895,1.3152,1.3308,1.3403,1.3403,1.3403,1.3403,1.3403,1.3403,1.3403,1.3403,1.3403,1.3403,1.3403,1.3403,1.3403,1.3403,1.3403,1.3403,1.3403,1.3403,1.3403,1.3403,1.3403,1.3403,1.3403,1.3403,1.3403,1.3403,1.3403,1.3403,1.3403,1.3403,1.3403,1.3403,1.3403,1.3403,1.3403,1.3403,1.3403,1.3403,1.3403,1.3403,1.3403,1.3403,1.3403,1.3403,1.3403,1.3403,1.3403,1.3403,1.3403,1.1137,1.167,1.1833,1.1751,1.1868,1.1859,1.135,1.135,1.1491,1.151,1.1652,1.1784,1.1794,1.1624,1.1359,1.0962,1.0915,0.0,0.0,1.0499,1.0707,1.1119,1.1584,1.1686,1.1125,1.1193,1.0969,1.0109,1.0021,0.9769,0.928,0.9307,0.986,1.0859,1.0871,1.1302,1.1876,1.1572,1.1262,1.1262,1.1262,1.1572,1.1882,1.2347,1.2501,1.2501,1.2501,1.2501,1.2501,1.2501,1.2501,1.2501,1.2501,1.2501,1.2501,1.2501,1.2501,1.2522,1.2678,1.2915,1.3186,1.3342,1.3397,1.3403,1.3403,1.3403,1.3403,1.3403,1.3403,1.3403,1.3403,1.3403,1.3403,1.3403,1.3403,1.3403,1.3403,1.3403,1.3403,1.3403,1.3403,1.3403,1.3403,1.3403,1.3403,1.3403,1.3403,1.3403,1.3403,1.3403,1.3403,1.3403,1.3403,1.3403,1.3403,1.3403,1.3403,1.3403,1.3403,1.3403,1.3403,1.3403,1.3403,1.3403,1.3403,1.3403,1.3403,1.3403,1.3403,1.3403,1.3403,1.3403,0.0,0.0,1.0465,1.1243,1.104,1.0745,1.13,1.1463,1.152,1.152,1.168,1.1813,1.1813,1.1652,1.1425,1.1142,1.0981,1.0745,0.0,1.0329,1.0433,1.0565,1.088,1.0899,1.0385,1.0922,1.0809,0.9716,1.0009,0.9983,0.9296,0.9302,0.9854,1.0859,1.0865,1.1296,1.2347,1.1572,1.1262,1.1262,1.1262,1.1417,1.1572,1.2192,1.2501,1.2501,1.2501,1.2501,1.2501,1.2501,1.2501,1.2501,1.2501,1.2501,1.2501,1.2501,1.2569,1.2691,1.2935,1.3152,1.3336,1.3383,1.3403,1.3403,1.3403,1.3403,1.3403,1.3403,1.3403,1.3403,1.3403,1.3403,1.3403,1.3403,1.3403,1.3403,1.3403,1.3403,1.3403,1.3403,1.3403,1.3403,1.3403,1.3403,1.3403,1.3403,1.3403,1.3403,1.3403,1.3403,1.3403,1.3403,1.3403,1.3403,1.3403,1.3403,1.3403,1.3403,1.3403,1.3403,1.3403,1.3403,1.3403,1.3403,1.3403,1.3403,1.3403,1.3403,1.3403,1.3403,1.3403,1.3403,1.0122,0.9863,0.0,1.0638,1.0416,0.0,1.1089,1.1376,1.1431,1.1431,1.1686,1.1912,1.1437,1.1539,1.1569,1.0943,1.0928,1.0726,0.0,1.0159,1.0159,1.0159,1.0555,1.0788,1.0501,1.0844,1.0763,0.9965,1.0091,0.9918,0.9291,0.9302,0.9708,1.0709,1.0865,1.1145,1.1876,1.1417,1.1262,1.1107,1.1262,1.1417,1.1572,1.2192,1.2501,1.2501,1.2501,1.2501,1.2501,1.2501,1.2501,1.2501,1.2501,1.2535,1.2583,1.2583,1.2712,1.2915,1.3105,1.3275,1.3403,1.3403,1.3403,1.3403,1.3403,1.3403,1.3403,1.3403,1.3403,1.3403,1.3403,1.3403,1.3403,1.3403,1.3403,1.3403,1.3403,1.3403,1.3403,1.3403,1.3403,1.3403,1.3403,1.3403,1.3403,1.3403,1.3403,1.3403,1.3403,1.3403,1.3403,1.3403,1.3403,1.3403,1.3403,1.3403,1.3403,1.3403,1.3403,1.3403,1.3403,1.3403,1.3403,1.3403,1.3403,1.3403,1.3403,1.3403,1.3403,1.3403,1.3403,1.3403]}]]